<?xml version="1.0" encoding="UTF-8" standalone="no" ?>
<gpx xmlns="http://www.topografix.com/GPX/1/1" xmlns:xsi="http://www.w3.org/2001/XMLSchema-instance" xsi:schemaLocation="http://www.topografix.com/GPX/1/1 http://www.topografix.com/GPX/1/1/gpx.xsd" version="1.1" creator="VisuGPX - https://www.visugpx.com">
  <metadata>
    <name>Voie verte 1 </name>
    <desc><![CDATA[Départ du parking de Puygouzon  jusqu'à l'intersection de Denat]]></desc>
  </metadata>
  <trk>
    <name><![CDATA[Trace 1769432455000]]></name>
    <trkseg>
      <trkpt lat="43.88661" lon="2.1551">
        <ele>260</ele>
        <time>2026-01-26T13:00:55.000Z</time>
      </trkpt>
      <trkpt lat="43.88659" lon="2.15516">
        <ele>261</ele>
        <time>2026-01-26T13:01:00.000Z</time>
      </trkpt>
      <trkpt lat="43.88658" lon="2.15518">
        <ele>259</ele>
        <time>2026-01-26T13:01:05.000Z</time>
      </trkpt>
      <trkpt lat="43.88658" lon="2.15524">
        <ele>262</ele>
        <time>2026-01-26T13:01:10.000Z</time>
      </trkpt>
      <trkpt lat="43.88658" lon="2.15528">
        <ele>262</ele>
        <time>2026-01-26T13:01:15.000Z</time>
      </trkpt>
      <trkpt lat="43.88656" lon="2.15535">
        <ele>259</ele>
        <time>2026-01-26T13:01:20.000Z</time>
      </trkpt>
      <trkpt lat="43.88654" lon="2.1554">
        <ele>259</ele>
        <time>2026-01-26T13:01:25.000Z</time>
      </trkpt>
      <trkpt lat="43.88651" lon="2.15543">
        <ele>260</ele>
        <time>2026-01-26T13:01:30.000Z</time>
      </trkpt>
      <trkpt lat="43.88651" lon="2.1555">
        <ele>260</ele>
        <time>2026-01-26T13:01:35.000Z</time>
      </trkpt>
      <trkpt lat="43.8865" lon="2.15554">
        <ele>257</ele>
        <time>2026-01-26T13:01:40.000Z</time>
      </trkpt>
      <trkpt lat="43.8865" lon="2.15559">
        <ele>257</ele>
        <time>2026-01-26T13:01:45.000Z</time>
      </trkpt>
      <trkpt lat="43.88648" lon="2.15564">
        <ele>258</ele>
        <time>2026-01-26T13:01:50.000Z</time>
      </trkpt>
      <trkpt lat="43.88647" lon="2.15571">
        <ele>257</ele>
        <time>2026-01-26T13:01:55.000Z</time>
      </trkpt>
      <trkpt lat="43.88644" lon="2.15576">
        <ele>256</ele>
        <time>2026-01-26T13:02:00.000Z</time>
      </trkpt>
      <trkpt lat="43.88643" lon="2.15581">
        <ele>258</ele>
        <time>2026-01-26T13:02:05.000Z</time>
      </trkpt>
      <trkpt lat="43.88643" lon="2.15588">
        <ele>258</ele>
        <time>2026-01-26T13:02:10.000Z</time>
      </trkpt>
      <trkpt lat="43.88642" lon="2.15595">
        <ele>258</ele>
        <time>2026-01-26T13:02:15.000Z</time>
      </trkpt>
      <trkpt lat="43.88641" lon="2.156">
        <ele>259</ele>
        <time>2026-01-26T13:02:20.000Z</time>
      </trkpt>
      <trkpt lat="43.8864" lon="2.15604">
        <ele>260</ele>
        <time>2026-01-26T13:02:25.000Z</time>
      </trkpt>
      <trkpt lat="43.88638" lon="2.15609">
        <ele>259</ele>
        <time>2026-01-26T13:02:30.000Z</time>
      </trkpt>
      <trkpt lat="43.88638" lon="2.15614">
        <ele>259</ele>
        <time>2026-01-26T13:02:35.000Z</time>
      </trkpt>
      <trkpt lat="43.88636" lon="2.15618">
        <ele>258</ele>
        <time>2026-01-26T13:02:40.000Z</time>
      </trkpt>
      <trkpt lat="43.88636" lon="2.1562">
        <ele>258</ele>
        <time>2026-01-26T13:02:45.000Z</time>
      </trkpt>
      <trkpt lat="43.88635" lon="2.15629">
        <ele>258</ele>
        <time>2026-01-26T13:02:50.000Z</time>
      </trkpt>
      <trkpt lat="43.88632" lon="2.1563">
        <ele>257</ele>
        <time>2026-01-26T13:02:55.000Z</time>
      </trkpt>
      <trkpt lat="43.88633" lon="2.15633">
        <ele>257</ele>
        <time>2026-01-26T13:03:00.000Z</time>
      </trkpt>
      <trkpt lat="43.88632" lon="2.15638">
        <ele>258</ele>
        <time>2026-01-26T13:03:05.000Z</time>
      </trkpt>
      <trkpt lat="43.88632" lon="2.15643">
        <ele>258</ele>
        <time>2026-01-26T13:03:10.000Z</time>
      </trkpt>
      <trkpt lat="43.88632" lon="2.15651">
        <ele>260</ele>
        <time>2026-01-26T13:03:15.000Z</time>
      </trkpt>
      <trkpt lat="43.88631" lon="2.15658">
        <ele>260</ele>
        <time>2026-01-26T13:03:20.000Z</time>
      </trkpt>
      <trkpt lat="43.88631" lon="2.15664">
        <ele>261</ele>
        <time>2026-01-26T13:03:25.000Z</time>
      </trkpt>
      <trkpt lat="43.8863" lon="2.15667">
        <ele>261</ele>
        <time>2026-01-26T13:03:30.000Z</time>
      </trkpt>
      <trkpt lat="43.8863" lon="2.15667">
        <ele>262</ele>
        <time>2026-01-26T13:03:35.000Z</time>
      </trkpt>
      <trkpt lat="43.8863" lon="2.15667">
        <ele>262</ele>
        <time>2026-01-26T13:03:40.000Z</time>
      </trkpt>
      <trkpt lat="43.88631" lon="2.15667">
        <ele>262</ele>
        <time>2026-01-26T13:03:45.000Z</time>
      </trkpt>
      <trkpt lat="43.88631" lon="2.15675">
        <ele>262</ele>
        <time>2026-01-26T13:03:50.000Z</time>
      </trkpt>
      <trkpt lat="43.8863" lon="2.15677">
        <ele>262</ele>
        <time>2026-01-26T13:03:55.000Z</time>
      </trkpt>
      <trkpt lat="43.88627" lon="2.1568">
        <ele>261</ele>
        <time>2026-01-26T13:04:00.000Z</time>
      </trkpt>
      <trkpt lat="43.88627" lon="2.15685">
        <ele>260</ele>
        <time>2026-01-26T13:04:05.000Z</time>
      </trkpt>
      <trkpt lat="43.88628" lon="2.15688">
        <ele>261</ele>
        <time>2026-01-26T13:04:10.000Z</time>
      </trkpt>
      <trkpt lat="43.88629" lon="2.15695">
        <ele>262</ele>
        <time>2026-01-26T13:04:15.000Z</time>
      </trkpt>
      <trkpt lat="43.88627" lon="2.15701">
        <ele>261</ele>
        <time>2026-01-26T13:04:20.000Z</time>
      </trkpt>
      <trkpt lat="43.88628" lon="2.15708">
        <ele>261</ele>
        <time>2026-01-26T13:04:25.000Z</time>
      </trkpt>
      <trkpt lat="43.88627" lon="2.15712">
        <ele>260</ele>
        <time>2026-01-26T13:04:30.000Z</time>
      </trkpt>
      <trkpt lat="43.88627" lon="2.15718">
        <ele>258</ele>
        <time>2026-01-26T13:04:35.000Z</time>
      </trkpt>
      <trkpt lat="43.88628" lon="2.15723">
        <ele>260</ele>
        <time>2026-01-26T13:04:40.000Z</time>
      </trkpt>
      <trkpt lat="43.88627" lon="2.15727">
        <ele>259</ele>
        <time>2026-01-26T13:04:45.000Z</time>
      </trkpt>
      <trkpt lat="43.88626" lon="2.15733">
        <ele>261</ele>
        <time>2026-01-26T13:04:50.000Z</time>
      </trkpt>
      <trkpt lat="43.88626" lon="2.15739">
        <ele>262</ele>
        <time>2026-01-26T13:04:55.000Z</time>
      </trkpt>
      <trkpt lat="43.88626" lon="2.15744">
        <ele>262</ele>
        <time>2026-01-26T13:05:00.000Z</time>
      </trkpt>
      <trkpt lat="43.88625" lon="2.15749">
        <ele>262</ele>
        <time>2026-01-26T13:05:05.000Z</time>
      </trkpt>
      <trkpt lat="43.88625" lon="2.15756">
        <ele>261</ele>
        <time>2026-01-26T13:05:10.000Z</time>
      </trkpt>
      <trkpt lat="43.88624" lon="2.15762">
        <ele>261</ele>
        <time>2026-01-26T13:05:15.000Z</time>
      </trkpt>
      <trkpt lat="43.88624" lon="2.15767">
        <ele>261</ele>
        <time>2026-01-26T13:05:20.000Z</time>
      </trkpt>
      <trkpt lat="43.88624" lon="2.15772">
        <ele>262</ele>
        <time>2026-01-26T13:05:25.000Z</time>
      </trkpt>
      <trkpt lat="43.88624" lon="2.15778">
        <ele>260</ele>
        <time>2026-01-26T13:05:30.000Z</time>
      </trkpt>
      <trkpt lat="43.88625" lon="2.15783">
        <ele>261</ele>
        <time>2026-01-26T13:05:35.000Z</time>
      </trkpt>
      <trkpt lat="43.88624" lon="2.15789">
        <ele>261</ele>
        <time>2026-01-26T13:05:40.000Z</time>
      </trkpt>
      <trkpt lat="43.88624" lon="2.15795">
        <ele>261</ele>
        <time>2026-01-26T13:05:45.000Z</time>
      </trkpt>
      <trkpt lat="43.88623" lon="2.158">
        <ele>262</ele>
        <time>2026-01-26T13:05:50.000Z</time>
      </trkpt>
      <trkpt lat="43.88623" lon="2.15806">
        <ele>262</ele>
        <time>2026-01-26T13:05:55.000Z</time>
      </trkpt>
      <trkpt lat="43.88623" lon="2.15812">
        <ele>263</ele>
        <time>2026-01-26T13:06:00.000Z</time>
      </trkpt>
      <trkpt lat="43.88623" lon="2.1582">
        <ele>264</ele>
        <time>2026-01-26T13:06:05.000Z</time>
      </trkpt>
      <trkpt lat="43.88623" lon="2.15825">
        <ele>262</ele>
        <time>2026-01-26T13:06:10.000Z</time>
      </trkpt>
      <trkpt lat="43.88623" lon="2.1583">
        <ele>263</ele>
        <time>2026-01-26T13:06:15.000Z</time>
      </trkpt>
      <trkpt lat="43.88624" lon="2.15836">
        <ele>261</ele>
        <time>2026-01-26T13:06:20.000Z</time>
      </trkpt>
      <trkpt lat="43.88624" lon="2.15843">
        <ele>263</ele>
        <time>2026-01-26T13:06:25.000Z</time>
      </trkpt>
      <trkpt lat="43.88622" lon="2.15848">
        <ele>260</ele>
        <time>2026-01-26T13:06:30.000Z</time>
      </trkpt>
      <trkpt lat="43.88622" lon="2.15854">
        <ele>261</ele>
        <time>2026-01-26T13:06:35.000Z</time>
      </trkpt>
      <trkpt lat="43.88621" lon="2.15859">
        <ele>261</ele>
        <time>2026-01-26T13:06:40.000Z</time>
      </trkpt>
      <trkpt lat="43.88619" lon="2.15865">
        <ele>261</ele>
        <time>2026-01-26T13:06:45.000Z</time>
      </trkpt>
      <trkpt lat="43.88618" lon="2.15871">
        <ele>262</ele>
        <time>2026-01-26T13:06:50.000Z</time>
      </trkpt>
      <trkpt lat="43.88617" lon="2.15877">
        <ele>262</ele>
        <time>2026-01-26T13:06:55.000Z</time>
      </trkpt>
      <trkpt lat="43.88618" lon="2.15883">
        <ele>262</ele>
        <time>2026-01-26T13:07:00.000Z</time>
      </trkpt>
      <trkpt lat="43.88619" lon="2.15888">
        <ele>263</ele>
        <time>2026-01-26T13:07:05.000Z</time>
      </trkpt>
      <trkpt lat="43.88617" lon="2.15895">
        <ele>264</ele>
        <time>2026-01-26T13:07:10.000Z</time>
      </trkpt>
      <trkpt lat="43.88616" lon="2.15899">
        <ele>264</ele>
        <time>2026-01-26T13:07:15.000Z</time>
      </trkpt>
      <trkpt lat="43.88616" lon="2.15904">
        <ele>264</ele>
        <time>2026-01-26T13:07:20.000Z</time>
      </trkpt>
      <trkpt lat="43.88614" lon="2.15909">
        <ele>265</ele>
        <time>2026-01-26T13:07:25.000Z</time>
      </trkpt>
      <trkpt lat="43.88614" lon="2.15915">
        <ele>265</ele>
        <time>2026-01-26T13:07:30.000Z</time>
      </trkpt>
      <trkpt lat="43.88615" lon="2.15922">
        <ele>264</ele>
        <time>2026-01-26T13:07:35.000Z</time>
      </trkpt>
      <trkpt lat="43.88615" lon="2.15928">
        <ele>263</ele>
        <time>2026-01-26T13:07:40.000Z</time>
      </trkpt>
      <trkpt lat="43.88614" lon="2.15934">
        <ele>263</ele>
        <time>2026-01-26T13:07:45.000Z</time>
      </trkpt>
      <trkpt lat="43.88614" lon="2.15939">
        <ele>264</ele>
        <time>2026-01-26T13:07:50.000Z</time>
      </trkpt>
      <trkpt lat="43.88613" lon="2.15943">
        <ele>266</ele>
        <time>2026-01-26T13:07:55.000Z</time>
      </trkpt>
      <trkpt lat="43.88609" lon="2.15947">
        <ele>265</ele>
        <time>2026-01-26T13:08:00.000Z</time>
      </trkpt>
      <trkpt lat="43.88609" lon="2.15954">
        <ele>265</ele>
        <time>2026-01-26T13:08:05.000Z</time>
      </trkpt>
      <trkpt lat="43.88608" lon="2.1596">
        <ele>264</ele>
        <time>2026-01-26T13:08:10.000Z</time>
      </trkpt>
      <trkpt lat="43.88608" lon="2.15966">
        <ele>265</ele>
        <time>2026-01-26T13:08:15.000Z</time>
      </trkpt>
      <trkpt lat="43.88607" lon="2.15972">
        <ele>265</ele>
        <time>2026-01-26T13:08:20.000Z</time>
      </trkpt>
      <trkpt lat="43.88605" lon="2.15978">
        <ele>266</ele>
        <time>2026-01-26T13:08:25.000Z</time>
      </trkpt>
      <trkpt lat="43.88604" lon="2.15984">
        <ele>266</ele>
        <time>2026-01-26T13:08:30.000Z</time>
      </trkpt>
      <trkpt lat="43.88603" lon="2.15987">
        <ele>265</ele>
        <time>2026-01-26T13:08:35.000Z</time>
      </trkpt>
      <trkpt lat="43.88601" lon="2.15993">
        <ele>264</ele>
        <time>2026-01-26T13:08:40.000Z</time>
      </trkpt>
      <trkpt lat="43.886" lon="2.15999">
        <ele>265</ele>
        <time>2026-01-26T13:08:45.000Z</time>
      </trkpt>
      <trkpt lat="43.88599" lon="2.16004">
        <ele>265</ele>
        <time>2026-01-26T13:08:50.000Z</time>
      </trkpt>
      <trkpt lat="43.88597" lon="2.16009">
        <ele>265</ele>
        <time>2026-01-26T13:08:55.000Z</time>
      </trkpt>
      <trkpt lat="43.88595" lon="2.16013">
        <ele>264</ele>
        <time>2026-01-26T13:09:00.000Z</time>
      </trkpt>
      <trkpt lat="43.88593" lon="2.16018">
        <ele>267</ele>
        <time>2026-01-26T13:09:05.000Z</time>
      </trkpt>
      <trkpt lat="43.88591" lon="2.16025">
        <ele>268</ele>
        <time>2026-01-26T13:09:10.000Z</time>
      </trkpt>
      <trkpt lat="43.8859" lon="2.16029">
        <ele>267</ele>
        <time>2026-01-26T13:09:15.000Z</time>
      </trkpt>
      <trkpt lat="43.88589" lon="2.16034">
        <ele>265</ele>
        <time>2026-01-26T13:09:20.000Z</time>
      </trkpt>
      <trkpt lat="43.88586" lon="2.1604">
        <ele>265</ele>
        <time>2026-01-26T13:09:25.000Z</time>
      </trkpt>
      <trkpt lat="43.88585" lon="2.16044">
        <ele>264</ele>
        <time>2026-01-26T13:09:30.000Z</time>
      </trkpt>
      <trkpt lat="43.88584" lon="2.1605">
        <ele>267</ele>
        <time>2026-01-26T13:09:35.000Z</time>
      </trkpt>
      <trkpt lat="43.88582" lon="2.16054">
        <ele>268</ele>
        <time>2026-01-26T13:09:40.000Z</time>
      </trkpt>
      <trkpt lat="43.88581" lon="2.16058">
        <ele>267</ele>
        <time>2026-01-26T13:09:45.000Z</time>
      </trkpt>
      <trkpt lat="43.8858" lon="2.16065">
        <ele>267</ele>
        <time>2026-01-26T13:09:50.000Z</time>
      </trkpt>
      <trkpt lat="43.88577" lon="2.16069">
        <ele>266</ele>
        <time>2026-01-26T13:09:55.000Z</time>
      </trkpt>
      <trkpt lat="43.88575" lon="2.16074">
        <ele>267</ele>
        <time>2026-01-26T13:10:00.000Z</time>
      </trkpt>
      <trkpt lat="43.88573" lon="2.16081">
        <ele>267</ele>
        <time>2026-01-26T13:10:05.000Z</time>
      </trkpt>
      <trkpt lat="43.88572" lon="2.16085">
        <ele>267</ele>
        <time>2026-01-26T13:10:10.000Z</time>
      </trkpt>
      <trkpt lat="43.8857" lon="2.1609">
        <ele>266</ele>
        <time>2026-01-26T13:10:15.000Z</time>
      </trkpt>
      <trkpt lat="43.88567" lon="2.16094">
        <ele>265</ele>
        <time>2026-01-26T13:10:20.000Z</time>
      </trkpt>
      <trkpt lat="43.88564" lon="2.16099">
        <ele>266</ele>
        <time>2026-01-26T13:10:25.000Z</time>
      </trkpt>
      <trkpt lat="43.88562" lon="2.16104">
        <ele>267</ele>
        <time>2026-01-26T13:10:30.000Z</time>
      </trkpt>
      <trkpt lat="43.88559" lon="2.16109">
        <ele>267</ele>
        <time>2026-01-26T13:10:35.000Z</time>
      </trkpt>
      <trkpt lat="43.88557" lon="2.16115">
        <ele>265</ele>
        <time>2026-01-26T13:10:40.000Z</time>
      </trkpt>
      <trkpt lat="43.88556" lon="2.1612">
        <ele>265</ele>
        <time>2026-01-26T13:10:45.000Z</time>
      </trkpt>
      <trkpt lat="43.88554" lon="2.16124">
        <ele>266</ele>
        <time>2026-01-26T13:10:50.000Z</time>
      </trkpt>
      <trkpt lat="43.88552" lon="2.16129">
        <ele>266</ele>
        <time>2026-01-26T13:10:55.000Z</time>
      </trkpt>
      <trkpt lat="43.88548" lon="2.16133">
        <ele>268</ele>
        <time>2026-01-26T13:11:00.000Z</time>
      </trkpt>
      <trkpt lat="43.88545" lon="2.16138">
        <ele>266</ele>
        <time>2026-01-26T13:11:05.000Z</time>
      </trkpt>
      <trkpt lat="43.88543" lon="2.16142">
        <ele>267</ele>
        <time>2026-01-26T13:11:10.000Z</time>
      </trkpt>
      <trkpt lat="43.88541" lon="2.16147">
        <ele>267</ele>
        <time>2026-01-26T13:11:15.000Z</time>
      </trkpt>
      <trkpt lat="43.88539" lon="2.16148">
        <ele>267</ele>
        <time>2026-01-26T13:11:20.000Z</time>
      </trkpt>
      <trkpt lat="43.88537" lon="2.16153">
        <ele>269</ele>
        <time>2026-01-26T13:11:25.000Z</time>
      </trkpt>
      <trkpt lat="43.88535" lon="2.1616">
        <ele>268</ele>
        <time>2026-01-26T13:11:30.000Z</time>
      </trkpt>
      <trkpt lat="43.88532" lon="2.16164">
        <ele>266</ele>
        <time>2026-01-26T13:11:35.000Z</time>
      </trkpt>
      <trkpt lat="43.88529" lon="2.16169">
        <ele>267</ele>
        <time>2026-01-26T13:11:40.000Z</time>
      </trkpt>
      <trkpt lat="43.88527" lon="2.16173">
        <ele>267</ele>
        <time>2026-01-26T13:11:45.000Z</time>
      </trkpt>
      <trkpt lat="43.88524" lon="2.16177">
        <ele>266</ele>
        <time>2026-01-26T13:11:50.000Z</time>
      </trkpt>
      <trkpt lat="43.88521" lon="2.16181">
        <ele>266</ele>
        <time>2026-01-26T13:11:55.000Z</time>
      </trkpt>
      <trkpt lat="43.88519" lon="2.16185">
        <ele>266</ele>
        <time>2026-01-26T13:12:00.000Z</time>
      </trkpt>
      <trkpt lat="43.88517" lon="2.16191">
        <ele>265</ele>
        <time>2026-01-26T13:12:05.000Z</time>
      </trkpt>
      <trkpt lat="43.88514" lon="2.16196">
        <ele>267</ele>
        <time>2026-01-26T13:12:10.000Z</time>
      </trkpt>
      <trkpt lat="43.88511" lon="2.162">
        <ele>266</ele>
        <time>2026-01-26T13:12:15.000Z</time>
      </trkpt>
      <trkpt lat="43.88507" lon="2.16204">
        <ele>266</ele>
        <time>2026-01-26T13:12:20.000Z</time>
      </trkpt>
      <trkpt lat="43.88504" lon="2.16208">
        <ele>268</ele>
        <time>2026-01-26T13:12:25.000Z</time>
      </trkpt>
      <trkpt lat="43.88501" lon="2.16212">
        <ele>266</ele>
        <time>2026-01-26T13:12:30.000Z</time>
      </trkpt>
      <trkpt lat="43.88498" lon="2.16216">
        <ele>266</ele>
        <time>2026-01-26T13:12:35.000Z</time>
      </trkpt>
      <trkpt lat="43.88495" lon="2.16221">
        <ele>268</ele>
        <time>2026-01-26T13:12:40.000Z</time>
      </trkpt>
      <trkpt lat="43.88492" lon="2.16225">
        <ele>268</ele>
        <time>2026-01-26T13:12:45.000Z</time>
      </trkpt>
      <trkpt lat="43.88489" lon="2.16228">
        <ele>269</ele>
        <time>2026-01-26T13:12:50.000Z</time>
      </trkpt>
      <trkpt lat="43.88486" lon="2.16233">
        <ele>270</ele>
        <time>2026-01-26T13:12:55.000Z</time>
      </trkpt>
      <trkpt lat="43.88484" lon="2.16236">
        <ele>270</ele>
        <time>2026-01-26T13:13:00.000Z</time>
      </trkpt>
      <trkpt lat="43.8848" lon="2.16239">
        <ele>271</ele>
        <time>2026-01-26T13:13:05.000Z</time>
      </trkpt>
      <trkpt lat="43.88476" lon="2.16244">
        <ele>270</ele>
        <time>2026-01-26T13:13:10.000Z</time>
      </trkpt>
      <trkpt lat="43.88473" lon="2.16247">
        <ele>268</ele>
        <time>2026-01-26T13:13:15.000Z</time>
      </trkpt>
      <trkpt lat="43.8847" lon="2.16251">
        <ele>270</ele>
        <time>2026-01-26T13:13:20.000Z</time>
      </trkpt>
      <trkpt lat="43.88467" lon="2.16253">
        <ele>267</ele>
        <time>2026-01-26T13:13:25.000Z</time>
      </trkpt>
      <trkpt lat="43.88468" lon="2.16252">
        <ele>267</ele>
        <time>2026-01-26T13:13:30.000Z</time>
      </trkpt>
      <trkpt lat="43.88468" lon="2.16252">
        <ele>267</ele>
        <time>2026-01-26T13:13:35.000Z</time>
      </trkpt>
      <trkpt lat="43.88468" lon="2.16252">
        <ele>267</ele>
        <time>2026-01-26T13:13:40.000Z</time>
      </trkpt>
      <trkpt lat="43.88468" lon="2.16252">
        <ele>267</ele>
        <time>2026-01-26T13:13:45.000Z</time>
      </trkpt>
      <trkpt lat="43.88468" lon="2.16252">
        <ele>267</ele>
        <time>2026-01-26T13:13:50.000Z</time>
      </trkpt>
      <trkpt lat="43.88468" lon="2.16252">
        <ele>267</ele>
        <time>2026-01-26T13:13:55.000Z</time>
      </trkpt>
      <trkpt lat="43.88468" lon="2.16252">
        <ele>267</ele>
        <time>2026-01-26T13:14:00.000Z</time>
      </trkpt>
      <trkpt lat="43.88468" lon="2.16252">
        <ele>267</ele>
        <time>2026-01-26T13:14:05.000Z</time>
      </trkpt>
      <trkpt lat="43.88467" lon="2.16253">
        <ele>266</ele>
        <time>2026-01-26T13:14:10.000Z</time>
      </trkpt>
      <trkpt lat="43.88465" lon="2.16254">
        <ele>266</ele>
        <time>2026-01-26T13:14:15.000Z</time>
      </trkpt>
      <trkpt lat="43.88463" lon="2.16255">
        <ele>267</ele>
        <time>2026-01-26T13:14:20.000Z</time>
      </trkpt>
      <trkpt lat="43.88463" lon="2.16255">
        <ele>267</ele>
        <time>2026-01-26T13:14:25.000Z</time>
      </trkpt>
      <trkpt lat="43.88464" lon="2.16255">
        <ele>267</ele>
        <time>2026-01-26T13:14:30.000Z</time>
      </trkpt>
      <trkpt lat="43.88463" lon="2.16256">
        <ele>266</ele>
        <time>2026-01-26T13:14:35.000Z</time>
      </trkpt>
      <trkpt lat="43.8846" lon="2.16256">
        <ele>267</ele>
        <time>2026-01-26T13:14:40.000Z</time>
      </trkpt>
      <trkpt lat="43.88457" lon="2.16259">
        <ele>266</ele>
        <time>2026-01-26T13:14:45.000Z</time>
      </trkpt>
      <trkpt lat="43.88456" lon="2.16264">
        <ele>265</ele>
        <time>2026-01-26T13:14:50.000Z</time>
      </trkpt>
      <trkpt lat="43.88452" lon="2.16269">
        <ele>265</ele>
        <time>2026-01-26T13:14:55.000Z</time>
      </trkpt>
      <trkpt lat="43.8845" lon="2.16272">
        <ele>266</ele>
        <time>2026-01-26T13:15:00.000Z</time>
      </trkpt>
      <trkpt lat="43.88447" lon="2.16276">
        <ele>267</ele>
        <time>2026-01-26T13:15:05.000Z</time>
      </trkpt>
      <trkpt lat="43.88443" lon="2.16278">
        <ele>267</ele>
        <time>2026-01-26T13:15:10.000Z</time>
      </trkpt>
      <trkpt lat="43.88438" lon="2.1628">
        <ele>266</ele>
        <time>2026-01-26T13:15:15.000Z</time>
      </trkpt>
      <trkpt lat="43.88435" lon="2.16285">
        <ele>267</ele>
        <time>2026-01-26T13:15:20.000Z</time>
      </trkpt>
      <trkpt lat="43.88431" lon="2.16287">
        <ele>269</ele>
        <time>2026-01-26T13:15:25.000Z</time>
      </trkpt>
      <trkpt lat="43.88428" lon="2.1629">
        <ele>270</ele>
        <time>2026-01-26T13:15:30.000Z</time>
      </trkpt>
      <trkpt lat="43.88425" lon="2.16291">
        <ele>268</ele>
        <time>2026-01-26T13:15:35.000Z</time>
      </trkpt>
      <trkpt lat="43.88422" lon="2.16294">
        <ele>267</ele>
        <time>2026-01-26T13:15:40.000Z</time>
      </trkpt>
      <trkpt lat="43.88418" lon="2.16298">
        <ele>268</ele>
        <time>2026-01-26T13:15:45.000Z</time>
      </trkpt>
      <trkpt lat="43.88415" lon="2.16303">
        <ele>270</ele>
        <time>2026-01-26T13:15:50.000Z</time>
      </trkpt>
      <trkpt lat="43.8841" lon="2.16305">
        <ele>271</ele>
        <time>2026-01-26T13:15:55.000Z</time>
      </trkpt>
      <trkpt lat="43.88406" lon="2.16307">
        <ele>272</ele>
        <time>2026-01-26T13:16:00.000Z</time>
      </trkpt>
      <trkpt lat="43.88403" lon="2.16307">
        <ele>268</ele>
        <time>2026-01-26T13:16:05.000Z</time>
      </trkpt>
      <trkpt lat="43.88402" lon="2.16306">
        <ele>268</ele>
        <time>2026-01-26T13:16:10.000Z</time>
      </trkpt>
      <trkpt lat="43.88403" lon="2.16305">
        <ele>268</ele>
        <time>2026-01-26T13:16:15.000Z</time>
      </trkpt>
      <trkpt lat="43.88401" lon="2.16307">
        <ele>269</ele>
        <time>2026-01-26T13:16:20.000Z</time>
      </trkpt>
      <trkpt lat="43.88399" lon="2.1631">
        <ele>267</ele>
        <time>2026-01-26T13:16:25.000Z</time>
      </trkpt>
      <trkpt lat="43.88395" lon="2.16312">
        <ele>266</ele>
        <time>2026-01-26T13:16:30.000Z</time>
      </trkpt>
      <trkpt lat="43.88392" lon="2.16312">
        <ele>265</ele>
        <time>2026-01-26T13:16:35.000Z</time>
      </trkpt>
      <trkpt lat="43.88388" lon="2.16317">
        <ele>265</ele>
        <time>2026-01-26T13:16:40.000Z</time>
      </trkpt>
      <trkpt lat="43.88385" lon="2.1632">
        <ele>266</ele>
        <time>2026-01-26T13:16:45.000Z</time>
      </trkpt>
      <trkpt lat="43.88382" lon="2.16321">
        <ele>266</ele>
        <time>2026-01-26T13:16:50.000Z</time>
      </trkpt>
      <trkpt lat="43.88379" lon="2.16324">
        <ele>266</ele>
        <time>2026-01-26T13:16:55.000Z</time>
      </trkpt>
      <trkpt lat="43.88375" lon="2.16327">
        <ele>267</ele>
        <time>2026-01-26T13:17:00.000Z</time>
      </trkpt>
      <trkpt lat="43.88373" lon="2.16329">
        <ele>268</ele>
        <time>2026-01-26T13:17:05.000Z</time>
      </trkpt>
      <trkpt lat="43.8837" lon="2.16329">
        <ele>269</ele>
        <time>2026-01-26T13:17:10.000Z</time>
      </trkpt>
      <trkpt lat="43.88367" lon="2.16331">
        <ele>269</ele>
        <time>2026-01-26T13:17:15.000Z</time>
      </trkpt>
      <trkpt lat="43.88364" lon="2.16334">
        <ele>269</ele>
        <time>2026-01-26T13:17:20.000Z</time>
      </trkpt>
      <trkpt lat="43.88363" lon="2.16336">
        <ele>269</ele>
        <time>2026-01-26T13:17:25.000Z</time>
      </trkpt>
      <trkpt lat="43.8836" lon="2.16337">
        <ele>269</ele>
        <time>2026-01-26T13:17:30.000Z</time>
      </trkpt>
      <trkpt lat="43.88357" lon="2.16339">
        <ele>270</ele>
        <time>2026-01-26T13:17:35.000Z</time>
      </trkpt>
      <trkpt lat="43.88353" lon="2.16339">
        <ele>270</ele>
        <time>2026-01-26T13:17:40.000Z</time>
      </trkpt>
      <trkpt lat="43.8835" lon="2.16341">
        <ele>269</ele>
        <time>2026-01-26T13:17:45.000Z</time>
      </trkpt>
      <trkpt lat="43.88347" lon="2.16343">
        <ele>269</ele>
        <time>2026-01-26T13:17:50.000Z</time>
      </trkpt>
      <trkpt lat="43.88344" lon="2.16345">
        <ele>269</ele>
        <time>2026-01-26T13:17:55.000Z</time>
      </trkpt>
      <trkpt lat="43.8834" lon="2.16347">
        <ele>271</ele>
        <time>2026-01-26T13:18:00.000Z</time>
      </trkpt>
      <trkpt lat="43.88337" lon="2.16347">
        <ele>269</ele>
        <time>2026-01-26T13:18:05.000Z</time>
      </trkpt>
      <trkpt lat="43.88335" lon="2.1635">
        <ele>269</ele>
        <time>2026-01-26T13:18:10.000Z</time>
      </trkpt>
      <trkpt lat="43.88332" lon="2.1635">
        <ele>269</ele>
        <time>2026-01-26T13:18:15.000Z</time>
      </trkpt>
      <trkpt lat="43.88329" lon="2.16352">
        <ele>270</ele>
        <time>2026-01-26T13:18:20.000Z</time>
      </trkpt>
      <trkpt lat="43.88327" lon="2.16355">
        <ele>271</ele>
        <time>2026-01-26T13:18:25.000Z</time>
      </trkpt>
      <trkpt lat="43.88324" lon="2.16357">
        <ele>271</ele>
        <time>2026-01-26T13:18:30.000Z</time>
      </trkpt>
      <trkpt lat="43.8832" lon="2.16358">
        <ele>273</ele>
        <time>2026-01-26T13:18:35.000Z</time>
      </trkpt>
      <trkpt lat="43.88314" lon="2.1636">
        <ele>272</ele>
        <time>2026-01-26T13:18:40.000Z</time>
      </trkpt>
      <trkpt lat="43.88309" lon="2.16364">
        <ele>272</ele>
        <time>2026-01-26T13:18:45.000Z</time>
      </trkpt>
      <trkpt lat="43.88304" lon="2.16364">
        <ele>271</ele>
        <time>2026-01-26T13:18:50.000Z</time>
      </trkpt>
      <trkpt lat="43.88301" lon="2.16364">
        <ele>270</ele>
        <time>2026-01-26T13:18:55.000Z</time>
      </trkpt>
      <trkpt lat="43.88299" lon="2.1636">
        <ele>269</ele>
        <time>2026-01-26T13:19:00.000Z</time>
      </trkpt>
      <trkpt lat="43.88294" lon="2.16365">
        <ele>272</ele>
        <time>2026-01-26T13:19:05.000Z</time>
      </trkpt>
      <trkpt lat="43.8829" lon="2.16368">
        <ele>271</ele>
        <time>2026-01-26T13:19:10.000Z</time>
      </trkpt>
      <trkpt lat="43.88287" lon="2.16372">
        <ele>272</ele>
        <time>2026-01-26T13:19:15.000Z</time>
      </trkpt>
      <trkpt lat="43.8828" lon="2.16371">
        <ele>271</ele>
        <time>2026-01-26T13:19:20.000Z</time>
      </trkpt>
      <trkpt lat="43.88279" lon="2.16371">
        <ele>271</ele>
        <time>2026-01-26T13:19:25.000Z</time>
      </trkpt>
      <trkpt lat="43.88279" lon="2.16371">
        <ele>271</ele>
        <time>2026-01-26T13:19:30.000Z</time>
      </trkpt>
      <trkpt lat="43.88278" lon="2.16369">
        <ele>270</ele>
        <time>2026-01-26T13:19:35.000Z</time>
      </trkpt>
      <trkpt lat="43.88278" lon="2.16368">
        <ele>271</ele>
        <time>2026-01-26T13:19:40.000Z</time>
      </trkpt>
      <trkpt lat="43.88275" lon="2.16367">
        <ele>272</ele>
        <time>2026-01-26T13:19:45.000Z</time>
      </trkpt>
      <trkpt lat="43.88271" lon="2.16369">
        <ele>272</ele>
        <time>2026-01-26T13:19:50.000Z</time>
      </trkpt>
      <trkpt lat="43.88266" lon="2.1637">
        <ele>272</ele>
        <time>2026-01-26T13:19:55.000Z</time>
      </trkpt>
      <trkpt lat="43.88261" lon="2.16371">
        <ele>273</ele>
        <time>2026-01-26T13:20:00.000Z</time>
      </trkpt>
      <trkpt lat="43.88257" lon="2.16369">
        <ele>273</ele>
        <time>2026-01-26T13:20:05.000Z</time>
      </trkpt>
      <trkpt lat="43.88254" lon="2.16371">
        <ele>274</ele>
        <time>2026-01-26T13:20:10.000Z</time>
      </trkpt>
      <trkpt lat="43.88252" lon="2.16371">
        <ele>273</ele>
        <time>2026-01-26T13:20:15.000Z</time>
      </trkpt>
      <trkpt lat="43.88249" lon="2.16369">
        <ele>273</ele>
        <time>2026-01-26T13:20:20.000Z</time>
      </trkpt>
      <trkpt lat="43.88242" lon="2.16371">
        <ele>272</ele>
        <time>2026-01-26T13:20:25.000Z</time>
      </trkpt>
      <trkpt lat="43.8824" lon="2.16375">
        <ele>273</ele>
        <time>2026-01-26T13:20:30.000Z</time>
      </trkpt>
      <trkpt lat="43.88234" lon="2.16377">
        <ele>272</ele>
        <time>2026-01-26T13:20:35.000Z</time>
      </trkpt>
      <trkpt lat="43.8823" lon="2.16376">
        <ele>273</ele>
        <time>2026-01-26T13:20:40.000Z</time>
      </trkpt>
      <trkpt lat="43.88225" lon="2.16376">
        <ele>272</ele>
        <time>2026-01-26T13:20:45.000Z</time>
      </trkpt>
      <trkpt lat="43.88222" lon="2.16373">
        <ele>271</ele>
        <time>2026-01-26T13:20:50.000Z</time>
      </trkpt>
      <trkpt lat="43.88218" lon="2.16376">
        <ele>271</ele>
        <time>2026-01-26T13:20:55.000Z</time>
      </trkpt>
      <trkpt lat="43.88215" lon="2.16376">
        <ele>270</ele>
        <time>2026-01-26T13:21:00.000Z</time>
      </trkpt>
      <trkpt lat="43.88211" lon="2.16377">
        <ele>271</ele>
        <time>2026-01-26T13:21:05.000Z</time>
      </trkpt>
      <trkpt lat="43.88206" lon="2.16377">
        <ele>271</ele>
        <time>2026-01-26T13:21:10.000Z</time>
      </trkpt>
      <trkpt lat="43.882" lon="2.16378">
        <ele>274</ele>
        <time>2026-01-26T13:21:15.000Z</time>
      </trkpt>
      <trkpt lat="43.88197" lon="2.16379">
        <ele>273</ele>
        <time>2026-01-26T13:21:20.000Z</time>
      </trkpt>
      <trkpt lat="43.88192" lon="2.16379">
        <ele>273</ele>
        <time>2026-01-26T13:21:25.000Z</time>
      </trkpt>
      <trkpt lat="43.88186" lon="2.16379">
        <ele>274</ele>
        <time>2026-01-26T13:21:30.000Z</time>
      </trkpt>
      <trkpt lat="43.88179" lon="2.16379">
        <ele>275</ele>
        <time>2026-01-26T13:21:35.000Z</time>
      </trkpt>
      <trkpt lat="43.88172" lon="2.16375">
        <ele>274</ele>
        <time>2026-01-26T13:21:40.000Z</time>
      </trkpt>
      <trkpt lat="43.88168" lon="2.16375">
        <ele>274</ele>
        <time>2026-01-26T13:21:45.000Z</time>
      </trkpt>
      <trkpt lat="43.88161" lon="2.16377">
        <ele>276</ele>
        <time>2026-01-26T13:21:50.000Z</time>
      </trkpt>
      <trkpt lat="43.88153" lon="2.16378">
        <ele>277</ele>
        <time>2026-01-26T13:21:55.000Z</time>
      </trkpt>
      <trkpt lat="43.88145" lon="2.16378">
        <ele>277</ele>
        <time>2026-01-26T13:22:00.000Z</time>
      </trkpt>
      <trkpt lat="43.88139" lon="2.16376">
        <ele>278</ele>
        <time>2026-01-26T13:22:05.000Z</time>
      </trkpt>
      <trkpt lat="43.88132" lon="2.16376">
        <ele>278</ele>
        <time>2026-01-26T13:22:10.000Z</time>
      </trkpt>
      <trkpt lat="43.88126" lon="2.16376">
        <ele>278</ele>
        <time>2026-01-26T13:22:15.000Z</time>
      </trkpt>
      <trkpt lat="43.88121" lon="2.16375">
        <ele>276</ele>
        <time>2026-01-26T13:22:20.000Z</time>
      </trkpt>
      <trkpt lat="43.88117" lon="2.16377">
        <ele>275</ele>
        <time>2026-01-26T13:22:25.000Z</time>
      </trkpt>
      <trkpt lat="43.88113" lon="2.16376">
        <ele>274</ele>
        <time>2026-01-26T13:22:30.000Z</time>
      </trkpt>
      <trkpt lat="43.88109" lon="2.16377">
        <ele>274</ele>
        <time>2026-01-26T13:22:35.000Z</time>
      </trkpt>
      <trkpt lat="43.88104" lon="2.16376">
        <ele>273</ele>
        <time>2026-01-26T13:22:40.000Z</time>
      </trkpt>
      <trkpt lat="43.88098" lon="2.16378">
        <ele>274</ele>
        <time>2026-01-26T13:22:45.000Z</time>
      </trkpt>
      <trkpt lat="43.88093" lon="2.16377">
        <ele>272</ele>
        <time>2026-01-26T13:22:50.000Z</time>
      </trkpt>
      <trkpt lat="43.8809" lon="2.16377">
        <ele>273</ele>
        <time>2026-01-26T13:22:55.000Z</time>
      </trkpt>
      <trkpt lat="43.88085" lon="2.16376">
        <ele>274</ele>
        <time>2026-01-26T13:23:00.000Z</time>
      </trkpt>
      <trkpt lat="43.88082" lon="2.16374">
        <ele>275</ele>
        <time>2026-01-26T13:23:05.000Z</time>
      </trkpt>
      <trkpt lat="43.88077" lon="2.16376">
        <ele>274</ele>
        <time>2026-01-26T13:23:10.000Z</time>
      </trkpt>
      <trkpt lat="43.88072" lon="2.16376">
        <ele>274</ele>
        <time>2026-01-26T13:23:15.000Z</time>
      </trkpt>
      <trkpt lat="43.88069" lon="2.16377">
        <ele>274</ele>
        <time>2026-01-26T13:23:20.000Z</time>
      </trkpt>
      <trkpt lat="43.88065" lon="2.1638">
        <ele>275</ele>
        <time>2026-01-26T13:23:25.000Z</time>
      </trkpt>
      <trkpt lat="43.88062" lon="2.16381">
        <ele>276</ele>
        <time>2026-01-26T13:23:30.000Z</time>
      </trkpt>
      <trkpt lat="43.88058" lon="2.16381">
        <ele>278</ele>
        <time>2026-01-26T13:23:35.000Z</time>
      </trkpt>
      <trkpt lat="43.88054" lon="2.16382">
        <ele>277</ele>
        <time>2026-01-26T13:23:40.000Z</time>
      </trkpt>
      <trkpt lat="43.8805" lon="2.16383">
        <ele>278</ele>
        <time>2026-01-26T13:23:45.000Z</time>
      </trkpt>
      <trkpt lat="43.88046" lon="2.16385">
        <ele>277</ele>
        <time>2026-01-26T13:23:50.000Z</time>
      </trkpt>
      <trkpt lat="43.88042" lon="2.16387">
        <ele>277</ele>
        <time>2026-01-26T13:23:55.000Z</time>
      </trkpt>
      <trkpt lat="43.88037" lon="2.16388">
        <ele>274</ele>
        <time>2026-01-26T13:24:00.000Z</time>
      </trkpt>
      <trkpt lat="43.88032" lon="2.16389">
        <ele>274</ele>
        <time>2026-01-26T13:24:05.000Z</time>
      </trkpt>
      <trkpt lat="43.88028" lon="2.16392">
        <ele>275</ele>
        <time>2026-01-26T13:24:10.000Z</time>
      </trkpt>
      <trkpt lat="43.88024" lon="2.16394">
        <ele>274</ele>
        <time>2026-01-26T13:24:15.000Z</time>
      </trkpt>
      <trkpt lat="43.8802" lon="2.16395">
        <ele>275</ele>
        <time>2026-01-26T13:24:20.000Z</time>
      </trkpt>
      <trkpt lat="43.88017" lon="2.16399">
        <ele>274</ele>
        <time>2026-01-26T13:24:25.000Z</time>
      </trkpt>
      <trkpt lat="43.88013" lon="2.16401">
        <ele>273</ele>
        <time>2026-01-26T13:24:30.000Z</time>
      </trkpt>
      <trkpt lat="43.88009" lon="2.16405">
        <ele>273</ele>
        <time>2026-01-26T13:24:35.000Z</time>
      </trkpt>
      <trkpt lat="43.88006" lon="2.16408">
        <ele>273</ele>
        <time>2026-01-26T13:24:40.000Z</time>
      </trkpt>
      <trkpt lat="43.88003" lon="2.1641">
        <ele>274</ele>
        <time>2026-01-26T13:24:45.000Z</time>
      </trkpt>
      <trkpt lat="43.87998" lon="2.16411">
        <ele>273</ele>
        <time>2026-01-26T13:24:50.000Z</time>
      </trkpt>
      <trkpt lat="43.87994" lon="2.16415">
        <ele>274</ele>
        <time>2026-01-26T13:24:55.000Z</time>
      </trkpt>
      <trkpt lat="43.87991" lon="2.16418">
        <ele>273</ele>
        <time>2026-01-26T13:25:00.000Z</time>
      </trkpt>
      <trkpt lat="43.87988" lon="2.1642">
        <ele>272</ele>
        <time>2026-01-26T13:25:05.000Z</time>
      </trkpt>
      <trkpt lat="43.87985" lon="2.16422">
        <ele>272</ele>
        <time>2026-01-26T13:25:10.000Z</time>
      </trkpt>
      <trkpt lat="43.87982" lon="2.16424">
        <ele>272</ele>
        <time>2026-01-26T13:25:15.000Z</time>
      </trkpt>
      <trkpt lat="43.87978" lon="2.16425">
        <ele>272</ele>
        <time>2026-01-26T13:25:20.000Z</time>
      </trkpt>
      <trkpt lat="43.87975" lon="2.16427">
        <ele>273</ele>
        <time>2026-01-26T13:25:25.000Z</time>
      </trkpt>
      <trkpt lat="43.87971" lon="2.16432">
        <ele>272</ele>
        <time>2026-01-26T13:25:30.000Z</time>
      </trkpt>
      <trkpt lat="43.87969" lon="2.16436">
        <ele>271</ele>
        <time>2026-01-26T13:25:35.000Z</time>
      </trkpt>
      <trkpt lat="43.87967" lon="2.16437">
        <ele>269</ele>
        <time>2026-01-26T13:25:40.000Z</time>
      </trkpt>
      <trkpt lat="43.87962" lon="2.16441">
        <ele>272</ele>
        <time>2026-01-26T13:25:45.000Z</time>
      </trkpt>
      <trkpt lat="43.87959" lon="2.16443">
        <ele>272</ele>
        <time>2026-01-26T13:25:50.000Z</time>
      </trkpt>
      <trkpt lat="43.87954" lon="2.16445">
        <ele>273</ele>
        <time>2026-01-26T13:25:55.000Z</time>
      </trkpt>
      <trkpt lat="43.87951" lon="2.16448">
        <ele>275</ele>
        <time>2026-01-26T13:26:00.000Z</time>
      </trkpt>
      <trkpt lat="43.87948" lon="2.16449">
        <ele>275</ele>
        <time>2026-01-26T13:26:05.000Z</time>
      </trkpt>
      <trkpt lat="43.87945" lon="2.16453">
        <ele>276</ele>
        <time>2026-01-26T13:26:10.000Z</time>
      </trkpt>
      <trkpt lat="43.87942" lon="2.16455">
        <ele>276</ele>
        <time>2026-01-26T13:26:15.000Z</time>
      </trkpt>
      <trkpt lat="43.87939" lon="2.16457">
        <ele>275</ele>
        <time>2026-01-26T13:26:20.000Z</time>
      </trkpt>
      <trkpt lat="43.87934" lon="2.1646">
        <ele>275</ele>
        <time>2026-01-26T13:26:25.000Z</time>
      </trkpt>
      <trkpt lat="43.87932" lon="2.16463">
        <ele>275</ele>
        <time>2026-01-26T13:26:30.000Z</time>
      </trkpt>
      <trkpt lat="43.87929" lon="2.16466">
        <ele>275</ele>
        <time>2026-01-26T13:26:35.000Z</time>
      </trkpt>
      <trkpt lat="43.87926" lon="2.16471">
        <ele>274</ele>
        <time>2026-01-26T13:26:40.000Z</time>
      </trkpt>
      <trkpt lat="43.87923" lon="2.16473">
        <ele>274</ele>
        <time>2026-01-26T13:26:45.000Z</time>
      </trkpt>
      <trkpt lat="43.87922" lon="2.16476">
        <ele>274</ele>
        <time>2026-01-26T13:26:50.000Z</time>
      </trkpt>
      <trkpt lat="43.87919" lon="2.16479">
        <ele>273</ele>
        <time>2026-01-26T13:26:55.000Z</time>
      </trkpt>
      <trkpt lat="43.87918" lon="2.16482">
        <ele>273</ele>
        <time>2026-01-26T13:27:00.000Z</time>
      </trkpt>
      <trkpt lat="43.87916" lon="2.16487">
        <ele>274</ele>
        <time>2026-01-26T13:27:05.000Z</time>
      </trkpt>
      <trkpt lat="43.87912" lon="2.16491">
        <ele>274</ele>
        <time>2026-01-26T13:27:10.000Z</time>
      </trkpt>
      <trkpt lat="43.8791" lon="2.16495">
        <ele>273</ele>
        <time>2026-01-26T13:27:15.000Z</time>
      </trkpt>
      <trkpt lat="43.87908" lon="2.16499">
        <ele>272</ele>
        <time>2026-01-26T13:27:20.000Z</time>
      </trkpt>
      <trkpt lat="43.87905" lon="2.16502">
        <ele>273</ele>
        <time>2026-01-26T13:27:25.000Z</time>
      </trkpt>
      <trkpt lat="43.87902" lon="2.16506">
        <ele>273</ele>
        <time>2026-01-26T13:27:30.000Z</time>
      </trkpt>
      <trkpt lat="43.879" lon="2.16511">
        <ele>274</ele>
        <time>2026-01-26T13:27:35.000Z</time>
      </trkpt>
      <trkpt lat="43.87898" lon="2.16515">
        <ele>274</ele>
        <time>2026-01-26T13:27:40.000Z</time>
      </trkpt>
      <trkpt lat="43.87896" lon="2.16519">
        <ele>274</ele>
        <time>2026-01-26T13:27:45.000Z</time>
      </trkpt>
      <trkpt lat="43.87892" lon="2.16525">
        <ele>273</ele>
        <time>2026-01-26T13:27:50.000Z</time>
      </trkpt>
      <trkpt lat="43.87889" lon="2.1653">
        <ele>273</ele>
        <time>2026-01-26T13:27:55.000Z</time>
      </trkpt>
      <trkpt lat="43.87888" lon="2.16536">
        <ele>274</ele>
        <time>2026-01-26T13:28:00.000Z</time>
      </trkpt>
      <trkpt lat="43.87886" lon="2.1654">
        <ele>275</ele>
        <time>2026-01-26T13:28:05.000Z</time>
      </trkpt>
      <trkpt lat="43.87884" lon="2.16543">
        <ele>275</ele>
        <time>2026-01-26T13:28:10.000Z</time>
      </trkpt>
      <trkpt lat="43.87882" lon="2.16548">
        <ele>277</ele>
        <time>2026-01-26T13:28:15.000Z</time>
      </trkpt>
      <trkpt lat="43.8788" lon="2.16552">
        <ele>277</ele>
        <time>2026-01-26T13:28:20.000Z</time>
      </trkpt>
      <trkpt lat="43.87879" lon="2.16557">
        <ele>277</ele>
        <time>2026-01-26T13:28:25.000Z</time>
      </trkpt>
      <trkpt lat="43.87876" lon="2.16562">
        <ele>279</ele>
        <time>2026-01-26T13:28:30.000Z</time>
      </trkpt>
      <trkpt lat="43.87875" lon="2.16566">
        <ele>278</ele>
        <time>2026-01-26T13:28:35.000Z</time>
      </trkpt>
      <trkpt lat="43.87874" lon="2.1657">
        <ele>280</ele>
        <time>2026-01-26T13:28:40.000Z</time>
      </trkpt>
      <trkpt lat="43.87872" lon="2.16574">
        <ele>278</ele>
        <time>2026-01-26T13:28:45.000Z</time>
      </trkpt>
      <trkpt lat="43.8787" lon="2.16579">
        <ele>279</ele>
        <time>2026-01-26T13:28:50.000Z</time>
      </trkpt>
      <trkpt lat="43.87867" lon="2.16583">
        <ele>280</ele>
        <time>2026-01-26T13:28:55.000Z</time>
      </trkpt>
      <trkpt lat="43.87864" lon="2.16588">
        <ele>279</ele>
        <time>2026-01-26T13:29:00.000Z</time>
      </trkpt>
      <trkpt lat="43.87862" lon="2.16592">
        <ele>279</ele>
        <time>2026-01-26T13:29:05.000Z</time>
      </trkpt>
      <trkpt lat="43.87859" lon="2.16597">
        <ele>278</ele>
        <time>2026-01-26T13:29:10.000Z</time>
      </trkpt>
      <trkpt lat="43.87857" lon="2.16602">
        <ele>277</ele>
        <time>2026-01-26T13:29:15.000Z</time>
      </trkpt>
      <trkpt lat="43.87854" lon="2.16606">
        <ele>277</ele>
        <time>2026-01-26T13:29:20.000Z</time>
      </trkpt>
      <trkpt lat="43.87853" lon="2.16612">
        <ele>278</ele>
        <time>2026-01-26T13:29:25.000Z</time>
      </trkpt>
      <trkpt lat="43.87851" lon="2.16616">
        <ele>279</ele>
        <time>2026-01-26T13:29:30.000Z</time>
      </trkpt>
      <trkpt lat="43.8785" lon="2.16621">
        <ele>281</ele>
        <time>2026-01-26T13:29:35.000Z</time>
      </trkpt>
      <trkpt lat="43.87848" lon="2.16626">
        <ele>281</ele>
        <time>2026-01-26T13:29:40.000Z</time>
      </trkpt>
      <trkpt lat="43.87844" lon="2.1663">
        <ele>279</ele>
        <time>2026-01-26T13:29:45.000Z</time>
      </trkpt>
      <trkpt lat="43.87843" lon="2.16634">
        <ele>279</ele>
        <time>2026-01-26T13:29:50.000Z</time>
      </trkpt>
      <trkpt lat="43.87842" lon="2.16638">
        <ele>279</ele>
        <time>2026-01-26T13:29:55.000Z</time>
      </trkpt>
      <trkpt lat="43.87839" lon="2.16641">
        <ele>279</ele>
        <time>2026-01-26T13:30:00.000Z</time>
      </trkpt>
      <trkpt lat="43.87836" lon="2.16646">
        <ele>281</ele>
        <time>2026-01-26T13:30:05.000Z</time>
      </trkpt>
      <trkpt lat="43.87835" lon="2.16651">
        <ele>280</ele>
        <time>2026-01-26T13:30:10.000Z</time>
      </trkpt>
      <trkpt lat="43.87833" lon="2.16657">
        <ele>281</ele>
        <time>2026-01-26T13:30:15.000Z</time>
      </trkpt>
      <trkpt lat="43.8783" lon="2.16662">
        <ele>282</ele>
        <time>2026-01-26T13:30:20.000Z</time>
      </trkpt>
      <trkpt lat="43.87828" lon="2.16666">
        <ele>282</ele>
        <time>2026-01-26T13:30:25.000Z</time>
      </trkpt>
      <trkpt lat="43.87825" lon="2.16669">
        <ele>280</ele>
        <time>2026-01-26T13:30:30.000Z</time>
      </trkpt>
      <trkpt lat="43.87824" lon="2.16673">
        <ele>280</ele>
        <time>2026-01-26T13:30:35.000Z</time>
      </trkpt>
      <trkpt lat="43.87823" lon="2.1668">
        <ele>281</ele>
        <time>2026-01-26T13:30:40.000Z</time>
      </trkpt>
      <trkpt lat="43.8782" lon="2.16685">
        <ele>282</ele>
        <time>2026-01-26T13:30:45.000Z</time>
      </trkpt>
      <trkpt lat="43.87819" lon="2.16688">
        <ele>281</ele>
        <time>2026-01-26T13:30:50.000Z</time>
      </trkpt>
      <trkpt lat="43.87817" lon="2.16693">
        <ele>283</ele>
        <time>2026-01-26T13:30:55.000Z</time>
      </trkpt>
      <trkpt lat="43.87814" lon="2.16697">
        <ele>281</ele>
        <time>2026-01-26T13:31:00.000Z</time>
      </trkpt>
      <trkpt lat="43.87812" lon="2.16702">
        <ele>280</ele>
        <time>2026-01-26T13:31:05.000Z</time>
      </trkpt>
      <trkpt lat="43.8781" lon="2.16706">
        <ele>282</ele>
        <time>2026-01-26T13:31:10.000Z</time>
      </trkpt>
      <trkpt lat="43.87808" lon="2.16711">
        <ele>281</ele>
        <time>2026-01-26T13:31:15.000Z</time>
      </trkpt>
      <trkpt lat="43.87806" lon="2.16716">
        <ele>281</ele>
        <time>2026-01-26T13:31:20.000Z</time>
      </trkpt>
      <trkpt lat="43.87804" lon="2.16721">
        <ele>281</ele>
        <time>2026-01-26T13:31:25.000Z</time>
      </trkpt>
      <trkpt lat="43.87802" lon="2.16727">
        <ele>281</ele>
        <time>2026-01-26T13:31:30.000Z</time>
      </trkpt>
      <trkpt lat="43.878" lon="2.16732">
        <ele>281</ele>
        <time>2026-01-26T13:31:35.000Z</time>
      </trkpt>
      <trkpt lat="43.87799" lon="2.16736">
        <ele>281</ele>
        <time>2026-01-26T13:31:40.000Z</time>
      </trkpt>
      <trkpt lat="43.87797" lon="2.1674">
        <ele>280</ele>
        <time>2026-01-26T13:31:45.000Z</time>
      </trkpt>
      <trkpt lat="43.87796" lon="2.16746">
        <ele>281</ele>
        <time>2026-01-26T13:31:50.000Z</time>
      </trkpt>
      <trkpt lat="43.87794" lon="2.16749">
        <ele>282</ele>
        <time>2026-01-26T13:31:55.000Z</time>
      </trkpt>
      <trkpt lat="43.87791" lon="2.16755">
        <ele>281</ele>
        <time>2026-01-26T13:32:00.000Z</time>
      </trkpt>
      <trkpt lat="43.87788" lon="2.16759">
        <ele>282</ele>
        <time>2026-01-26T13:32:05.000Z</time>
      </trkpt>
      <trkpt lat="43.87785" lon="2.16763">
        <ele>281</ele>
        <time>2026-01-26T13:32:10.000Z</time>
      </trkpt>
      <trkpt lat="43.87781" lon="2.1677">
        <ele>281</ele>
        <time>2026-01-26T13:32:15.000Z</time>
      </trkpt>
      <trkpt lat="43.87777" lon="2.16775">
        <ele>281</ele>
        <time>2026-01-26T13:32:20.000Z</time>
      </trkpt>
      <trkpt lat="43.87773" lon="2.16783">
        <ele>281</ele>
        <time>2026-01-26T13:32:25.000Z</time>
      </trkpt>
      <trkpt lat="43.8777" lon="2.16789">
        <ele>281</ele>
        <time>2026-01-26T13:32:30.000Z</time>
      </trkpt>
      <trkpt lat="43.87767" lon="2.16791">
        <ele>284</ele>
        <time>2026-01-26T13:32:35.000Z</time>
      </trkpt>
      <trkpt lat="43.87764" lon="2.16794">
        <ele>284</ele>
        <time>2026-01-26T13:32:40.000Z</time>
      </trkpt>
      <trkpt lat="43.87764" lon="2.168">
        <ele>283</ele>
        <time>2026-01-26T13:32:45.000Z</time>
      </trkpt>
      <trkpt lat="43.8776" lon="2.16808">
        <ele>285</ele>
        <time>2026-01-26T13:32:50.000Z</time>
      </trkpt>
      <trkpt lat="43.87755" lon="2.16815">
        <ele>284</ele>
        <time>2026-01-26T13:32:55.000Z</time>
      </trkpt>
      <trkpt lat="43.8775" lon="2.16822">
        <ele>285</ele>
        <time>2026-01-26T13:33:00.000Z</time>
      </trkpt>
      <trkpt lat="43.87746" lon="2.16828">
        <ele>285</ele>
        <time>2026-01-26T13:33:05.000Z</time>
      </trkpt>
      <trkpt lat="43.87739" lon="2.16835">
        <ele>285</ele>
        <time>2026-01-26T13:33:10.000Z</time>
      </trkpt>
      <trkpt lat="43.87733" lon="2.1684">
        <ele>287</ele>
        <time>2026-01-26T13:33:15.000Z</time>
      </trkpt>
      <trkpt lat="43.87728" lon="2.16845">
        <ele>287</ele>
        <time>2026-01-26T13:33:20.000Z</time>
      </trkpt>
      <trkpt lat="43.87722" lon="2.16851">
        <ele>287</ele>
        <time>2026-01-26T13:33:25.000Z</time>
      </trkpt>
      <trkpt lat="43.87717" lon="2.16857">
        <ele>287</ele>
        <time>2026-01-26T13:33:30.000Z</time>
      </trkpt>
      <trkpt lat="43.87712" lon="2.16861">
        <ele>286</ele>
        <time>2026-01-26T13:33:35.000Z</time>
      </trkpt>
      <trkpt lat="43.87705" lon="2.16866">
        <ele>286</ele>
        <time>2026-01-26T13:33:40.000Z</time>
      </trkpt>
      <trkpt lat="43.877" lon="2.16873">
        <ele>286</ele>
        <time>2026-01-26T13:33:45.000Z</time>
      </trkpt>
      <trkpt lat="43.87693" lon="2.16878">
        <ele>286</ele>
        <time>2026-01-26T13:33:50.000Z</time>
      </trkpt>
      <trkpt lat="43.87689" lon="2.16883">
        <ele>286</ele>
        <time>2026-01-26T13:33:55.000Z</time>
      </trkpt>
      <trkpt lat="43.87684" lon="2.16888">
        <ele>285</ele>
        <time>2026-01-26T13:34:00.000Z</time>
      </trkpt>
      <trkpt lat="43.87678" lon="2.1689">
        <ele>284</ele>
        <time>2026-01-26T13:34:05.000Z</time>
      </trkpt>
      <trkpt lat="43.87672" lon="2.16897">
        <ele>285</ele>
        <time>2026-01-26T13:34:10.000Z</time>
      </trkpt>
      <trkpt lat="43.87666" lon="2.169">
        <ele>286</ele>
        <time>2026-01-26T13:34:15.000Z</time>
      </trkpt>
      <trkpt lat="43.87658" lon="2.16901">
        <ele>287</ele>
        <time>2026-01-26T13:34:20.000Z</time>
      </trkpt>
      <trkpt lat="43.87653" lon="2.16904">
        <ele>288</ele>
        <time>2026-01-26T13:34:25.000Z</time>
      </trkpt>
      <trkpt lat="43.87645" lon="2.16909">
        <ele>288</ele>
        <time>2026-01-26T13:34:30.000Z</time>
      </trkpt>
      <trkpt lat="43.87638" lon="2.16913">
        <ele>287</ele>
        <time>2026-01-26T13:34:35.000Z</time>
      </trkpt>
      <trkpt lat="43.87632" lon="2.16916">
        <ele>286</ele>
        <time>2026-01-26T13:34:40.000Z</time>
      </trkpt>
      <trkpt lat="43.87625" lon="2.16919">
        <ele>287</ele>
        <time>2026-01-26T13:34:45.000Z</time>
      </trkpt>
      <trkpt lat="43.8762" lon="2.16921">
        <ele>287</ele>
        <time>2026-01-26T13:34:50.000Z</time>
      </trkpt>
      <trkpt lat="43.87614" lon="2.16923">
        <ele>289</ele>
        <time>2026-01-26T13:34:55.000Z</time>
      </trkpt>
      <trkpt lat="43.87607" lon="2.16925">
        <ele>287</ele>
        <time>2026-01-26T13:35:00.000Z</time>
      </trkpt>
      <trkpt lat="43.876" lon="2.16926">
        <ele>285</ele>
        <time>2026-01-26T13:35:05.000Z</time>
      </trkpt>
      <trkpt lat="43.87594" lon="2.16927">
        <ele>285</ele>
        <time>2026-01-26T13:35:10.000Z</time>
      </trkpt>
      <trkpt lat="43.87588" lon="2.16928">
        <ele>285</ele>
        <time>2026-01-26T13:35:15.000Z</time>
      </trkpt>
      <trkpt lat="43.87582" lon="2.1693">
        <ele>284</ele>
        <time>2026-01-26T13:35:20.000Z</time>
      </trkpt>
      <trkpt lat="43.87576" lon="2.16933">
        <ele>284</ele>
        <time>2026-01-26T13:35:25.000Z</time>
      </trkpt>
      <trkpt lat="43.87569" lon="2.16935">
        <ele>283</ele>
        <time>2026-01-26T13:35:30.000Z</time>
      </trkpt>
      <trkpt lat="43.87563" lon="2.1694">
        <ele>285</ele>
        <time>2026-01-26T13:35:35.000Z</time>
      </trkpt>
      <trkpt lat="43.87557" lon="2.16945">
        <ele>286</ele>
        <time>2026-01-26T13:35:40.000Z</time>
      </trkpt>
      <trkpt lat="43.8755" lon="2.16947">
        <ele>287</ele>
        <time>2026-01-26T13:35:45.000Z</time>
      </trkpt>
      <trkpt lat="43.87543" lon="2.1695">
        <ele>287</ele>
        <time>2026-01-26T13:35:50.000Z</time>
      </trkpt>
      <trkpt lat="43.87537" lon="2.16954">
        <ele>286</ele>
        <time>2026-01-26T13:35:55.000Z</time>
      </trkpt>
      <trkpt lat="43.8753" lon="2.16956">
        <ele>286</ele>
        <time>2026-01-26T13:36:00.000Z</time>
      </trkpt>
      <trkpt lat="43.87523" lon="2.16959">
        <ele>287</ele>
        <time>2026-01-26T13:36:05.000Z</time>
      </trkpt>
      <trkpt lat="43.87515" lon="2.16962">
        <ele>286</ele>
        <time>2026-01-26T13:36:10.000Z</time>
      </trkpt>
      <trkpt lat="43.87509" lon="2.16965">
        <ele>285</ele>
        <time>2026-01-26T13:36:15.000Z</time>
      </trkpt>
      <trkpt lat="43.87504" lon="2.16968">
        <ele>286</ele>
        <time>2026-01-26T13:36:20.000Z</time>
      </trkpt>
      <trkpt lat="43.87497" lon="2.16969">
        <ele>286</ele>
        <time>2026-01-26T13:36:25.000Z</time>
      </trkpt>
      <trkpt lat="43.8749" lon="2.16972">
        <ele>285</ele>
        <time>2026-01-26T13:36:30.000Z</time>
      </trkpt>
      <trkpt lat="43.87485" lon="2.16973">
        <ele>285</ele>
        <time>2026-01-26T13:36:35.000Z</time>
      </trkpt>
      <trkpt lat="43.87477" lon="2.16978">
        <ele>285</ele>
        <time>2026-01-26T13:36:40.000Z</time>
      </trkpt>
      <trkpt lat="43.8747" lon="2.16982">
        <ele>285</ele>
        <time>2026-01-26T13:36:45.000Z</time>
      </trkpt>
      <trkpt lat="43.87465" lon="2.16984">
        <ele>284</ele>
        <time>2026-01-26T13:36:50.000Z</time>
      </trkpt>
      <trkpt lat="43.87457" lon="2.16988">
        <ele>286</ele>
        <time>2026-01-26T13:36:55.000Z</time>
      </trkpt>
      <trkpt lat="43.87452" lon="2.16989">
        <ele>287</ele>
        <time>2026-01-26T13:37:00.000Z</time>
      </trkpt>
      <trkpt lat="43.87447" lon="2.16991">
        <ele>290</ele>
        <time>2026-01-26T13:37:05.000Z</time>
      </trkpt>
      <trkpt lat="43.87443" lon="2.16994">
        <ele>292</ele>
        <time>2026-01-26T13:37:10.000Z</time>
      </trkpt>
      <trkpt lat="43.87436" lon="2.16996">
        <ele>291</ele>
        <time>2026-01-26T13:37:15.000Z</time>
      </trkpt>
      <trkpt lat="43.87428" lon="2.16997">
        <ele>291</ele>
        <time>2026-01-26T13:37:20.000Z</time>
      </trkpt>
      <trkpt lat="43.87422" lon="2.16999">
        <ele>290</ele>
        <time>2026-01-26T13:37:25.000Z</time>
      </trkpt>
      <trkpt lat="43.87413" lon="2.17002">
        <ele>290</ele>
        <time>2026-01-26T13:37:30.000Z</time>
      </trkpt>
      <trkpt lat="43.87408" lon="2.17005">
        <ele>292</ele>
        <time>2026-01-26T13:37:35.000Z</time>
      </trkpt>
      <trkpt lat="43.87401" lon="2.17009">
        <ele>293</ele>
        <time>2026-01-26T13:37:40.000Z</time>
      </trkpt>
      <trkpt lat="43.87393" lon="2.17009">
        <ele>292</ele>
        <time>2026-01-26T13:37:45.000Z</time>
      </trkpt>
      <trkpt lat="43.87387" lon="2.17011">
        <ele>292</ele>
        <time>2026-01-26T13:37:50.000Z</time>
      </trkpt>
      <trkpt lat="43.87381" lon="2.17015">
        <ele>293</ele>
        <time>2026-01-26T13:37:55.000Z</time>
      </trkpt>
      <trkpt lat="43.87376" lon="2.17018">
        <ele>292</ele>
        <time>2026-01-26T13:38:00.000Z</time>
      </trkpt>
      <trkpt lat="43.87376" lon="2.17017">
        <ele>291</ele>
        <time>2026-01-26T13:38:05.000Z</time>
      </trkpt>
      <trkpt lat="43.87375" lon="2.17016">
        <ele>291</ele>
        <time>2026-01-26T13:38:10.000Z</time>
      </trkpt>
      <trkpt lat="43.87375" lon="2.17016">
        <ele>291</ele>
        <time>2026-01-26T13:38:15.000Z</time>
      </trkpt>
      <trkpt lat="43.87376" lon="2.17015">
        <ele>290</ele>
        <time>2026-01-26T13:38:20.000Z</time>
      </trkpt>
      <trkpt lat="43.87376" lon="2.17016">
        <ele>291</ele>
        <time>2026-01-26T13:38:25.000Z</time>
      </trkpt>
      <trkpt lat="43.87376" lon="2.17016">
        <ele>291</ele>
        <time>2026-01-26T13:38:30.000Z</time>
      </trkpt>
      <trkpt lat="43.87376" lon="2.17017">
        <ele>291</ele>
        <time>2026-01-26T13:38:35.000Z</time>
      </trkpt>
      <trkpt lat="43.87376" lon="2.17017">
        <ele>291</ele>
        <time>2026-01-26T13:38:40.000Z</time>
      </trkpt>
      <trkpt lat="43.87375" lon="2.17017">
        <ele>291</ele>
        <time>2026-01-26T13:38:45.000Z</time>
      </trkpt>
      <trkpt lat="43.87375" lon="2.17017">
        <ele>291</ele>
        <time>2026-01-26T13:38:50.000Z</time>
      </trkpt>
      <trkpt lat="43.87375" lon="2.17017">
        <ele>291</ele>
        <time>2026-01-26T13:38:55.000Z</time>
      </trkpt>
      <trkpt lat="43.87375" lon="2.17017">
        <ele>291</ele>
        <time>2026-01-26T13:39:00.000Z</time>
      </trkpt>
      <trkpt lat="43.87374" lon="2.17018">
        <ele>291</ele>
        <time>2026-01-26T13:39:05.000Z</time>
      </trkpt>
      <trkpt lat="43.87373" lon="2.17017">
        <ele>292</ele>
        <time>2026-01-26T13:39:10.000Z</time>
      </trkpt>
      <trkpt lat="43.87373" lon="2.17017">
        <ele>292</ele>
        <time>2026-01-26T13:39:15.000Z</time>
      </trkpt>
      <trkpt lat="43.87373" lon="2.17017">
        <ele>292</ele>
        <time>2026-01-26T13:39:20.000Z</time>
      </trkpt>
      <trkpt lat="43.87373" lon="2.17017">
        <ele>292</ele>
        <time>2026-01-26T13:39:25.000Z</time>
      </trkpt>
      <trkpt lat="43.87373" lon="2.17017">
        <ele>292</ele>
        <time>2026-01-26T13:39:30.000Z</time>
      </trkpt>
      <trkpt lat="43.87373" lon="2.17018">
        <ele>292</ele>
        <time>2026-01-26T13:39:35.000Z</time>
      </trkpt>
      <trkpt lat="43.87373" lon="2.17018">
        <ele>292</ele>
        <time>2026-01-26T13:39:40.000Z</time>
      </trkpt>
      <trkpt lat="43.87373" lon="2.17018">
        <ele>292</ele>
        <time>2026-01-26T13:39:45.000Z</time>
      </trkpt>
      <trkpt lat="43.87374" lon="2.17019">
        <ele>291</ele>
        <time>2026-01-26T13:39:50.000Z</time>
      </trkpt>
      <trkpt lat="43.87373" lon="2.17019">
        <ele>290</ele>
        <time>2026-01-26T13:39:55.000Z</time>
      </trkpt>
      <trkpt lat="43.87373" lon="2.17019">
        <ele>290</ele>
        <time>2026-01-26T13:40:00.000Z</time>
      </trkpt>
      <trkpt lat="43.87373" lon="2.17019">
        <ele>290</ele>
        <time>2026-01-26T13:40:05.000Z</time>
      </trkpt>
      <trkpt lat="43.87373" lon="2.17019">
        <ele>291</ele>
        <time>2026-01-26T13:40:10.000Z</time>
      </trkpt>
      <trkpt lat="43.87373" lon="2.17019">
        <ele>291</ele>
        <time>2026-01-26T13:40:15.000Z</time>
      </trkpt>
      <trkpt lat="43.87373" lon="2.17019">
        <ele>291</ele>
        <time>2026-01-26T13:40:20.000Z</time>
      </trkpt>
      <trkpt lat="43.87373" lon="2.17019">
        <ele>291</ele>
        <time>2026-01-26T13:40:25.000Z</time>
      </trkpt>
      <trkpt lat="43.8737" lon="2.17019">
        <ele>290</ele>
        <time>2026-01-26T13:40:30.000Z</time>
      </trkpt>
      <trkpt lat="43.87364" lon="2.17022">
        <ele>290</ele>
        <time>2026-01-26T13:40:35.000Z</time>
      </trkpt>
      <trkpt lat="43.87358" lon="2.17024">
        <ele>290</ele>
        <time>2026-01-26T13:40:40.000Z</time>
      </trkpt>
      <trkpt lat="43.87353" lon="2.17026">
        <ele>290</ele>
        <time>2026-01-26T13:40:45.000Z</time>
      </trkpt>
      <trkpt lat="43.87347" lon="2.17031">
        <ele>291</ele>
        <time>2026-01-26T13:40:50.000Z</time>
      </trkpt>
      <trkpt lat="43.87341" lon="2.17034">
        <ele>292</ele>
        <time>2026-01-26T13:40:55.000Z</time>
      </trkpt>
      <trkpt lat="43.87334" lon="2.17036">
        <ele>292</ele>
        <time>2026-01-26T13:41:00.000Z</time>
      </trkpt>
      <trkpt lat="43.87328" lon="2.17038">
        <ele>292</ele>
        <time>2026-01-26T13:41:05.000Z</time>
      </trkpt>
      <trkpt lat="43.8732" lon="2.17042">
        <ele>291</ele>
        <time>2026-01-26T13:41:10.000Z</time>
      </trkpt>
      <trkpt lat="43.87315" lon="2.17045">
        <ele>292</ele>
        <time>2026-01-26T13:41:15.000Z</time>
      </trkpt>
      <trkpt lat="43.87308" lon="2.17047">
        <ele>294</ele>
        <time>2026-01-26T13:41:20.000Z</time>
      </trkpt>
      <trkpt lat="43.87305" lon="2.17049">
        <ele>293</ele>
        <time>2026-01-26T13:41:25.000Z</time>
      </trkpt>
      <trkpt lat="43.87301" lon="2.1705">
        <ele>293</ele>
        <time>2026-01-26T13:41:30.000Z</time>
      </trkpt>
      <trkpt lat="43.87296" lon="2.17051">
        <ele>293</ele>
        <time>2026-01-26T13:41:35.000Z</time>
      </trkpt>
      <trkpt lat="43.87292" lon="2.17049">
        <ele>292</ele>
        <time>2026-01-26T13:41:40.000Z</time>
      </trkpt>
      <trkpt lat="43.87289" lon="2.17049">
        <ele>291</ele>
        <time>2026-01-26T13:41:45.000Z</time>
      </trkpt>
      <trkpt lat="43.87285" lon="2.17052">
        <ele>290</ele>
        <time>2026-01-26T13:41:50.000Z</time>
      </trkpt>
      <trkpt lat="43.8728" lon="2.17054">
        <ele>290</ele>
        <time>2026-01-26T13:41:55.000Z</time>
      </trkpt>
      <trkpt lat="43.87276" lon="2.17054">
        <ele>290</ele>
        <time>2026-01-26T13:42:00.000Z</time>
      </trkpt>
      <trkpt lat="43.87273" lon="2.17058">
        <ele>291</ele>
        <time>2026-01-26T13:42:05.000Z</time>
      </trkpt>
      <trkpt lat="43.87267" lon="2.17062">
        <ele>291</ele>
        <time>2026-01-26T13:42:10.000Z</time>
      </trkpt>
      <trkpt lat="43.87261" lon="2.17064">
        <ele>291</ele>
        <time>2026-01-26T13:42:15.000Z</time>
      </trkpt>
      <trkpt lat="43.87255" lon="2.17066">
        <ele>292</ele>
        <time>2026-01-26T13:42:20.000Z</time>
      </trkpt>
      <trkpt lat="43.8725" lon="2.17068">
        <ele>292</ele>
        <time>2026-01-26T13:42:25.000Z</time>
      </trkpt>
      <trkpt lat="43.87245" lon="2.1707">
        <ele>293</ele>
        <time>2026-01-26T13:42:30.000Z</time>
      </trkpt>
      <trkpt lat="43.87241" lon="2.17072">
        <ele>293</ele>
        <time>2026-01-26T13:42:35.000Z</time>
      </trkpt>
      <trkpt lat="43.87237" lon="2.17075">
        <ele>293</ele>
        <time>2026-01-26T13:42:40.000Z</time>
      </trkpt>
      <trkpt lat="43.87231" lon="2.17077">
        <ele>293</ele>
        <time>2026-01-26T13:42:45.000Z</time>
      </trkpt>
      <trkpt lat="43.87226" lon="2.17078">
        <ele>292</ele>
        <time>2026-01-26T13:42:50.000Z</time>
      </trkpt>
      <trkpt lat="43.8722" lon="2.17081">
        <ele>294</ele>
        <time>2026-01-26T13:42:55.000Z</time>
      </trkpt>
      <trkpt lat="43.87215" lon="2.17083">
        <ele>294</ele>
        <time>2026-01-26T13:43:00.000Z</time>
      </trkpt>
      <trkpt lat="43.87209" lon="2.17085">
        <ele>293</ele>
        <time>2026-01-26T13:43:05.000Z</time>
      </trkpt>
      <trkpt lat="43.87205" lon="2.17089">
        <ele>293</ele>
        <time>2026-01-26T13:43:10.000Z</time>
      </trkpt>
      <trkpt lat="43.87199" lon="2.1709">
        <ele>294</ele>
        <time>2026-01-26T13:43:15.000Z</time>
      </trkpt>
      <trkpt lat="43.87194" lon="2.17093">
        <ele>293</ele>
        <time>2026-01-26T13:43:20.000Z</time>
      </trkpt>
      <trkpt lat="43.87188" lon="2.17095">
        <ele>293</ele>
        <time>2026-01-26T13:43:25.000Z</time>
      </trkpt>
      <trkpt lat="43.87184" lon="2.17097">
        <ele>295</ele>
        <time>2026-01-26T13:43:30.000Z</time>
      </trkpt>
      <trkpt lat="43.87179" lon="2.17099">
        <ele>295</ele>
        <time>2026-01-26T13:43:35.000Z</time>
      </trkpt>
      <trkpt lat="43.87175" lon="2.17101">
        <ele>296</ele>
        <time>2026-01-26T13:43:40.000Z</time>
      </trkpt>
      <trkpt lat="43.87171" lon="2.17103">
        <ele>296</ele>
        <time>2026-01-26T13:43:45.000Z</time>
      </trkpt>
      <trkpt lat="43.87165" lon="2.17105">
        <ele>295</ele>
        <time>2026-01-26T13:43:50.000Z</time>
      </trkpt>
      <trkpt lat="43.8716" lon="2.17106">
        <ele>294</ele>
        <time>2026-01-26T13:43:55.000Z</time>
      </trkpt>
      <trkpt lat="43.87155" lon="2.17107">
        <ele>294</ele>
        <time>2026-01-26T13:44:00.000Z</time>
      </trkpt>
      <trkpt lat="43.8715" lon="2.1711">
        <ele>293</ele>
        <time>2026-01-26T13:44:05.000Z</time>
      </trkpt>
      <trkpt lat="43.87145" lon="2.17113">
        <ele>292</ele>
        <time>2026-01-26T13:44:10.000Z</time>
      </trkpt>
      <trkpt lat="43.8714" lon="2.17114">
        <ele>293</ele>
        <time>2026-01-26T13:44:15.000Z</time>
      </trkpt>
      <trkpt lat="43.87136" lon="2.17118">
        <ele>294</ele>
        <time>2026-01-26T13:44:20.000Z</time>
      </trkpt>
      <trkpt lat="43.87131" lon="2.1712">
        <ele>294</ele>
        <time>2026-01-26T13:44:25.000Z</time>
      </trkpt>
      <trkpt lat="43.87126" lon="2.17122">
        <ele>295</ele>
        <time>2026-01-26T13:44:30.000Z</time>
      </trkpt>
      <trkpt lat="43.8712" lon="2.17125">
        <ele>295</ele>
        <time>2026-01-26T13:44:35.000Z</time>
      </trkpt>
      <trkpt lat="43.87115" lon="2.17125">
        <ele>295</ele>
        <time>2026-01-26T13:44:40.000Z</time>
      </trkpt>
      <trkpt lat="43.87109" lon="2.17127">
        <ele>295</ele>
        <time>2026-01-26T13:44:45.000Z</time>
      </trkpt>
      <trkpt lat="43.87106" lon="2.17129">
        <ele>292</ele>
        <time>2026-01-26T13:44:50.000Z</time>
      </trkpt>
      <trkpt lat="43.87101" lon="2.17131">
        <ele>292</ele>
        <time>2026-01-26T13:44:55.000Z</time>
      </trkpt>
      <trkpt lat="43.87097" lon="2.17135">
        <ele>292</ele>
        <time>2026-01-26T13:45:00.000Z</time>
      </trkpt>
      <trkpt lat="43.87093" lon="2.17137">
        <ele>293</ele>
        <time>2026-01-26T13:45:05.000Z</time>
      </trkpt>
      <trkpt lat="43.87087" lon="2.1714">
        <ele>292</ele>
        <time>2026-01-26T13:45:10.000Z</time>
      </trkpt>
      <trkpt lat="43.87083" lon="2.17144">
        <ele>293</ele>
        <time>2026-01-26T13:45:15.000Z</time>
      </trkpt>
      <trkpt lat="43.87079" lon="2.17147">
        <ele>295</ele>
        <time>2026-01-26T13:45:20.000Z</time>
      </trkpt>
      <trkpt lat="43.87074" lon="2.17151">
        <ele>295</ele>
        <time>2026-01-26T13:45:25.000Z</time>
      </trkpt>
      <trkpt lat="43.87069" lon="2.17154">
        <ele>294</ele>
        <time>2026-01-26T13:45:30.000Z</time>
      </trkpt>
      <trkpt lat="43.87064" lon="2.17156">
        <ele>295</ele>
        <time>2026-01-26T13:45:35.000Z</time>
      </trkpt>
      <trkpt lat="43.87061" lon="2.1716">
        <ele>293</ele>
        <time>2026-01-26T13:45:40.000Z</time>
      </trkpt>
      <trkpt lat="43.87057" lon="2.17165">
        <ele>293</ele>
        <time>2026-01-26T13:45:45.000Z</time>
      </trkpt>
      <trkpt lat="43.87052" lon="2.17168">
        <ele>295</ele>
        <time>2026-01-26T13:45:50.000Z</time>
      </trkpt>
      <trkpt lat="43.87047" lon="2.17172">
        <ele>296</ele>
        <time>2026-01-26T13:45:55.000Z</time>
      </trkpt>
      <trkpt lat="43.87043" lon="2.17177">
        <ele>296</ele>
        <time>2026-01-26T13:46:00.000Z</time>
      </trkpt>
      <trkpt lat="43.8704" lon="2.1718">
        <ele>297</ele>
        <time>2026-01-26T13:46:05.000Z</time>
      </trkpt>
      <trkpt lat="43.87036" lon="2.17183">
        <ele>297</ele>
        <time>2026-01-26T13:46:10.000Z</time>
      </trkpt>
      <trkpt lat="43.87032" lon="2.17186">
        <ele>296</ele>
        <time>2026-01-26T13:46:15.000Z</time>
      </trkpt>
      <trkpt lat="43.87028" lon="2.1719">
        <ele>295</ele>
        <time>2026-01-26T13:46:20.000Z</time>
      </trkpt>
      <trkpt lat="43.87024" lon="2.17194">
        <ele>295</ele>
        <time>2026-01-26T13:46:25.000Z</time>
      </trkpt>
      <trkpt lat="43.8702" lon="2.17199">
        <ele>295</ele>
        <time>2026-01-26T13:46:30.000Z</time>
      </trkpt>
      <trkpt lat="43.87014" lon="2.17205">
        <ele>294</ele>
        <time>2026-01-26T13:46:35.000Z</time>
      </trkpt>
      <trkpt lat="43.8701" lon="2.17209">
        <ele>294</ele>
        <time>2026-01-26T13:46:40.000Z</time>
      </trkpt>
      <trkpt lat="43.87006" lon="2.17213">
        <ele>293</ele>
        <time>2026-01-26T13:46:45.000Z</time>
      </trkpt>
      <trkpt lat="43.87003" lon="2.17218">
        <ele>295</ele>
        <time>2026-01-26T13:46:50.000Z</time>
      </trkpt>
      <trkpt lat="43.86999" lon="2.17221">
        <ele>295</ele>
        <time>2026-01-26T13:46:55.000Z</time>
      </trkpt>
      <trkpt lat="43.86995" lon="2.17226">
        <ele>295</ele>
        <time>2026-01-26T13:47:00.000Z</time>
      </trkpt>
      <trkpt lat="43.86991" lon="2.1723">
        <ele>294</ele>
        <time>2026-01-26T13:47:05.000Z</time>
      </trkpt>
      <trkpt lat="43.86986" lon="2.17235">
        <ele>294</ele>
        <time>2026-01-26T13:47:10.000Z</time>
      </trkpt>
      <trkpt lat="43.86983" lon="2.17239">
        <ele>295</ele>
        <time>2026-01-26T13:47:15.000Z</time>
      </trkpt>
      <trkpt lat="43.8698" lon="2.17245">
        <ele>294</ele>
        <time>2026-01-26T13:47:20.000Z</time>
      </trkpt>
      <trkpt lat="43.86976" lon="2.1725">
        <ele>295</ele>
        <time>2026-01-26T13:47:25.000Z</time>
      </trkpt>
      <trkpt lat="43.86973" lon="2.17254">
        <ele>294</ele>
        <time>2026-01-26T13:47:30.000Z</time>
      </trkpt>
      <trkpt lat="43.8697" lon="2.17259">
        <ele>295</ele>
        <time>2026-01-26T13:47:35.000Z</time>
      </trkpt>
      <trkpt lat="43.86968" lon="2.17265">
        <ele>296</ele>
        <time>2026-01-26T13:47:40.000Z</time>
      </trkpt>
      <trkpt lat="43.86965" lon="2.17269">
        <ele>296</ele>
        <time>2026-01-26T13:47:45.000Z</time>
      </trkpt>
      <trkpt lat="43.86964" lon="2.17271">
        <ele>296</ele>
        <time>2026-01-26T13:47:50.000Z</time>
      </trkpt>
      <trkpt lat="43.86964" lon="2.17271">
        <ele>296</ele>
        <time>2026-01-26T13:47:55.000Z</time>
      </trkpt>
      <trkpt lat="43.86963" lon="2.1727">
        <ele>297</ele>
        <time>2026-01-26T13:48:00.000Z</time>
      </trkpt>
      <trkpt lat="43.86962" lon="2.1727">
        <ele>296</ele>
        <time>2026-01-26T13:48:05.000Z</time>
      </trkpt>
      <trkpt lat="43.86962" lon="2.1727">
        <ele>296</ele>
        <time>2026-01-26T13:48:10.000Z</time>
      </trkpt>
      <trkpt lat="43.86962" lon="2.1727">
        <ele>296</ele>
        <time>2026-01-26T13:48:15.000Z</time>
      </trkpt>
      <trkpt lat="43.8696" lon="2.17271">
        <ele>297</ele>
        <time>2026-01-26T13:48:20.000Z</time>
      </trkpt>
      <trkpt lat="43.86961" lon="2.17271">
        <ele>297</ele>
        <time>2026-01-26T13:48:25.000Z</time>
      </trkpt>
      <trkpt lat="43.86961" lon="2.17271">
        <ele>297</ele>
        <time>2026-01-26T13:48:30.000Z</time>
      </trkpt>
      <trkpt lat="43.8696" lon="2.17271">
        <ele>298</ele>
        <time>2026-01-26T13:48:35.000Z</time>
      </trkpt>
      <trkpt lat="43.8696" lon="2.17272">
        <ele>297</ele>
        <time>2026-01-26T13:48:40.000Z</time>
      </trkpt>
      <trkpt lat="43.8696" lon="2.17272">
        <ele>297</ele>
        <time>2026-01-26T13:48:45.000Z</time>
      </trkpt>
      <trkpt lat="43.8696" lon="2.17272">
        <ele>297</ele>
        <time>2026-01-26T13:48:50.000Z</time>
      </trkpt>
      <trkpt lat="43.8696" lon="2.17272">
        <ele>297</ele>
        <time>2026-01-26T13:48:55.000Z</time>
      </trkpt>
      <trkpt lat="43.8696" lon="2.17272">
        <ele>298</ele>
        <time>2026-01-26T13:49:00.000Z</time>
      </trkpt>
      <trkpt lat="43.86959" lon="2.17272">
        <ele>297</ele>
        <time>2026-01-26T13:49:05.000Z</time>
      </trkpt>
      <trkpt lat="43.86959" lon="2.17272">
        <ele>297</ele>
        <time>2026-01-26T13:49:10.000Z</time>
      </trkpt>
      <trkpt lat="43.86959" lon="2.17273">
        <ele>297</ele>
        <time>2026-01-26T13:49:15.000Z</time>
      </trkpt>
      <trkpt lat="43.86958" lon="2.17274">
        <ele>297</ele>
        <time>2026-01-26T13:49:20.000Z</time>
      </trkpt>
      <trkpt lat="43.86955" lon="2.17277">
        <ele>297</ele>
        <time>2026-01-26T13:49:25.000Z</time>
      </trkpt>
      <trkpt lat="43.86955" lon="2.17276">
        <ele>297</ele>
        <time>2026-01-26T13:49:30.000Z</time>
      </trkpt>
      <trkpt lat="43.86953" lon="2.17275">
        <ele>296</ele>
        <time>2026-01-26T13:49:35.000Z</time>
      </trkpt>
      <trkpt lat="43.86953" lon="2.17279">
        <ele>296</ele>
        <time>2026-01-26T13:49:40.000Z</time>
      </trkpt>
      <trkpt lat="43.8695" lon="2.17285">
        <ele>296</ele>
        <time>2026-01-26T13:49:45.000Z</time>
      </trkpt>
      <trkpt lat="43.86947" lon="2.1729">
        <ele>295</ele>
        <time>2026-01-26T13:49:50.000Z</time>
      </trkpt>
      <trkpt lat="43.86943" lon="2.17294">
        <ele>296</ele>
        <time>2026-01-26T13:49:55.000Z</time>
      </trkpt>
      <trkpt lat="43.8694" lon="2.17298">
        <ele>296</ele>
        <time>2026-01-26T13:50:00.000Z</time>
      </trkpt>
      <trkpt lat="43.86938" lon="2.17303">
        <ele>296</ele>
        <time>2026-01-26T13:50:05.000Z</time>
      </trkpt>
      <trkpt lat="43.86935" lon="2.17307">
        <ele>298</ele>
        <time>2026-01-26T13:50:10.000Z</time>
      </trkpt>
      <trkpt lat="43.86932" lon="2.17312">
        <ele>297</ele>
        <time>2026-01-26T13:50:15.000Z</time>
      </trkpt>
      <trkpt lat="43.86928" lon="2.17315">
        <ele>297</ele>
        <time>2026-01-26T13:50:20.000Z</time>
      </trkpt>
      <trkpt lat="43.86924" lon="2.1732">
        <ele>296</ele>
        <time>2026-01-26T13:50:25.000Z</time>
      </trkpt>
      <trkpt lat="43.86921" lon="2.17323">
        <ele>297</ele>
        <time>2026-01-26T13:50:30.000Z</time>
      </trkpt>
      <trkpt lat="43.86918" lon="2.17327">
        <ele>299</ele>
        <time>2026-01-26T13:50:35.000Z</time>
      </trkpt>
      <trkpt lat="43.86914" lon="2.1733">
        <ele>298</ele>
        <time>2026-01-26T13:50:40.000Z</time>
      </trkpt>
      <trkpt lat="43.86912" lon="2.17334">
        <ele>299</ele>
        <time>2026-01-26T13:50:45.000Z</time>
      </trkpt>
      <trkpt lat="43.86908" lon="2.17337">
        <ele>298</ele>
        <time>2026-01-26T13:50:50.000Z</time>
      </trkpt>
      <trkpt lat="43.86905" lon="2.17341">
        <ele>298</ele>
        <time>2026-01-26T13:50:55.000Z</time>
      </trkpt>
      <trkpt lat="43.86901" lon="2.17346">
        <ele>297</ele>
        <time>2026-01-26T13:51:00.000Z</time>
      </trkpt>
      <trkpt lat="43.86898" lon="2.17349">
        <ele>298</ele>
        <time>2026-01-26T13:51:05.000Z</time>
      </trkpt>
      <trkpt lat="43.86894" lon="2.17352">
        <ele>299</ele>
        <time>2026-01-26T13:51:10.000Z</time>
      </trkpt>
      <trkpt lat="43.86892" lon="2.17357">
        <ele>299</ele>
        <time>2026-01-26T13:51:15.000Z</time>
      </trkpt>
      <trkpt lat="43.86889" lon="2.17361">
        <ele>300</ele>
        <time>2026-01-26T13:51:20.000Z</time>
      </trkpt>
      <trkpt lat="43.86886" lon="2.17365">
        <ele>300</ele>
        <time>2026-01-26T13:51:25.000Z</time>
      </trkpt>
      <trkpt lat="43.86883" lon="2.17369">
        <ele>302</ele>
        <time>2026-01-26T13:51:30.000Z</time>
      </trkpt>
      <trkpt lat="43.8688" lon="2.17371">
        <ele>302</ele>
        <time>2026-01-26T13:51:35.000Z</time>
      </trkpt>
      <trkpt lat="43.86877" lon="2.17375">
        <ele>302</ele>
        <time>2026-01-26T13:51:40.000Z</time>
      </trkpt>
      <trkpt lat="43.86873" lon="2.17379">
        <ele>301</ele>
        <time>2026-01-26T13:51:45.000Z</time>
      </trkpt>
      <trkpt lat="43.8687" lon="2.17384">
        <ele>302</ele>
        <time>2026-01-26T13:51:50.000Z</time>
      </trkpt>
      <trkpt lat="43.86867" lon="2.17386">
        <ele>301</ele>
        <time>2026-01-26T13:51:55.000Z</time>
      </trkpt>
      <trkpt lat="43.86864" lon="2.17392">
        <ele>299</ele>
        <time>2026-01-26T13:52:00.000Z</time>
      </trkpt>
      <trkpt lat="43.86861" lon="2.17396">
        <ele>300</ele>
        <time>2026-01-26T13:52:05.000Z</time>
      </trkpt>
      <trkpt lat="43.86857" lon="2.174">
        <ele>300</ele>
        <time>2026-01-26T13:52:10.000Z</time>
      </trkpt>
      <trkpt lat="43.86853" lon="2.17404">
        <ele>300</ele>
        <time>2026-01-26T13:52:15.000Z</time>
      </trkpt>
      <trkpt lat="43.86849" lon="2.17409">
        <ele>301</ele>
        <time>2026-01-26T13:52:20.000Z</time>
      </trkpt>
      <trkpt lat="43.86845" lon="2.17413">
        <ele>300</ele>
        <time>2026-01-26T13:52:25.000Z</time>
      </trkpt>
      <trkpt lat="43.86844" lon="2.17417">
        <ele>301</ele>
        <time>2026-01-26T13:52:30.000Z</time>
      </trkpt>
      <trkpt lat="43.86841" lon="2.17421">
        <ele>302</ele>
        <time>2026-01-26T13:52:35.000Z</time>
      </trkpt>
      <trkpt lat="43.86839" lon="2.17424">
        <ele>302</ele>
        <time>2026-01-26T13:52:40.000Z</time>
      </trkpt>
      <trkpt lat="43.86836" lon="2.17428">
        <ele>303</ele>
        <time>2026-01-26T13:52:45.000Z</time>
      </trkpt>
      <trkpt lat="43.86831" lon="2.17433">
        <ele>303</ele>
        <time>2026-01-26T13:52:50.000Z</time>
      </trkpt>
      <trkpt lat="43.86827" lon="2.17436">
        <ele>302</ele>
        <time>2026-01-26T13:52:55.000Z</time>
      </trkpt>
      <trkpt lat="43.86825" lon="2.1744">
        <ele>301</ele>
        <time>2026-01-26T13:53:00.000Z</time>
      </trkpt>
      <trkpt lat="43.86822" lon="2.17447">
        <ele>300</ele>
        <time>2026-01-26T13:53:05.000Z</time>
      </trkpt>
      <trkpt lat="43.86819" lon="2.17451">
        <ele>299</ele>
        <time>2026-01-26T13:53:10.000Z</time>
      </trkpt>
      <trkpt lat="43.86816" lon="2.17455">
        <ele>300</ele>
        <time>2026-01-26T13:53:15.000Z</time>
      </trkpt>
      <trkpt lat="43.86812" lon="2.17459">
        <ele>301</ele>
        <time>2026-01-26T13:53:20.000Z</time>
      </trkpt>
      <trkpt lat="43.86809" lon="2.17464">
        <ele>302</ele>
        <time>2026-01-26T13:53:25.000Z</time>
      </trkpt>
      <trkpt lat="43.86805" lon="2.17469">
        <ele>302</ele>
        <time>2026-01-26T13:53:30.000Z</time>
      </trkpt>
      <trkpt lat="43.86802" lon="2.17475">
        <ele>303</ele>
        <time>2026-01-26T13:53:35.000Z</time>
      </trkpt>
      <trkpt lat="43.868" lon="2.17479">
        <ele>302</ele>
        <time>2026-01-26T13:53:40.000Z</time>
      </trkpt>
      <trkpt lat="43.86797" lon="2.17484">
        <ele>304</ele>
        <time>2026-01-26T13:53:45.000Z</time>
      </trkpt>
      <trkpt lat="43.86793" lon="2.17488">
        <ele>304</ele>
        <time>2026-01-26T13:53:50.000Z</time>
      </trkpt>
      <trkpt lat="43.8679" lon="2.17492">
        <ele>302</ele>
        <time>2026-01-26T13:53:55.000Z</time>
      </trkpt>
      <trkpt lat="43.86787" lon="2.17495">
        <ele>301</ele>
        <time>2026-01-26T13:54:00.000Z</time>
      </trkpt>
      <trkpt lat="43.86784" lon="2.17502">
        <ele>299</ele>
        <time>2026-01-26T13:54:05.000Z</time>
      </trkpt>
      <trkpt lat="43.86781" lon="2.17506">
        <ele>299</ele>
        <time>2026-01-26T13:54:10.000Z</time>
      </trkpt>
      <trkpt lat="43.86778" lon="2.17509">
        <ele>298</ele>
        <time>2026-01-26T13:54:15.000Z</time>
      </trkpt>
      <trkpt lat="43.86777" lon="2.17511">
        <ele>298</ele>
        <time>2026-01-26T13:54:20.000Z</time>
      </trkpt>
      <trkpt lat="43.86777" lon="2.17511">
        <ele>297</ele>
        <time>2026-01-26T13:54:25.000Z</time>
      </trkpt>
      <trkpt lat="43.86776" lon="2.17513">
        <ele>298</ele>
        <time>2026-01-26T13:54:30.000Z</time>
      </trkpt>
      <trkpt lat="43.86775" lon="2.17519">
        <ele>300</ele>
        <time>2026-01-26T13:54:35.000Z</time>
      </trkpt>
      <trkpt lat="43.86772" lon="2.17525">
        <ele>301</ele>
        <time>2026-01-26T13:54:40.000Z</time>
      </trkpt>
      <trkpt lat="43.86769" lon="2.17529">
        <ele>300</ele>
        <time>2026-01-26T13:54:45.000Z</time>
      </trkpt>
      <trkpt lat="43.86766" lon="2.17533">
        <ele>300</ele>
        <time>2026-01-26T13:54:50.000Z</time>
      </trkpt>
      <trkpt lat="43.86764" lon="2.17538">
        <ele>299</ele>
        <time>2026-01-26T13:54:55.000Z</time>
      </trkpt>
      <trkpt lat="43.86761" lon="2.17543">
        <ele>299</ele>
        <time>2026-01-26T13:55:00.000Z</time>
      </trkpt>
      <trkpt lat="43.86758" lon="2.1755">
        <ele>298</ele>
        <time>2026-01-26T13:55:05.000Z</time>
      </trkpt>
      <trkpt lat="43.86755" lon="2.17556">
        <ele>299</ele>
        <time>2026-01-26T13:55:10.000Z</time>
      </trkpt>
      <trkpt lat="43.86754" lon="2.17563">
        <ele>300</ele>
        <time>2026-01-26T13:55:15.000Z</time>
      </trkpt>
      <trkpt lat="43.86751" lon="2.17569">
        <ele>299</ele>
        <time>2026-01-26T13:55:20.000Z</time>
      </trkpt>
      <trkpt lat="43.86748" lon="2.17572">
        <ele>300</ele>
        <time>2026-01-26T13:55:25.000Z</time>
      </trkpt>
      <trkpt lat="43.86746" lon="2.17579">
        <ele>300</ele>
        <time>2026-01-26T13:55:30.000Z</time>
      </trkpt>
      <trkpt lat="43.86743" lon="2.17586">
        <ele>300</ele>
        <time>2026-01-26T13:55:35.000Z</time>
      </trkpt>
      <trkpt lat="43.86743" lon="2.17592">
        <ele>300</ele>
        <time>2026-01-26T13:55:40.000Z</time>
      </trkpt>
      <trkpt lat="43.8674" lon="2.17597">
        <ele>300</ele>
        <time>2026-01-26T13:55:45.000Z</time>
      </trkpt>
      <trkpt lat="43.86738" lon="2.17604">
        <ele>300</ele>
        <time>2026-01-26T13:55:50.000Z</time>
      </trkpt>
      <trkpt lat="43.86737" lon="2.17609">
        <ele>301</ele>
        <time>2026-01-26T13:55:55.000Z</time>
      </trkpt>
      <trkpt lat="43.86735" lon="2.17615">
        <ele>301</ele>
        <time>2026-01-26T13:56:00.000Z</time>
      </trkpt>
      <trkpt lat="43.86735" lon="2.17619">
        <ele>301</ele>
        <time>2026-01-26T13:56:05.000Z</time>
      </trkpt>
      <trkpt lat="43.86734" lon="2.17626">
        <ele>301</ele>
        <time>2026-01-26T13:56:10.000Z</time>
      </trkpt>
      <trkpt lat="43.86733" lon="2.17632">
        <ele>303</ele>
        <time>2026-01-26T13:56:15.000Z</time>
      </trkpt>
      <trkpt lat="43.86731" lon="2.17637">
        <ele>301</ele>
        <time>2026-01-26T13:56:20.000Z</time>
      </trkpt>
      <trkpt lat="43.8673" lon="2.17643">
        <ele>300</ele>
        <time>2026-01-26T13:56:25.000Z</time>
      </trkpt>
      <trkpt lat="43.86728" lon="2.17648">
        <ele>301</ele>
        <time>2026-01-26T13:56:30.000Z</time>
      </trkpt>
      <trkpt lat="43.86725" lon="2.17653">
        <ele>302</ele>
        <time>2026-01-26T13:56:35.000Z</time>
      </trkpt>
      <trkpt lat="43.86724" lon="2.1766">
        <ele>302</ele>
        <time>2026-01-26T13:56:40.000Z</time>
      </trkpt>
      <trkpt lat="43.86723" lon="2.17668">
        <ele>302</ele>
        <time>2026-01-26T13:56:45.000Z</time>
      </trkpt>
      <trkpt lat="43.86722" lon="2.17673">
        <ele>304</ele>
        <time>2026-01-26T13:56:50.000Z</time>
      </trkpt>
      <trkpt lat="43.86723" lon="2.17679">
        <ele>304</ele>
        <time>2026-01-26T13:56:55.000Z</time>
      </trkpt>
      <trkpt lat="43.86722" lon="2.17685">
        <ele>305</ele>
        <time>2026-01-26T13:57:00.000Z</time>
      </trkpt>
      <trkpt lat="43.86722" lon="2.17689">
        <ele>305</ele>
        <time>2026-01-26T13:57:05.000Z</time>
      </trkpt>
      <trkpt lat="43.86722" lon="2.17691">
        <ele>305</ele>
        <time>2026-01-26T13:57:10.000Z</time>
      </trkpt>
      <trkpt lat="43.8672" lon="2.17695">
        <ele>304</ele>
        <time>2026-01-26T13:57:15.000Z</time>
      </trkpt>
      <trkpt lat="43.86719" lon="2.17704">
        <ele>304</ele>
        <time>2026-01-26T13:57:20.000Z</time>
      </trkpt>
      <trkpt lat="43.86719" lon="2.17711">
        <ele>304</ele>
        <time>2026-01-26T13:57:25.000Z</time>
      </trkpt>
      <trkpt lat="43.86719" lon="2.17719">
        <ele>303</ele>
        <time>2026-01-26T13:57:30.000Z</time>
      </trkpt>
      <trkpt lat="43.86719" lon="2.17726">
        <ele>304</ele>
        <time>2026-01-26T13:57:35.000Z</time>
      </trkpt>
      <trkpt lat="43.8672" lon="2.17732">
        <ele>305</ele>
        <time>2026-01-26T13:57:40.000Z</time>
      </trkpt>
      <trkpt lat="43.8672" lon="2.17738">
        <ele>306</ele>
        <time>2026-01-26T13:57:45.000Z</time>
      </trkpt>
      <trkpt lat="43.8672" lon="2.17744">
        <ele>306</ele>
        <time>2026-01-26T13:57:50.000Z</time>
      </trkpt>
      <trkpt lat="43.86718" lon="2.17751">
        <ele>305</ele>
        <time>2026-01-26T13:57:55.000Z</time>
      </trkpt>
      <trkpt lat="43.86718" lon="2.17759">
        <ele>305</ele>
        <time>2026-01-26T13:58:00.000Z</time>
      </trkpt>
      <trkpt lat="43.86719" lon="2.17764">
        <ele>305</ele>
        <time>2026-01-26T13:58:05.000Z</time>
      </trkpt>
      <trkpt lat="43.86719" lon="2.17771">
        <ele>306</ele>
        <time>2026-01-26T13:58:10.000Z</time>
      </trkpt>
      <trkpt lat="43.8672" lon="2.1778">
        <ele>307</ele>
        <time>2026-01-26T13:58:15.000Z</time>
      </trkpt>
      <trkpt lat="43.8672" lon="2.17784">
        <ele>305</ele>
        <time>2026-01-26T13:58:20.000Z</time>
      </trkpt>
      <trkpt lat="43.8672" lon="2.17789">
        <ele>305</ele>
        <time>2026-01-26T13:58:25.000Z</time>
      </trkpt>
      <trkpt lat="43.86718" lon="2.17794">
        <ele>305</ele>
        <time>2026-01-26T13:58:30.000Z</time>
      </trkpt>
      <trkpt lat="43.8672" lon="2.178">
        <ele>305</ele>
        <time>2026-01-26T13:58:35.000Z</time>
      </trkpt>
      <trkpt lat="43.8672" lon="2.17805">
        <ele>305</ele>
        <time>2026-01-26T13:58:40.000Z</time>
      </trkpt>
      <trkpt lat="43.86721" lon="2.17812">
        <ele>305</ele>
        <time>2026-01-26T13:58:45.000Z</time>
      </trkpt>
      <trkpt lat="43.8672" lon="2.17819">
        <ele>306</ele>
        <time>2026-01-26T13:58:50.000Z</time>
      </trkpt>
      <trkpt lat="43.86719" lon="2.17825">
        <ele>306</ele>
        <time>2026-01-26T13:58:55.000Z</time>
      </trkpt>
      <trkpt lat="43.86719" lon="2.17832">
        <ele>308</ele>
        <time>2026-01-26T13:59:00.000Z</time>
      </trkpt>
      <trkpt lat="43.86718" lon="2.17838">
        <ele>308</ele>
        <time>2026-01-26T13:59:05.000Z</time>
      </trkpt>
      <trkpt lat="43.86718" lon="2.17844">
        <ele>307</ele>
        <time>2026-01-26T13:59:10.000Z</time>
      </trkpt>
      <trkpt lat="43.86718" lon="2.17851">
        <ele>307</ele>
        <time>2026-01-26T13:59:15.000Z</time>
      </trkpt>
      <trkpt lat="43.86718" lon="2.17856">
        <ele>307</ele>
        <time>2026-01-26T13:59:20.000Z</time>
      </trkpt>
      <trkpt lat="43.8672" lon="2.17861">
        <ele>309</ele>
        <time>2026-01-26T13:59:25.000Z</time>
      </trkpt>
      <trkpt lat="43.8672" lon="2.17868">
        <ele>309</ele>
        <time>2026-01-26T13:59:30.000Z</time>
      </trkpt>
      <trkpt lat="43.8672" lon="2.17874">
        <ele>309</ele>
        <time>2026-01-26T13:59:35.000Z</time>
      </trkpt>
      <trkpt lat="43.86721" lon="2.1788">
        <ele>310</ele>
        <time>2026-01-26T13:59:40.000Z</time>
      </trkpt>
      <trkpt lat="43.86722" lon="2.17887">
        <ele>310</ele>
        <time>2026-01-26T13:59:45.000Z</time>
      </trkpt>
      <trkpt lat="43.86723" lon="2.17892">
        <ele>308</ele>
        <time>2026-01-26T13:59:50.000Z</time>
      </trkpt>
      <trkpt lat="43.86722" lon="2.179">
        <ele>308</ele>
        <time>2026-01-26T13:59:55.000Z</time>
      </trkpt>
      <trkpt lat="43.86721" lon="2.17902">
        <ele>308</ele>
        <time>2026-01-26T14:00:00.000Z</time>
      </trkpt>
      <trkpt lat="43.8672" lon="2.1791">
        <ele>308</ele>
        <time>2026-01-26T14:00:05.000Z</time>
      </trkpt>
      <trkpt lat="43.8672" lon="2.17917">
        <ele>306</ele>
        <time>2026-01-26T14:00:10.000Z</time>
      </trkpt>
      <trkpt lat="43.8672" lon="2.17924">
        <ele>307</ele>
        <time>2026-01-26T14:00:15.000Z</time>
      </trkpt>
      <trkpt lat="43.8672" lon="2.17931">
        <ele>308</ele>
        <time>2026-01-26T14:00:20.000Z</time>
      </trkpt>
      <trkpt lat="43.8672" lon="2.17938">
        <ele>308</ele>
        <time>2026-01-26T14:00:25.000Z</time>
      </trkpt>
      <trkpt lat="43.8672" lon="2.17942">
        <ele>307</ele>
        <time>2026-01-26T14:00:30.000Z</time>
      </trkpt>
      <trkpt lat="43.86721" lon="2.17949">
        <ele>308</ele>
        <time>2026-01-26T14:00:35.000Z</time>
      </trkpt>
      <trkpt lat="43.8672" lon="2.17955">
        <ele>307</ele>
        <time>2026-01-26T14:00:40.000Z</time>
      </trkpt>
      <trkpt lat="43.86721" lon="2.17957">
        <ele>307</ele>
        <time>2026-01-26T14:00:45.000Z</time>
      </trkpt>
      <trkpt lat="43.86722" lon="2.17965">
        <ele>308</ele>
        <time>2026-01-26T14:00:50.000Z</time>
      </trkpt>
      <trkpt lat="43.8672" lon="2.17973">
        <ele>306</ele>
        <time>2026-01-26T14:00:55.000Z</time>
      </trkpt>
      <trkpt lat="43.86719" lon="2.17979">
        <ele>307</ele>
        <time>2026-01-26T14:01:00.000Z</time>
      </trkpt>
      <trkpt lat="43.86722" lon="2.17986">
        <ele>307</ele>
        <time>2026-01-26T14:01:05.000Z</time>
      </trkpt>
      <trkpt lat="43.86722" lon="2.17993">
        <ele>307</ele>
        <time>2026-01-26T14:01:10.000Z</time>
      </trkpt>
      <trkpt lat="43.86722" lon="2.17998">
        <ele>307</ele>
        <time>2026-01-26T14:01:15.000Z</time>
      </trkpt>
      <trkpt lat="43.8672" lon="2.18002">
        <ele>306</ele>
        <time>2026-01-26T14:01:20.000Z</time>
      </trkpt>
      <trkpt lat="43.86723" lon="2.18007">
        <ele>305</ele>
        <time>2026-01-26T14:01:25.000Z</time>
      </trkpt>
      <trkpt lat="43.86722" lon="2.18013">
        <ele>304</ele>
        <time>2026-01-26T14:01:30.000Z</time>
      </trkpt>
      <trkpt lat="43.86722" lon="2.18017">
        <ele>302</ele>
        <time>2026-01-26T14:01:35.000Z</time>
      </trkpt>
      <trkpt lat="43.8672" lon="2.1802">
        <ele>302</ele>
        <time>2026-01-26T14:01:40.000Z</time>
      </trkpt>
      <trkpt lat="43.86719" lon="2.18024">
        <ele>303</ele>
        <time>2026-01-26T14:01:45.000Z</time>
      </trkpt>
      <trkpt lat="43.86719" lon="2.18032">
        <ele>303</ele>
        <time>2026-01-26T14:01:50.000Z</time>
      </trkpt>
      <trkpt lat="43.86717" lon="2.18035">
        <ele>304</ele>
        <time>2026-01-26T14:01:55.000Z</time>
      </trkpt>
      <trkpt lat="43.86717" lon="2.18034">
        <ele>305</ele>
        <time>2026-01-26T14:02:00.000Z</time>
      </trkpt>
      <trkpt lat="43.86718" lon="2.18035">
        <ele>304</ele>
        <time>2026-01-26T14:02:05.000Z</time>
      </trkpt>
      <trkpt lat="43.86718" lon="2.18036">
        <ele>303</ele>
        <time>2026-01-26T14:02:10.000Z</time>
      </trkpt>
      <trkpt lat="43.86719" lon="2.18035">
        <ele>302</ele>
        <time>2026-01-26T14:02:15.000Z</time>
      </trkpt>
      <trkpt lat="43.86719" lon="2.18034">
        <ele>302</ele>
        <time>2026-01-26T14:02:20.000Z</time>
      </trkpt>
      <trkpt lat="43.86719" lon="2.18034">
        <ele>303</ele>
        <time>2026-01-26T14:02:25.000Z</time>
      </trkpt>
      <trkpt lat="43.86719" lon="2.18035">
        <ele>304</ele>
        <time>2026-01-26T14:02:30.000Z</time>
      </trkpt>
      <trkpt lat="43.86719" lon="2.18035">
        <ele>304</ele>
        <time>2026-01-26T14:02:35.000Z</time>
      </trkpt>
      <trkpt lat="43.86719" lon="2.18035">
        <ele>304</ele>
        <time>2026-01-26T14:02:40.000Z</time>
      </trkpt>
      <trkpt lat="43.86719" lon="2.18035">
        <ele>304</ele>
        <time>2026-01-26T14:02:45.000Z</time>
      </trkpt>
      <trkpt lat="43.86719" lon="2.18035">
        <ele>304</ele>
        <time>2026-01-26T14:02:50.000Z</time>
      </trkpt>
      <trkpt lat="43.86718" lon="2.18035">
        <ele>304</ele>
        <time>2026-01-26T14:02:55.000Z</time>
      </trkpt>
      <trkpt lat="43.86718" lon="2.18037">
        <ele>303</ele>
        <time>2026-01-26T14:03:00.000Z</time>
      </trkpt>
      <trkpt lat="43.86718" lon="2.18039">
        <ele>303</ele>
        <time>2026-01-26T14:03:05.000Z</time>
      </trkpt>
      <trkpt lat="43.86719" lon="2.18042">
        <ele>304</ele>
        <time>2026-01-26T14:03:10.000Z</time>
      </trkpt>
      <trkpt lat="43.86718" lon="2.18043">
        <ele>305</ele>
        <time>2026-01-26T14:03:15.000Z</time>
      </trkpt>
      <trkpt lat="43.86718" lon="2.18043">
        <ele>304</ele>
        <time>2026-01-26T14:03:20.000Z</time>
      </trkpt>
      <trkpt lat="43.86718" lon="2.18043">
        <ele>305</ele>
        <time>2026-01-26T14:03:25.000Z</time>
      </trkpt>
      <trkpt lat="43.86718" lon="2.18043">
        <ele>303</ele>
        <time>2026-01-26T14:03:30.000Z</time>
      </trkpt>
      <trkpt lat="43.86717" lon="2.18044">
        <ele>303</ele>
        <time>2026-01-26T14:03:35.000Z</time>
      </trkpt>
      <trkpt lat="43.86719" lon="2.18048">
        <ele>305</ele>
        <time>2026-01-26T14:03:40.000Z</time>
      </trkpt>
      <trkpt lat="43.8672" lon="2.18054">
        <ele>305</ele>
        <time>2026-01-26T14:03:45.000Z</time>
      </trkpt>
      <trkpt lat="43.86722" lon="2.18061">
        <ele>305</ele>
        <time>2026-01-26T14:03:50.000Z</time>
      </trkpt>
      <trkpt lat="43.8672" lon="2.18065">
        <ele>307</ele>
        <time>2026-01-26T14:03:55.000Z</time>
      </trkpt>
      <trkpt lat="43.8672" lon="2.18067">
        <ele>308</ele>
        <time>2026-01-26T14:04:00.000Z</time>
      </trkpt>
      <trkpt lat="43.8672" lon="2.18069">
        <ele>306</ele>
        <time>2026-01-26T14:04:05.000Z</time>
      </trkpt>
      <trkpt lat="43.8672" lon="2.18073">
        <ele>306</ele>
        <time>2026-01-26T14:04:10.000Z</time>
      </trkpt>
      <trkpt lat="43.8672" lon="2.18077">
        <ele>305</ele>
        <time>2026-01-26T14:04:15.000Z</time>
      </trkpt>
      <trkpt lat="43.8672" lon="2.18084">
        <ele>306</ele>
        <time>2026-01-26T14:04:20.000Z</time>
      </trkpt>
      <trkpt lat="43.8672" lon="2.18087">
        <ele>306</ele>
        <time>2026-01-26T14:04:25.000Z</time>
      </trkpt>
      <trkpt lat="43.86721" lon="2.1809">
        <ele>307</ele>
        <time>2026-01-26T14:04:30.000Z</time>
      </trkpt>
      <trkpt lat="43.8672" lon="2.18091">
        <ele>306</ele>
        <time>2026-01-26T14:04:35.000Z</time>
      </trkpt>
      <trkpt lat="43.86719" lon="2.1809">
        <ele>306</ele>
        <time>2026-01-26T14:04:40.000Z</time>
      </trkpt>
      <trkpt lat="43.86721" lon="2.18094">
        <ele>307</ele>
        <time>2026-01-26T14:04:45.000Z</time>
      </trkpt>
      <trkpt lat="43.86722" lon="2.18102">
        <ele>308</ele>
        <time>2026-01-26T14:04:50.000Z</time>
      </trkpt>
      <trkpt lat="43.86723" lon="2.18105">
        <ele>309</ele>
        <time>2026-01-26T14:04:55.000Z</time>
      </trkpt>
      <trkpt lat="43.86723" lon="2.18112">
        <ele>309</ele>
        <time>2026-01-26T14:05:00.000Z</time>
      </trkpt>
      <trkpt lat="43.86721" lon="2.18119">
        <ele>309</ele>
        <time>2026-01-26T14:05:05.000Z</time>
      </trkpt>
      <trkpt lat="43.86722" lon="2.18122">
        <ele>308</ele>
        <time>2026-01-26T14:05:10.000Z</time>
      </trkpt>
      <trkpt lat="43.86721" lon="2.18126">
        <ele>308</ele>
        <time>2026-01-26T14:05:15.000Z</time>
      </trkpt>
      <trkpt lat="43.86721" lon="2.18131">
        <ele>307</ele>
        <time>2026-01-26T14:05:20.000Z</time>
      </trkpt>
      <trkpt lat="43.86721" lon="2.18133">
        <ele>307</ele>
        <time>2026-01-26T14:05:25.000Z</time>
      </trkpt>
      <trkpt lat="43.86722" lon="2.18137">
        <ele>308</ele>
        <time>2026-01-26T14:05:30.000Z</time>
      </trkpt>
      <trkpt lat="43.86723" lon="2.18144">
        <ele>307</ele>
        <time>2026-01-26T14:05:35.000Z</time>
      </trkpt>
      <trkpt lat="43.86723" lon="2.18147">
        <ele>305</ele>
        <time>2026-01-26T14:05:40.000Z</time>
      </trkpt>
      <trkpt lat="43.86722" lon="2.18152">
        <ele>306</ele>
        <time>2026-01-26T14:05:45.000Z</time>
      </trkpt>
      <trkpt lat="43.86719" lon="2.18152">
        <ele>306</ele>
        <time>2026-01-26T14:05:50.000Z</time>
      </trkpt>
      <trkpt lat="43.86716" lon="2.18153">
        <ele>307</ele>
        <time>2026-01-26T14:05:55.000Z</time>
      </trkpt>
      <trkpt lat="43.86716" lon="2.18153">
        <ele>307</ele>
        <time>2026-01-26T14:06:00.000Z</time>
      </trkpt>
      <trkpt lat="43.86717" lon="2.18156">
        <ele>306</ele>
        <time>2026-01-26T14:06:05.000Z</time>
      </trkpt>
      <trkpt lat="43.8672" lon="2.18161">
        <ele>306</ele>
        <time>2026-01-26T14:06:10.000Z</time>
      </trkpt>
      <trkpt lat="43.86722" lon="2.18167">
        <ele>306</ele>
        <time>2026-01-26T14:06:15.000Z</time>
      </trkpt>
      <trkpt lat="43.86721" lon="2.18174">
        <ele>306</ele>
        <time>2026-01-26T14:06:20.000Z</time>
      </trkpt>
      <trkpt lat="43.86721" lon="2.18181">
        <ele>308</ele>
        <time>2026-01-26T14:06:25.000Z</time>
      </trkpt>
      <trkpt lat="43.8672" lon="2.18189">
        <ele>308</ele>
        <time>2026-01-26T14:06:30.000Z</time>
      </trkpt>
      <trkpt lat="43.86721" lon="2.18193">
        <ele>309</ele>
        <time>2026-01-26T14:06:35.000Z</time>
      </trkpt>
      <trkpt lat="43.86721" lon="2.182">
        <ele>307</ele>
        <time>2026-01-26T14:06:40.000Z</time>
      </trkpt>
      <trkpt lat="43.86722" lon="2.18204">
        <ele>307</ele>
        <time>2026-01-26T14:06:45.000Z</time>
      </trkpt>
      <trkpt lat="43.86721" lon="2.1821">
        <ele>305</ele>
        <time>2026-01-26T14:06:50.000Z</time>
      </trkpt>
      <trkpt lat="43.86721" lon="2.18214">
        <ele>305</ele>
        <time>2026-01-26T14:06:55.000Z</time>
      </trkpt>
      <trkpt lat="43.86722" lon="2.1822">
        <ele>306</ele>
        <time>2026-01-26T14:07:00.000Z</time>
      </trkpt>
      <trkpt lat="43.86721" lon="2.18229">
        <ele>308</ele>
        <time>2026-01-26T14:07:05.000Z</time>
      </trkpt>
      <trkpt lat="43.86721" lon="2.18234">
        <ele>310</ele>
        <time>2026-01-26T14:07:10.000Z</time>
      </trkpt>
      <trkpt lat="43.8672" lon="2.18241">
        <ele>307</ele>
        <time>2026-01-26T14:07:15.000Z</time>
      </trkpt>
      <trkpt lat="43.86721" lon="2.18244">
        <ele>307</ele>
        <time>2026-01-26T14:07:20.000Z</time>
      </trkpt>
      <trkpt lat="43.86722" lon="2.18249">
        <ele>305</ele>
        <time>2026-01-26T14:07:25.000Z</time>
      </trkpt>
      <trkpt lat="43.86723" lon="2.18251">
        <ele>306</ele>
        <time>2026-01-26T14:07:30.000Z</time>
      </trkpt>
      <trkpt lat="43.86724" lon="2.18256">
        <ele>306</ele>
        <time>2026-01-26T14:07:35.000Z</time>
      </trkpt>
      <trkpt lat="43.86723" lon="2.18262">
        <ele>306</ele>
        <time>2026-01-26T14:07:40.000Z</time>
      </trkpt>
      <trkpt lat="43.8672" lon="2.18264">
        <ele>307</ele>
        <time>2026-01-26T14:07:45.000Z</time>
      </trkpt>
      <trkpt lat="43.86719" lon="2.18264">
        <ele>309</ele>
        <time>2026-01-26T14:07:50.000Z</time>
      </trkpt>
      <trkpt lat="43.86721" lon="2.18271">
        <ele>307</ele>
        <time>2026-01-26T14:07:55.000Z</time>
      </trkpt>
      <trkpt lat="43.8672" lon="2.18278">
        <ele>309</ele>
        <time>2026-01-26T14:08:00.000Z</time>
      </trkpt>
      <trkpt lat="43.86721" lon="2.18283">
        <ele>308</ele>
        <time>2026-01-26T14:08:05.000Z</time>
      </trkpt>
      <trkpt lat="43.86721" lon="2.18291">
        <ele>308</ele>
        <time>2026-01-26T14:08:10.000Z</time>
      </trkpt>
      <trkpt lat="43.8672" lon="2.18297">
        <ele>307</ele>
        <time>2026-01-26T14:08:15.000Z</time>
      </trkpt>
      <trkpt lat="43.86723" lon="2.18301">
        <ele>308</ele>
        <time>2026-01-26T14:08:20.000Z</time>
      </trkpt>
      <trkpt lat="43.86721" lon="2.18307">
        <ele>309</ele>
        <time>2026-01-26T14:08:25.000Z</time>
      </trkpt>
      <trkpt lat="43.8672" lon="2.18314">
        <ele>309</ele>
        <time>2026-01-26T14:08:30.000Z</time>
      </trkpt>
      <trkpt lat="43.8672" lon="2.18319">
        <ele>309</ele>
        <time>2026-01-26T14:08:35.000Z</time>
      </trkpt>
      <trkpt lat="43.86719" lon="2.18325">
        <ele>307</ele>
        <time>2026-01-26T14:08:40.000Z</time>
      </trkpt>
      <trkpt lat="43.86718" lon="2.18331">
        <ele>306</ele>
        <time>2026-01-26T14:08:45.000Z</time>
      </trkpt>
      <trkpt lat="43.86718" lon="2.18336">
        <ele>305</ele>
        <time>2026-01-26T14:08:50.000Z</time>
      </trkpt>
      <trkpt lat="43.86718" lon="2.18341">
        <ele>306</ele>
        <time>2026-01-26T14:08:55.000Z</time>
      </trkpt>
      <trkpt lat="43.86718" lon="2.18348">
        <ele>306</ele>
        <time>2026-01-26T14:09:00.000Z</time>
      </trkpt>
      <trkpt lat="43.86717" lon="2.18355">
        <ele>308</ele>
        <time>2026-01-26T14:09:05.000Z</time>
      </trkpt>
      <trkpt lat="43.86716" lon="2.1836">
        <ele>308</ele>
        <time>2026-01-26T14:09:10.000Z</time>
      </trkpt>
      <trkpt lat="43.86717" lon="2.18366">
        <ele>309</ele>
        <time>2026-01-26T14:09:15.000Z</time>
      </trkpt>
      <trkpt lat="43.86717" lon="2.1837">
        <ele>308</ele>
        <time>2026-01-26T14:09:20.000Z</time>
      </trkpt>
      <trkpt lat="43.86717" lon="2.18375">
        <ele>308</ele>
        <time>2026-01-26T14:09:25.000Z</time>
      </trkpt>
      <trkpt lat="43.86716" lon="2.1838">
        <ele>308</ele>
        <time>2026-01-26T14:09:30.000Z</time>
      </trkpt>
      <trkpt lat="43.86716" lon="2.18386">
        <ele>309</ele>
        <time>2026-01-26T14:09:35.000Z</time>
      </trkpt>
      <trkpt lat="43.86715" lon="2.18391">
        <ele>307</ele>
        <time>2026-01-26T14:09:40.000Z</time>
      </trkpt>
      <trkpt lat="43.86714" lon="2.18396">
        <ele>309</ele>
        <time>2026-01-26T14:09:45.000Z</time>
      </trkpt>
      <trkpt lat="43.86714" lon="2.18402">
        <ele>308</ele>
        <time>2026-01-26T14:09:50.000Z</time>
      </trkpt>
      <trkpt lat="43.86712" lon="2.18406">
        <ele>308</ele>
        <time>2026-01-26T14:09:55.000Z</time>
      </trkpt>
      <trkpt lat="43.8671" lon="2.18412">
        <ele>307</ele>
        <time>2026-01-26T14:10:00.000Z</time>
      </trkpt>
      <trkpt lat="43.86711" lon="2.18416">
        <ele>308</ele>
        <time>2026-01-26T14:10:05.000Z</time>
      </trkpt>
      <trkpt lat="43.86709" lon="2.18422">
        <ele>308</ele>
        <time>2026-01-26T14:10:10.000Z</time>
      </trkpt>
      <trkpt lat="43.86708" lon="2.18428">
        <ele>308</ele>
        <time>2026-01-26T14:10:15.000Z</time>
      </trkpt>
      <trkpt lat="43.86707" lon="2.18434">
        <ele>309</ele>
        <time>2026-01-26T14:10:20.000Z</time>
      </trkpt>
      <trkpt lat="43.86706" lon="2.18441">
        <ele>310</ele>
        <time>2026-01-26T14:10:25.000Z</time>
      </trkpt>
      <trkpt lat="43.86705" lon="2.18446">
        <ele>311</ele>
        <time>2026-01-26T14:10:30.000Z</time>
      </trkpt>
      <trkpt lat="43.86704" lon="2.18452">
        <ele>311</ele>
        <time>2026-01-26T14:10:35.000Z</time>
      </trkpt>
      <trkpt lat="43.86701" lon="2.18455">
        <ele>311</ele>
        <time>2026-01-26T14:10:40.000Z</time>
      </trkpt>
      <trkpt lat="43.86699" lon="2.1846">
        <ele>310</ele>
        <time>2026-01-26T14:10:45.000Z</time>
      </trkpt>
      <trkpt lat="43.86698" lon="2.18466">
        <ele>309</ele>
        <time>2026-01-26T14:10:50.000Z</time>
      </trkpt>
      <trkpt lat="43.86696" lon="2.18471">
        <ele>309</ele>
        <time>2026-01-26T14:10:55.000Z</time>
      </trkpt>
      <trkpt lat="43.86694" lon="2.18477">
        <ele>310</ele>
        <time>2026-01-26T14:11:00.000Z</time>
      </trkpt>
      <trkpt lat="43.86693" lon="2.18484">
        <ele>310</ele>
        <time>2026-01-26T14:11:05.000Z</time>
      </trkpt>
      <trkpt lat="43.86691" lon="2.18489">
        <ele>313</ele>
        <time>2026-01-26T14:11:10.000Z</time>
      </trkpt>
      <trkpt lat="43.86689" lon="2.18494">
        <ele>313</ele>
        <time>2026-01-26T14:11:15.000Z</time>
      </trkpt>
      <trkpt lat="43.86687" lon="2.18499">
        <ele>313</ele>
        <time>2026-01-26T14:11:20.000Z</time>
      </trkpt>
      <trkpt lat="43.86686" lon="2.18504">
        <ele>314</ele>
        <time>2026-01-26T14:11:25.000Z</time>
      </trkpt>
      <trkpt lat="43.86683" lon="2.18511">
        <ele>313</ele>
        <time>2026-01-26T14:11:30.000Z</time>
      </trkpt>
      <trkpt lat="43.86683" lon="2.18516">
        <ele>313</ele>
        <time>2026-01-26T14:11:35.000Z</time>
      </trkpt>
      <trkpt lat="43.86681" lon="2.18521">
        <ele>314</ele>
        <time>2026-01-26T14:11:40.000Z</time>
      </trkpt>
      <trkpt lat="43.86678" lon="2.18527">
        <ele>315</ele>
        <time>2026-01-26T14:11:45.000Z</time>
      </trkpt>
      <trkpt lat="43.86672" lon="2.18531">
        <ele>315</ele>
        <time>2026-01-26T14:11:50.000Z</time>
      </trkpt>
      <trkpt lat="43.8667" lon="2.18535">
        <ele>316</ele>
        <time>2026-01-26T14:11:55.000Z</time>
      </trkpt>
      <trkpt lat="43.86667" lon="2.18541">
        <ele>314</ele>
        <time>2026-01-26T14:12:00.000Z</time>
      </trkpt>
      <trkpt lat="43.86665" lon="2.18546">
        <ele>313</ele>
        <time>2026-01-26T14:12:05.000Z</time>
      </trkpt>
      <trkpt lat="43.86662" lon="2.18552">
        <ele>314</ele>
        <time>2026-01-26T14:12:10.000Z</time>
      </trkpt>
      <trkpt lat="43.8666" lon="2.18557">
        <ele>314</ele>
        <time>2026-01-26T14:12:15.000Z</time>
      </trkpt>
      <trkpt lat="43.86657" lon="2.18561">
        <ele>315</ele>
        <time>2026-01-26T14:12:20.000Z</time>
      </trkpt>
      <trkpt lat="43.86654" lon="2.18565">
        <ele>314</ele>
        <time>2026-01-26T14:12:25.000Z</time>
      </trkpt>
      <trkpt lat="43.86649" lon="2.1857">
        <ele>313</ele>
        <time>2026-01-26T14:12:30.000Z</time>
      </trkpt>
      <trkpt lat="43.86647" lon="2.18574">
        <ele>315</ele>
        <time>2026-01-26T14:12:35.000Z</time>
      </trkpt>
      <trkpt lat="43.86646" lon="2.18578">
        <ele>316</ele>
        <time>2026-01-26T14:12:40.000Z</time>
      </trkpt>
      <trkpt lat="43.86643" lon="2.18583">
        <ele>315</ele>
        <time>2026-01-26T14:12:45.000Z</time>
      </trkpt>
      <trkpt lat="43.8664" lon="2.18588">
        <ele>314</ele>
        <time>2026-01-26T14:12:50.000Z</time>
      </trkpt>
      <trkpt lat="43.86636" lon="2.18591">
        <ele>316</ele>
        <time>2026-01-26T14:12:55.000Z</time>
      </trkpt>
      <trkpt lat="43.86633" lon="2.18595">
        <ele>314</ele>
        <time>2026-01-26T14:13:00.000Z</time>
      </trkpt>
      <trkpt lat="43.8663" lon="2.18597">
        <ele>314</ele>
        <time>2026-01-26T14:13:05.000Z</time>
      </trkpt>
      <trkpt lat="43.86627" lon="2.18603">
        <ele>314</ele>
        <time>2026-01-26T14:13:10.000Z</time>
      </trkpt>
      <trkpt lat="43.86623" lon="2.18607">
        <ele>313</ele>
        <time>2026-01-26T14:13:15.000Z</time>
      </trkpt>
      <trkpt lat="43.8662" lon="2.18612">
        <ele>313</ele>
        <time>2026-01-26T14:13:20.000Z</time>
      </trkpt>
      <trkpt lat="43.86616" lon="2.18616">
        <ele>314</ele>
        <time>2026-01-26T14:13:25.000Z</time>
      </trkpt>
      <trkpt lat="43.86612" lon="2.18619">
        <ele>314</ele>
        <time>2026-01-26T14:13:30.000Z</time>
      </trkpt>
      <trkpt lat="43.86609" lon="2.18622">
        <ele>313</ele>
        <time>2026-01-26T14:13:35.000Z</time>
      </trkpt>
      <trkpt lat="43.86605" lon="2.18625">
        <ele>314</ele>
        <time>2026-01-26T14:13:40.000Z</time>
      </trkpt>
      <trkpt lat="43.86602" lon="2.18627">
        <ele>312</ele>
        <time>2026-01-26T14:13:45.000Z</time>
      </trkpt>
      <trkpt lat="43.86598" lon="2.1863">
        <ele>312</ele>
        <time>2026-01-26T14:13:50.000Z</time>
      </trkpt>
      <trkpt lat="43.86594" lon="2.18635">
        <ele>312</ele>
        <time>2026-01-26T14:13:55.000Z</time>
      </trkpt>
      <trkpt lat="43.8659" lon="2.1864">
        <ele>313</ele>
        <time>2026-01-26T14:14:00.000Z</time>
      </trkpt>
      <trkpt lat="43.86586" lon="2.18643">
        <ele>313</ele>
        <time>2026-01-26T14:14:05.000Z</time>
      </trkpt>
      <trkpt lat="43.86582" lon="2.18644">
        <ele>312</ele>
        <time>2026-01-26T14:14:10.000Z</time>
      </trkpt>
      <trkpt lat="43.86579" lon="2.18645">
        <ele>313</ele>
        <time>2026-01-26T14:14:15.000Z</time>
      </trkpt>
      <trkpt lat="43.86575" lon="2.18647">
        <ele>312</ele>
        <time>2026-01-26T14:14:20.000Z</time>
      </trkpt>
      <trkpt lat="43.86571" lon="2.1865">
        <ele>313</ele>
        <time>2026-01-26T14:14:25.000Z</time>
      </trkpt>
      <trkpt lat="43.86569" lon="2.18653">
        <ele>313</ele>
        <time>2026-01-26T14:14:30.000Z</time>
      </trkpt>
      <trkpt lat="43.86564" lon="2.18655">
        <ele>313</ele>
        <time>2026-01-26T14:14:35.000Z</time>
      </trkpt>
      <trkpt lat="43.86561" lon="2.18658">
        <ele>313</ele>
        <time>2026-01-26T14:14:40.000Z</time>
      </trkpt>
      <trkpt lat="43.86557" lon="2.1866">
        <ele>314</ele>
        <time>2026-01-26T14:14:45.000Z</time>
      </trkpt>
      <trkpt lat="43.86553" lon="2.1866">
        <ele>314</ele>
        <time>2026-01-26T14:14:50.000Z</time>
      </trkpt>
      <trkpt lat="43.86551" lon="2.18661">
        <ele>312</ele>
        <time>2026-01-26T14:14:55.000Z</time>
      </trkpt>
      <trkpt lat="43.86547" lon="2.18662">
        <ele>312</ele>
        <time>2026-01-26T14:15:00.000Z</time>
      </trkpt>
      <trkpt lat="43.86543" lon="2.18664">
        <ele>311</ele>
        <time>2026-01-26T14:15:05.000Z</time>
      </trkpt>
      <trkpt lat="43.8654" lon="2.18667">
        <ele>313</ele>
        <time>2026-01-26T14:15:10.000Z</time>
      </trkpt>
      <trkpt lat="43.86537" lon="2.18669">
        <ele>313</ele>
        <time>2026-01-26T14:15:15.000Z</time>
      </trkpt>
      <trkpt lat="43.86535" lon="2.1867">
        <ele>314</ele>
        <time>2026-01-26T14:15:20.000Z</time>
      </trkpt>
      <trkpt lat="43.86531" lon="2.18672">
        <ele>314</ele>
        <time>2026-01-26T14:15:25.000Z</time>
      </trkpt>
      <trkpt lat="43.86526" lon="2.18672">
        <ele>315</ele>
        <time>2026-01-26T14:15:30.000Z</time>
      </trkpt>
      <trkpt lat="43.86521" lon="2.18675">
        <ele>315</ele>
        <time>2026-01-26T14:15:35.000Z</time>
      </trkpt>
      <trkpt lat="43.86518" lon="2.18676">
        <ele>315</ele>
        <time>2026-01-26T14:15:40.000Z</time>
      </trkpt>
      <trkpt lat="43.86514" lon="2.18681">
        <ele>314</ele>
        <time>2026-01-26T14:15:45.000Z</time>
      </trkpt>
      <trkpt lat="43.8651" lon="2.18682">
        <ele>313</ele>
        <time>2026-01-26T14:15:50.000Z</time>
      </trkpt>
      <trkpt lat="43.86506" lon="2.18683">
        <ele>313</ele>
        <time>2026-01-26T14:15:55.000Z</time>
      </trkpt>
      <trkpt lat="43.86501" lon="2.18685">
        <ele>313</ele>
        <time>2026-01-26T14:16:00.000Z</time>
      </trkpt>
      <trkpt lat="43.86496" lon="2.18687">
        <ele>314</ele>
        <time>2026-01-26T14:16:05.000Z</time>
      </trkpt>
      <trkpt lat="43.86493" lon="2.18687">
        <ele>313</ele>
        <time>2026-01-26T14:16:10.000Z</time>
      </trkpt>
      <trkpt lat="43.86488" lon="2.18691">
        <ele>313</ele>
        <time>2026-01-26T14:16:15.000Z</time>
      </trkpt>
      <trkpt lat="43.86483" lon="2.18695">
        <ele>312</ele>
        <time>2026-01-26T14:16:20.000Z</time>
      </trkpt>
      <trkpt lat="43.86479" lon="2.18696">
        <ele>311</ele>
        <time>2026-01-26T14:16:25.000Z</time>
      </trkpt>
      <trkpt lat="43.86476" lon="2.18695">
        <ele>312</ele>
        <time>2026-01-26T14:16:30.000Z</time>
      </trkpt>
      <trkpt lat="43.86471" lon="2.18691">
        <ele>311</ele>
        <time>2026-01-26T14:16:35.000Z</time>
      </trkpt>
      <trkpt lat="43.86467" lon="2.1869">
        <ele>312</ele>
        <time>2026-01-26T14:16:40.000Z</time>
      </trkpt>
      <trkpt lat="43.86461" lon="2.18692">
        <ele>312</ele>
        <time>2026-01-26T14:16:45.000Z</time>
      </trkpt>
      <trkpt lat="43.86459" lon="2.18694">
        <ele>314</ele>
        <time>2026-01-26T14:16:50.000Z</time>
      </trkpt>
      <trkpt lat="43.86456" lon="2.18695">
        <ele>314</ele>
        <time>2026-01-26T14:16:55.000Z</time>
      </trkpt>
      <trkpt lat="43.86455" lon="2.18698">
        <ele>315</ele>
        <time>2026-01-26T14:17:00.000Z</time>
      </trkpt>
      <trkpt lat="43.86453" lon="2.18697">
        <ele>315</ele>
        <time>2026-01-26T14:17:05.000Z</time>
      </trkpt>
      <trkpt lat="43.86453" lon="2.18697">
        <ele>315</ele>
        <time>2026-01-26T14:17:10.000Z</time>
      </trkpt>
      <trkpt lat="43.86453" lon="2.18697">
        <ele>315</ele>
        <time>2026-01-26T14:17:15.000Z</time>
      </trkpt>
      <trkpt lat="43.86453" lon="2.18697">
        <ele>315</ele>
        <time>2026-01-26T14:17:20.000Z</time>
      </trkpt>
      <trkpt lat="43.86453" lon="2.18697">
        <ele>315</ele>
        <time>2026-01-26T14:17:25.000Z</time>
      </trkpt>
      <trkpt lat="43.8645" lon="2.18699">
        <ele>316</ele>
        <time>2026-01-26T14:17:30.000Z</time>
      </trkpt>
      <trkpt lat="43.86448" lon="2.187">
        <ele>317</ele>
        <time>2026-01-26T14:17:35.000Z</time>
      </trkpt>
      <trkpt lat="43.86449" lon="2.187">
        <ele>317</ele>
        <time>2026-01-26T14:17:40.000Z</time>
      </trkpt>
      <trkpt lat="43.86448" lon="2.18702">
        <ele>314</ele>
        <time>2026-01-26T14:17:45.000Z</time>
      </trkpt>
      <trkpt lat="43.86449" lon="2.18702">
        <ele>313</ele>
        <time>2026-01-26T14:17:50.000Z</time>
      </trkpt>
      <trkpt lat="43.8645" lon="2.18706">
        <ele>313</ele>
        <time>2026-01-26T14:17:55.000Z</time>
      </trkpt>
      <trkpt lat="43.8645" lon="2.18707">
        <ele>313</ele>
        <time>2026-01-26T14:18:00.000Z</time>
      </trkpt>
      <trkpt lat="43.86449" lon="2.18707">
        <ele>313</ele>
        <time>2026-01-26T14:18:05.000Z</time>
      </trkpt>
      <trkpt lat="43.86448" lon="2.18707">
        <ele>313</ele>
        <time>2026-01-26T14:18:10.000Z</time>
      </trkpt>
      <trkpt lat="43.86448" lon="2.18704">
        <ele>312</ele>
        <time>2026-01-26T14:18:15.000Z</time>
      </trkpt>
      <trkpt lat="43.8645" lon="2.18704">
        <ele>312</ele>
        <time>2026-01-26T14:18:20.000Z</time>
      </trkpt>
      <trkpt lat="43.86451" lon="2.18704">
        <ele>312</ele>
        <time>2026-01-26T14:18:25.000Z</time>
      </trkpt>
      <trkpt lat="43.86452" lon="2.18707">
        <ele>313</ele>
        <time>2026-01-26T14:18:30.000Z</time>
      </trkpt>
      <trkpt lat="43.86452" lon="2.18707">
        <ele>314</ele>
        <time>2026-01-26T14:18:35.000Z</time>
      </trkpt>
      <trkpt lat="43.86453" lon="2.18708">
        <ele>314</ele>
        <time>2026-01-26T14:18:40.000Z</time>
      </trkpt>
      <trkpt lat="43.86453" lon="2.18706">
        <ele>312</ele>
        <time>2026-01-26T14:18:45.000Z</time>
      </trkpt>
      <trkpt lat="43.86454" lon="2.18704">
        <ele>313</ele>
        <time>2026-01-26T14:18:50.000Z</time>
      </trkpt>
      <trkpt lat="43.86454" lon="2.18704">
        <ele>313</ele>
        <time>2026-01-26T14:18:55.000Z</time>
      </trkpt>
      <trkpt lat="43.86454" lon="2.18705">
        <ele>312</ele>
        <time>2026-01-26T14:19:00.000Z</time>
      </trkpt>
      <trkpt lat="43.86454" lon="2.18706">
        <ele>312</ele>
        <time>2026-01-26T14:19:05.000Z</time>
      </trkpt>
      <trkpt lat="43.86452" lon="2.18708">
        <ele>313</ele>
        <time>2026-01-26T14:19:10.000Z</time>
      </trkpt>
      <trkpt lat="43.86452" lon="2.18707">
        <ele>314</ele>
        <time>2026-01-26T14:19:15.000Z</time>
      </trkpt>
      <trkpt lat="43.86452" lon="2.18709">
        <ele>315</ele>
        <time>2026-01-26T14:19:20.000Z</time>
      </trkpt>
      <trkpt lat="43.86453" lon="2.18707">
        <ele>314</ele>
        <time>2026-01-26T14:19:25.000Z</time>
      </trkpt>
      <trkpt lat="43.86453" lon="2.18707">
        <ele>313</ele>
        <time>2026-01-26T14:19:30.000Z</time>
      </trkpt>
      <trkpt lat="43.86453" lon="2.18707">
        <ele>314</ele>
        <time>2026-01-26T14:19:35.000Z</time>
      </trkpt>
      <trkpt lat="43.86453" lon="2.18707">
        <ele>314</ele>
        <time>2026-01-26T14:19:40.000Z</time>
      </trkpt>
      <trkpt lat="43.86453" lon="2.18707">
        <ele>314</ele>
        <time>2026-01-26T14:19:45.000Z</time>
      </trkpt>
      <trkpt lat="43.86453" lon="2.18707">
        <ele>314</ele>
        <time>2026-01-26T14:19:50.000Z</time>
      </trkpt>
      <trkpt lat="43.86453" lon="2.18707">
        <ele>314</ele>
        <time>2026-01-26T14:19:55.000Z</time>
      </trkpt>
      <trkpt lat="43.86453" lon="2.18707">
        <ele>314</ele>
        <time>2026-01-26T14:20:00.000Z</time>
      </trkpt>
      <trkpt lat="43.86453" lon="2.18707">
        <ele>314</ele>
        <time>2026-01-26T14:20:05.000Z</time>
      </trkpt>
      <trkpt lat="43.86453" lon="2.18708">
        <ele>314</ele>
        <time>2026-01-26T14:20:10.000Z</time>
      </trkpt>
      <trkpt lat="43.86452" lon="2.18707">
        <ele>314</ele>
        <time>2026-01-26T14:20:15.000Z</time>
      </trkpt>
      <trkpt lat="43.86453" lon="2.18705">
        <ele>314</ele>
        <time>2026-01-26T14:20:20.000Z</time>
      </trkpt>
      <trkpt lat="43.86453" lon="2.18705">
        <ele>313</ele>
        <time>2026-01-26T14:20:25.000Z</time>
      </trkpt>
      <trkpt lat="43.86452" lon="2.18704">
        <ele>315</ele>
        <time>2026-01-26T14:20:30.000Z</time>
      </trkpt>
      <trkpt lat="43.86452" lon="2.18705">
        <ele>314</ele>
        <time>2026-01-26T14:20:35.000Z</time>
      </trkpt>
      <trkpt lat="43.86452" lon="2.18705">
        <ele>312</ele>
        <time>2026-01-26T14:20:40.000Z</time>
      </trkpt>
      <trkpt lat="43.86451" lon="2.18706">
        <ele>310</ele>
        <time>2026-01-26T14:20:45.000Z</time>
      </trkpt>
      <trkpt lat="43.86451" lon="2.18706">
        <ele>311</ele>
        <time>2026-01-26T14:20:50.000Z</time>
      </trkpt>
      <trkpt lat="43.86451" lon="2.18706">
        <ele>309</ele>
        <time>2026-01-26T14:20:55.000Z</time>
      </trkpt>
      <trkpt lat="43.86451" lon="2.18706">
        <ele>309</ele>
        <time>2026-01-26T14:21:00.000Z</time>
      </trkpt>
      <trkpt lat="43.86451" lon="2.18706">
        <ele>309</ele>
        <time>2026-01-26T14:21:05.000Z</time>
      </trkpt>
      <trkpt lat="43.86451" lon="2.18707">
        <ele>311</ele>
        <time>2026-01-26T14:21:10.000Z</time>
      </trkpt>
      <trkpt lat="43.86451" lon="2.18706">
        <ele>313</ele>
        <time>2026-01-26T14:21:15.000Z</time>
      </trkpt>
      <trkpt lat="43.86451" lon="2.18706">
        <ele>311</ele>
        <time>2026-01-26T14:21:20.000Z</time>
      </trkpt>
      <trkpt lat="43.86451" lon="2.18705">
        <ele>311</ele>
        <time>2026-01-26T14:21:25.000Z</time>
      </trkpt>
      <trkpt lat="43.8645" lon="2.18706">
        <ele>312</ele>
        <time>2026-01-26T14:21:30.000Z</time>
      </trkpt>
      <trkpt lat="43.86448" lon="2.18706">
        <ele>312</ele>
        <time>2026-01-26T14:21:35.000Z</time>
      </trkpt>
      <trkpt lat="43.86449" lon="2.18707">
        <ele>312</ele>
        <time>2026-01-26T14:21:40.000Z</time>
      </trkpt>
      <trkpt lat="43.86449" lon="2.18707">
        <ele>312</ele>
        <time>2026-01-26T14:21:45.000Z</time>
      </trkpt>
      <trkpt lat="43.86449" lon="2.18707">
        <ele>312</ele>
        <time>2026-01-26T14:21:50.000Z</time>
      </trkpt>
      <trkpt lat="43.86449" lon="2.18707">
        <ele>312</ele>
        <time>2026-01-26T14:21:55.000Z</time>
      </trkpt>
      <trkpt lat="43.86449" lon="2.18707">
        <ele>312</ele>
        <time>2026-01-26T14:22:00.000Z</time>
      </trkpt>
      <trkpt lat="43.86449" lon="2.18707">
        <ele>312</ele>
        <time>2026-01-26T14:22:05.000Z</time>
      </trkpt>
      <trkpt lat="43.86449" lon="2.18707">
        <ele>312</ele>
        <time>2026-01-26T14:22:10.000Z</time>
      </trkpt>
      <trkpt lat="43.86449" lon="2.18707">
        <ele>313</ele>
        <time>2026-01-26T14:22:15.000Z</time>
      </trkpt>
      <trkpt lat="43.86449" lon="2.18706">
        <ele>312</ele>
        <time>2026-01-26T14:22:20.000Z</time>
      </trkpt>
      <trkpt lat="43.86449" lon="2.18707">
        <ele>314</ele>
        <time>2026-01-26T14:22:25.000Z</time>
      </trkpt>
      <trkpt lat="43.8645" lon="2.18707">
        <ele>315</ele>
        <time>2026-01-26T14:22:30.000Z</time>
      </trkpt>
      <trkpt lat="43.8645" lon="2.18707">
        <ele>316</ele>
        <time>2026-01-26T14:22:35.000Z</time>
      </trkpt>
      <trkpt lat="43.86449" lon="2.18707">
        <ele>313</ele>
        <time>2026-01-26T14:22:40.000Z</time>
      </trkpt>
      <trkpt lat="43.86448" lon="2.18709">
        <ele>313</ele>
        <time>2026-01-26T14:22:45.000Z</time>
      </trkpt>
      <trkpt lat="43.86448" lon="2.18709">
        <ele>314</ele>
        <time>2026-01-26T14:22:50.000Z</time>
      </trkpt>
      <trkpt lat="43.86449" lon="2.18709">
        <ele>314</ele>
        <time>2026-01-26T14:22:55.000Z</time>
      </trkpt>
      <trkpt lat="43.8645" lon="2.18711">
        <ele>312</ele>
        <time>2026-01-26T14:23:00.000Z</time>
      </trkpt>
      <trkpt lat="43.86452" lon="2.1871">
        <ele>312</ele>
        <time>2026-01-26T14:23:05.000Z</time>
      </trkpt>
      <trkpt lat="43.86451" lon="2.1871">
        <ele>313</ele>
        <time>2026-01-26T14:23:10.000Z</time>
      </trkpt>
      <trkpt lat="43.86452" lon="2.18709">
        <ele>313</ele>
        <time>2026-01-26T14:23:15.000Z</time>
      </trkpt>
      <trkpt lat="43.86453" lon="2.18708">
        <ele>313</ele>
        <time>2026-01-26T14:23:20.000Z</time>
      </trkpt>
      <trkpt lat="43.86455" lon="2.18707">
        <ele>313</ele>
        <time>2026-01-26T14:23:25.000Z</time>
      </trkpt>
      <trkpt lat="43.86457" lon="2.18704">
        <ele>314</ele>
        <time>2026-01-26T14:23:30.000Z</time>
      </trkpt>
      <trkpt lat="43.86459" lon="2.187">
        <ele>314</ele>
        <time>2026-01-26T14:23:35.000Z</time>
      </trkpt>
      <trkpt lat="43.86459" lon="2.18701">
        <ele>312</ele>
        <time>2026-01-26T14:23:40.000Z</time>
      </trkpt>
      <trkpt lat="43.86459" lon="2.18701">
        <ele>313</ele>
        <time>2026-01-26T14:23:45.000Z</time>
      </trkpt>
      <trkpt lat="43.86457" lon="2.18699">
        <ele>314</ele>
        <time>2026-01-26T14:23:50.000Z</time>
      </trkpt>
      <trkpt lat="43.86456" lon="2.18697">
        <ele>317</ele>
        <time>2026-01-26T14:23:55.000Z</time>
      </trkpt>
      <trkpt lat="43.86454" lon="2.18697">
        <ele>317</ele>
        <time>2026-01-26T14:24:00.000Z</time>
      </trkpt>
      <trkpt lat="43.86448" lon="2.18701">
        <ele>316</ele>
        <time>2026-01-26T14:24:05.000Z</time>
      </trkpt>
      <trkpt lat="43.86447" lon="2.18704">
        <ele>317</ele>
        <time>2026-01-26T14:24:10.000Z</time>
      </trkpt>
      <trkpt lat="43.86445" lon="2.18703">
        <ele>314</ele>
        <time>2026-01-26T14:24:15.000Z</time>
      </trkpt>
      <trkpt lat="43.8644" lon="2.18703">
        <ele>314</ele>
        <time>2026-01-26T14:24:20.000Z</time>
      </trkpt>
      <trkpt lat="43.86436" lon="2.18707">
        <ele>315</ele>
        <time>2026-01-26T14:24:25.000Z</time>
      </trkpt>
      <trkpt lat="43.86432" lon="2.18707">
        <ele>315</ele>
        <time>2026-01-26T14:24:30.000Z</time>
      </trkpt>
      <trkpt lat="43.86429" lon="2.18709">
        <ele>316</ele>
        <time>2026-01-26T14:24:35.000Z</time>
      </trkpt>
      <trkpt lat="43.86431" lon="2.18708">
        <ele>314</ele>
        <time>2026-01-26T14:24:40.000Z</time>
      </trkpt>
      <trkpt lat="43.86435" lon="2.18705">
        <ele>314</ele>
        <time>2026-01-26T14:24:45.000Z</time>
      </trkpt>
      <trkpt lat="43.86441" lon="2.18703">
        <ele>315</ele>
        <time>2026-01-26T14:24:50.000Z</time>
      </trkpt>
      <trkpt lat="43.86445" lon="2.18702">
        <ele>315</ele>
        <time>2026-01-26T14:24:55.000Z</time>
      </trkpt>
      <trkpt lat="43.86451" lon="2.187">
        <ele>316</ele>
        <time>2026-01-26T14:25:00.000Z</time>
      </trkpt>
      <trkpt lat="43.86456" lon="2.18697">
        <ele>315</ele>
        <time>2026-01-26T14:25:05.000Z</time>
      </trkpt>
      <trkpt lat="43.86462" lon="2.18695">
        <ele>315</ele>
        <time>2026-01-26T14:25:10.000Z</time>
      </trkpt>
      <trkpt lat="43.86464" lon="2.18693">
        <ele>315</ele>
        <time>2026-01-26T14:25:15.000Z</time>
      </trkpt>
      <trkpt lat="43.86465" lon="2.18691">
        <ele>314</ele>
        <time>2026-01-26T14:25:20.000Z</time>
      </trkpt>
      <trkpt lat="43.86469" lon="2.18691">
        <ele>315</ele>
        <time>2026-01-26T14:25:25.000Z</time>
      </trkpt>
      <trkpt lat="43.86471" lon="2.18691">
        <ele>314</ele>
        <time>2026-01-26T14:25:30.000Z</time>
      </trkpt>
      <trkpt lat="43.86474" lon="2.18693">
        <ele>315</ele>
        <time>2026-01-26T14:25:35.000Z</time>
      </trkpt>
      <trkpt lat="43.86477" lon="2.18694">
        <ele>313</ele>
        <time>2026-01-26T14:25:40.000Z</time>
      </trkpt>
      <trkpt lat="43.86479" lon="2.18696">
        <ele>314</ele>
        <time>2026-01-26T14:25:45.000Z</time>
      </trkpt>
      <trkpt lat="43.86483" lon="2.18694">
        <ele>316</ele>
        <time>2026-01-26T14:25:50.000Z</time>
      </trkpt>
      <trkpt lat="43.86484" lon="2.18693">
        <ele>316</ele>
        <time>2026-01-26T14:25:55.000Z</time>
      </trkpt>
      <trkpt lat="43.86488" lon="2.18693">
        <ele>316</ele>
        <time>2026-01-26T14:26:00.000Z</time>
      </trkpt>
      <trkpt lat="43.86491" lon="2.1869">
        <ele>315</ele>
        <time>2026-01-26T14:26:05.000Z</time>
      </trkpt>
      <trkpt lat="43.86494" lon="2.18688">
        <ele>317</ele>
        <time>2026-01-26T14:26:10.000Z</time>
      </trkpt>
      <trkpt lat="43.86497" lon="2.18686">
        <ele>318</ele>
        <time>2026-01-26T14:26:15.000Z</time>
      </trkpt>
      <trkpt lat="43.86498" lon="2.18685">
        <ele>317</ele>
        <time>2026-01-26T14:26:20.000Z</time>
      </trkpt>
      <trkpt lat="43.86501" lon="2.18683">
        <ele>316</ele>
        <time>2026-01-26T14:26:25.000Z</time>
      </trkpt>
      <trkpt lat="43.86505" lon="2.18681">
        <ele>317</ele>
        <time>2026-01-26T14:26:30.000Z</time>
      </trkpt>
      <trkpt lat="43.86509" lon="2.1868">
        <ele>317</ele>
        <time>2026-01-26T14:26:35.000Z</time>
      </trkpt>
      <trkpt lat="43.86512" lon="2.18678">
        <ele>317</ele>
        <time>2026-01-26T14:26:40.000Z</time>
      </trkpt>
      <trkpt lat="43.86515" lon="2.18676">
        <ele>319</ele>
        <time>2026-01-26T14:26:45.000Z</time>
      </trkpt>
      <trkpt lat="43.86519" lon="2.18675">
        <ele>317</ele>
        <time>2026-01-26T14:26:50.000Z</time>
      </trkpt>
      <trkpt lat="43.86523" lon="2.18674">
        <ele>317</ele>
        <time>2026-01-26T14:26:55.000Z</time>
      </trkpt>
      <trkpt lat="43.86527" lon="2.18673">
        <ele>317</ele>
        <time>2026-01-26T14:27:00.000Z</time>
      </trkpt>
      <trkpt lat="43.86531" lon="2.18671">
        <ele>316</ele>
        <time>2026-01-26T14:27:05.000Z</time>
      </trkpt>
      <trkpt lat="43.86534" lon="2.18669">
        <ele>315</ele>
        <time>2026-01-26T14:27:10.000Z</time>
      </trkpt>
      <trkpt lat="43.86538" lon="2.18668">
        <ele>314</ele>
        <time>2026-01-26T14:27:15.000Z</time>
      </trkpt>
      <trkpt lat="43.86542" lon="2.18667">
        <ele>313</ele>
        <time>2026-01-26T14:27:20.000Z</time>
      </trkpt>
      <trkpt lat="43.86547" lon="2.18664">
        <ele>314</ele>
        <time>2026-01-26T14:27:25.000Z</time>
      </trkpt>
      <trkpt lat="43.8655" lon="2.18663">
        <ele>313</ele>
        <time>2026-01-26T14:27:30.000Z</time>
      </trkpt>
      <trkpt lat="43.86553" lon="2.18662">
        <ele>312</ele>
        <time>2026-01-26T14:27:35.000Z</time>
      </trkpt>
      <trkpt lat="43.86555" lon="2.18662">
        <ele>311</ele>
        <time>2026-01-26T14:27:40.000Z</time>
      </trkpt>
      <trkpt lat="43.86559" lon="2.18661">
        <ele>310</ele>
        <time>2026-01-26T14:27:45.000Z</time>
      </trkpt>
      <trkpt lat="43.86566" lon="2.18657">
        <ele>309</ele>
        <time>2026-01-26T14:27:50.000Z</time>
      </trkpt>
      <trkpt lat="43.8657" lon="2.18655">
        <ele>309</ele>
        <time>2026-01-26T14:27:55.000Z</time>
      </trkpt>
      <trkpt lat="43.86575" lon="2.18653">
        <ele>309</ele>
        <time>2026-01-26T14:28:00.000Z</time>
      </trkpt>
      <trkpt lat="43.86579" lon="2.18648">
        <ele>309</ele>
        <time>2026-01-26T14:28:05.000Z</time>
      </trkpt>
      <trkpt lat="43.86584" lon="2.18643">
        <ele>309</ele>
        <time>2026-01-26T14:28:10.000Z</time>
      </trkpt>
      <trkpt lat="43.86589" lon="2.18639">
        <ele>310</ele>
        <time>2026-01-26T14:28:15.000Z</time>
      </trkpt>
      <trkpt lat="43.86593" lon="2.18636">
        <ele>311</ele>
        <time>2026-01-26T14:28:20.000Z</time>
      </trkpt>
      <trkpt lat="43.86596" lon="2.18632">
        <ele>311</ele>
        <time>2026-01-26T14:28:25.000Z</time>
      </trkpt>
      <trkpt lat="43.866" lon="2.18628">
        <ele>311</ele>
        <time>2026-01-26T14:28:30.000Z</time>
      </trkpt>
      <trkpt lat="43.86605" lon="2.18624">
        <ele>311</ele>
        <time>2026-01-26T14:28:35.000Z</time>
      </trkpt>
      <trkpt lat="43.8661" lon="2.1862">
        <ele>312</ele>
        <time>2026-01-26T14:28:40.000Z</time>
      </trkpt>
      <trkpt lat="43.86614" lon="2.18616">
        <ele>313</ele>
        <time>2026-01-26T14:28:45.000Z</time>
      </trkpt>
      <trkpt lat="43.86617" lon="2.18612">
        <ele>312</ele>
        <time>2026-01-26T14:28:50.000Z</time>
      </trkpt>
      <trkpt lat="43.86622" lon="2.18608">
        <ele>312</ele>
        <time>2026-01-26T14:28:55.000Z</time>
      </trkpt>
      <trkpt lat="43.86626" lon="2.18605">
        <ele>311</ele>
        <time>2026-01-26T14:29:00.000Z</time>
      </trkpt>
      <trkpt lat="43.8663" lon="2.18603">
        <ele>312</ele>
        <time>2026-01-26T14:29:05.000Z</time>
      </trkpt>
      <trkpt lat="43.86634" lon="2.18597">
        <ele>311</ele>
        <time>2026-01-26T14:29:10.000Z</time>
      </trkpt>
      <trkpt lat="43.86638" lon="2.18592">
        <ele>310</ele>
        <time>2026-01-26T14:29:15.000Z</time>
      </trkpt>
      <trkpt lat="43.8664" lon="2.18586">
        <ele>309</ele>
        <time>2026-01-26T14:29:20.000Z</time>
      </trkpt>
      <trkpt lat="43.86643" lon="2.18581">
        <ele>309</ele>
        <time>2026-01-26T14:29:25.000Z</time>
      </trkpt>
      <trkpt lat="43.86647" lon="2.18575">
        <ele>309</ele>
        <time>2026-01-26T14:29:30.000Z</time>
      </trkpt>
      <trkpt lat="43.86652" lon="2.1857">
        <ele>309</ele>
        <time>2026-01-26T14:29:35.000Z</time>
      </trkpt>
      <trkpt lat="43.86656" lon="2.18566">
        <ele>309</ele>
        <time>2026-01-26T14:29:40.000Z</time>
      </trkpt>
      <trkpt lat="43.86659" lon="2.18562">
        <ele>308</ele>
        <time>2026-01-26T14:29:45.000Z</time>
      </trkpt>
      <trkpt lat="43.8666" lon="2.18557">
        <ele>307</ele>
        <time>2026-01-26T14:29:50.000Z</time>
      </trkpt>
      <trkpt lat="43.86663" lon="2.18553">
        <ele>307</ele>
        <time>2026-01-26T14:29:55.000Z</time>
      </trkpt>
      <trkpt lat="43.86666" lon="2.18549">
        <ele>306</ele>
        <time>2026-01-26T14:30:00.000Z</time>
      </trkpt>
      <trkpt lat="43.8667" lon="2.18545">
        <ele>306</ele>
        <time>2026-01-26T14:30:05.000Z</time>
      </trkpt>
      <trkpt lat="43.86672" lon="2.1854">
        <ele>305</ele>
        <time>2026-01-26T14:30:10.000Z</time>
      </trkpt>
      <trkpt lat="43.86675" lon="2.18534">
        <ele>304</ele>
        <time>2026-01-26T14:30:15.000Z</time>
      </trkpt>
      <trkpt lat="43.86677" lon="2.1853">
        <ele>304</ele>
        <time>2026-01-26T14:30:20.000Z</time>
      </trkpt>
      <trkpt lat="43.86681" lon="2.18525">
        <ele>303</ele>
        <time>2026-01-26T14:30:25.000Z</time>
      </trkpt>
      <trkpt lat="43.86685" lon="2.18521">
        <ele>303</ele>
        <time>2026-01-26T14:30:30.000Z</time>
      </trkpt>
      <trkpt lat="43.86686" lon="2.18516">
        <ele>303</ele>
        <time>2026-01-26T14:30:35.000Z</time>
      </trkpt>
      <trkpt lat="43.86689" lon="2.1851">
        <ele>304</ele>
        <time>2026-01-26T14:30:40.000Z</time>
      </trkpt>
      <trkpt lat="43.86692" lon="2.18506">
        <ele>303</ele>
        <time>2026-01-26T14:30:45.000Z</time>
      </trkpt>
      <trkpt lat="43.86695" lon="2.185">
        <ele>302</ele>
        <time>2026-01-26T14:30:50.000Z</time>
      </trkpt>
      <trkpt lat="43.86697" lon="2.18494">
        <ele>301</ele>
        <time>2026-01-26T14:30:55.000Z</time>
      </trkpt>
      <trkpt lat="43.86698" lon="2.18488">
        <ele>300</ele>
        <time>2026-01-26T14:31:00.000Z</time>
      </trkpt>
      <trkpt lat="43.867" lon="2.18482">
        <ele>300</ele>
        <time>2026-01-26T14:31:05.000Z</time>
      </trkpt>
      <trkpt lat="43.86702" lon="2.18474">
        <ele>301</ele>
        <time>2026-01-26T14:31:10.000Z</time>
      </trkpt>
      <trkpt lat="43.86704" lon="2.18468">
        <ele>301</ele>
        <time>2026-01-26T14:31:15.000Z</time>
      </trkpt>
      <trkpt lat="43.86706" lon="2.18462">
        <ele>301</ele>
        <time>2026-01-26T14:31:20.000Z</time>
      </trkpt>
      <trkpt lat="43.86708" lon="2.18456">
        <ele>301</ele>
        <time>2026-01-26T14:31:25.000Z</time>
      </trkpt>
      <trkpt lat="43.8671" lon="2.1845">
        <ele>301</ele>
        <time>2026-01-26T14:31:30.000Z</time>
      </trkpt>
      <trkpt lat="43.8671" lon="2.18444">
        <ele>300</ele>
        <time>2026-01-26T14:31:35.000Z</time>
      </trkpt>
      <trkpt lat="43.86712" lon="2.18438">
        <ele>301</ele>
        <time>2026-01-26T14:31:40.000Z</time>
      </trkpt>
      <trkpt lat="43.86713" lon="2.18432">
        <ele>299</ele>
        <time>2026-01-26T14:31:45.000Z</time>
      </trkpt>
      <trkpt lat="43.86715" lon="2.18424">
        <ele>300</ele>
        <time>2026-01-26T14:31:50.000Z</time>
      </trkpt>
      <trkpt lat="43.86716" lon="2.18415">
        <ele>302</ele>
        <time>2026-01-26T14:31:55.000Z</time>
      </trkpt>
      <trkpt lat="43.86717" lon="2.18409">
        <ele>302</ele>
        <time>2026-01-26T14:32:00.000Z</time>
      </trkpt>
      <trkpt lat="43.86718" lon="2.18403">
        <ele>301</ele>
        <time>2026-01-26T14:32:05.000Z</time>
      </trkpt>
      <trkpt lat="43.86718" lon="2.18396">
        <ele>301</ele>
        <time>2026-01-26T14:32:10.000Z</time>
      </trkpt>
      <trkpt lat="43.86718" lon="2.18388">
        <ele>301</ele>
        <time>2026-01-26T14:32:15.000Z</time>
      </trkpt>
      <trkpt lat="43.86719" lon="2.18381">
        <ele>300</ele>
        <time>2026-01-26T14:32:20.000Z</time>
      </trkpt>
      <trkpt lat="43.86719" lon="2.18373">
        <ele>301</ele>
        <time>2026-01-26T14:32:25.000Z</time>
      </trkpt>
      <trkpt lat="43.8672" lon="2.18366">
        <ele>300</ele>
        <time>2026-01-26T14:32:30.000Z</time>
      </trkpt>
      <trkpt lat="43.8672" lon="2.18359">
        <ele>300</ele>
        <time>2026-01-26T14:32:35.000Z</time>
      </trkpt>
      <trkpt lat="43.8672" lon="2.18353">
        <ele>299</ele>
        <time>2026-01-26T14:32:40.000Z</time>
      </trkpt>
      <trkpt lat="43.86719" lon="2.18347">
        <ele>299</ele>
        <time>2026-01-26T14:32:45.000Z</time>
      </trkpt>
      <trkpt lat="43.8672" lon="2.1834">
        <ele>298</ele>
        <time>2026-01-26T14:32:50.000Z</time>
      </trkpt>
      <trkpt lat="43.8672" lon="2.18333">
        <ele>298</ele>
        <time>2026-01-26T14:32:55.000Z</time>
      </trkpt>
      <trkpt lat="43.8672" lon="2.18326">
        <ele>299</ele>
        <time>2026-01-26T14:33:00.000Z</time>
      </trkpt>
      <trkpt lat="43.86721" lon="2.18319">
        <ele>299</ele>
        <time>2026-01-26T14:33:05.000Z</time>
      </trkpt>
      <trkpt lat="43.8672" lon="2.18312">
        <ele>298</ele>
        <time>2026-01-26T14:33:10.000Z</time>
      </trkpt>
      <trkpt lat="43.86721" lon="2.18306">
        <ele>298</ele>
        <time>2026-01-26T14:33:15.000Z</time>
      </trkpt>
      <trkpt lat="43.86722" lon="2.18298">
        <ele>299</ele>
        <time>2026-01-26T14:33:20.000Z</time>
      </trkpt>
      <trkpt lat="43.86723" lon="2.1829">
        <ele>300</ele>
        <time>2026-01-26T14:33:25.000Z</time>
      </trkpt>
      <trkpt lat="43.86723" lon="2.18285">
        <ele>300</ele>
        <time>2026-01-26T14:33:30.000Z</time>
      </trkpt>
      <trkpt lat="43.86723" lon="2.18279">
        <ele>300</ele>
        <time>2026-01-26T14:33:35.000Z</time>
      </trkpt>
      <trkpt lat="43.86721" lon="2.18273">
        <ele>299</ele>
        <time>2026-01-26T14:33:40.000Z</time>
      </trkpt>
      <trkpt lat="43.86721" lon="2.1827">
        <ele>298</ele>
        <time>2026-01-26T14:33:45.000Z</time>
      </trkpt>
      <trkpt lat="43.86722" lon="2.18264">
        <ele>298</ele>
        <time>2026-01-26T14:33:50.000Z</time>
      </trkpt>
      <trkpt lat="43.86723" lon="2.18259">
        <ele>297</ele>
        <time>2026-01-26T14:33:55.000Z</time>
      </trkpt>
      <trkpt lat="43.86723" lon="2.18252">
        <ele>296</ele>
        <time>2026-01-26T14:34:00.000Z</time>
      </trkpt>
      <trkpt lat="43.86722" lon="2.18249">
        <ele>294</ele>
        <time>2026-01-26T14:34:05.000Z</time>
      </trkpt>
      <trkpt lat="43.86722" lon="2.18244">
        <ele>294</ele>
        <time>2026-01-26T14:34:10.000Z</time>
      </trkpt>
      <trkpt lat="43.8672" lon="2.18239">
        <ele>292</ele>
        <time>2026-01-26T14:34:15.000Z</time>
      </trkpt>
      <trkpt lat="43.86719" lon="2.18233">
        <ele>291</ele>
        <time>2026-01-26T14:34:20.000Z</time>
      </trkpt>
      <trkpt lat="43.86722" lon="2.18228">
        <ele>289</ele>
        <time>2026-01-26T14:34:25.000Z</time>
      </trkpt>
      <trkpt lat="43.86722" lon="2.18217">
        <ele>291</ele>
        <time>2026-01-26T14:34:30.000Z</time>
      </trkpt>
      <trkpt lat="43.86721" lon="2.18211">
        <ele>289</ele>
        <time>2026-01-26T14:34:35.000Z</time>
      </trkpt>
      <trkpt lat="43.86723" lon="2.18207">
        <ele>290</ele>
        <time>2026-01-26T14:34:40.000Z</time>
      </trkpt>
      <trkpt lat="43.86722" lon="2.18199">
        <ele>289</ele>
        <time>2026-01-26T14:34:45.000Z</time>
      </trkpt>
      <trkpt lat="43.86721" lon="2.18193">
        <ele>290</ele>
        <time>2026-01-26T14:34:50.000Z</time>
      </trkpt>
      <trkpt lat="43.86723" lon="2.1819">
        <ele>287</ele>
        <time>2026-01-26T14:34:55.000Z</time>
      </trkpt>
      <trkpt lat="43.86722" lon="2.18184">
        <ele>286</ele>
        <time>2026-01-26T14:35:00.000Z</time>
      </trkpt>
      <trkpt lat="43.86722" lon="2.18178">
        <ele>285</ele>
        <time>2026-01-26T14:35:05.000Z</time>
      </trkpt>
      <trkpt lat="43.86721" lon="2.18171">
        <ele>285</ele>
        <time>2026-01-26T14:35:10.000Z</time>
      </trkpt>
      <trkpt lat="43.86721" lon="2.18166">
        <ele>285</ele>
        <time>2026-01-26T14:35:15.000Z</time>
      </trkpt>
      <trkpt lat="43.86721" lon="2.18159">
        <ele>285</ele>
        <time>2026-01-26T14:35:20.000Z</time>
      </trkpt>
      <trkpt lat="43.86721" lon="2.18152">
        <ele>285</ele>
        <time>2026-01-26T14:35:25.000Z</time>
      </trkpt>
      <trkpt lat="43.86722" lon="2.18145">
        <ele>286</ele>
        <time>2026-01-26T14:35:30.000Z</time>
      </trkpt>
      <trkpt lat="43.86721" lon="2.18138">
        <ele>285</ele>
        <time>2026-01-26T14:35:35.000Z</time>
      </trkpt>
      <trkpt lat="43.86721" lon="2.18132">
        <ele>285</ele>
        <time>2026-01-26T14:35:40.000Z</time>
      </trkpt>
      <trkpt lat="43.8672" lon="2.18126">
        <ele>285</ele>
        <time>2026-01-26T14:35:45.000Z</time>
      </trkpt>
      <trkpt lat="43.8672" lon="2.18116">
        <ele>286</ele>
        <time>2026-01-26T14:35:50.000Z</time>
      </trkpt>
      <trkpt lat="43.86721" lon="2.18103">
        <ele>289</ele>
        <time>2026-01-26T14:35:55.000Z</time>
      </trkpt>
      <trkpt lat="43.8672" lon="2.18088">
        <ele>294</ele>
        <time>2026-01-26T14:36:00.000Z</time>
      </trkpt>
      <trkpt lat="43.8672" lon="2.18078">
        <ele>297</ele>
        <time>2026-01-26T14:36:05.000Z</time>
      </trkpt>
      <trkpt lat="43.8672" lon="2.18068">
        <ele>300</ele>
        <time>2026-01-26T14:36:10.000Z</time>
      </trkpt>
      <trkpt lat="43.86721" lon="2.18059">
        <ele>302</ele>
        <time>2026-01-26T14:36:15.000Z</time>
      </trkpt>
      <trkpt lat="43.86719" lon="2.1805">
        <ele>304</ele>
        <time>2026-01-26T14:36:20.000Z</time>
      </trkpt>
      <trkpt lat="43.86719" lon="2.18043">
        <ele>304</ele>
        <time>2026-01-26T14:36:25.000Z</time>
      </trkpt>
      <trkpt lat="43.8672" lon="2.18035">
        <ele>306</ele>
        <time>2026-01-26T14:36:30.000Z</time>
      </trkpt>
      <trkpt lat="43.8672" lon="2.18029">
        <ele>305</ele>
        <time>2026-01-26T14:36:35.000Z</time>
      </trkpt>
      <trkpt lat="43.8672" lon="2.18027">
        <ele>306</ele>
        <time>2026-01-26T14:36:40.000Z</time>
      </trkpt>
      <trkpt lat="43.86721" lon="2.18023">
        <ele>305</ele>
        <time>2026-01-26T14:36:45.000Z</time>
      </trkpt>
      <trkpt lat="43.86722" lon="2.18018">
        <ele>304</ele>
        <time>2026-01-26T14:36:50.000Z</time>
      </trkpt>
      <trkpt lat="43.86722" lon="2.18012">
        <ele>303</ele>
        <time>2026-01-26T14:36:55.000Z</time>
      </trkpt>
      <trkpt lat="43.86722" lon="2.18007">
        <ele>301</ele>
        <time>2026-01-26T14:37:00.000Z</time>
      </trkpt>
      <trkpt lat="43.86722" lon="2.18002">
        <ele>300</ele>
        <time>2026-01-26T14:37:05.000Z</time>
      </trkpt>
      <trkpt lat="43.86721" lon="2.17997">
        <ele>301</ele>
        <time>2026-01-26T14:37:10.000Z</time>
      </trkpt>
      <trkpt lat="43.86722" lon="2.17988">
        <ele>300</ele>
        <time>2026-01-26T14:37:15.000Z</time>
      </trkpt>
      <trkpt lat="43.86723" lon="2.17984">
        <ele>300</ele>
        <time>2026-01-26T14:37:20.000Z</time>
      </trkpt>
      <trkpt lat="43.86722" lon="2.17977">
        <ele>298</ele>
        <time>2026-01-26T14:37:25.000Z</time>
      </trkpt>
      <trkpt lat="43.86721" lon="2.17968">
        <ele>297</ele>
        <time>2026-01-26T14:37:30.000Z</time>
      </trkpt>
      <trkpt lat="43.86722" lon="2.17962">
        <ele>297</ele>
        <time>2026-01-26T14:37:35.000Z</time>
      </trkpt>
      <trkpt lat="43.86722" lon="2.17955">
        <ele>297</ele>
        <time>2026-01-26T14:37:40.000Z</time>
      </trkpt>
      <trkpt lat="43.86722" lon="2.17949">
        <ele>298</ele>
        <time>2026-01-26T14:37:45.000Z</time>
      </trkpt>
      <trkpt lat="43.86722" lon="2.17946">
        <ele>297</ele>
        <time>2026-01-26T14:37:50.000Z</time>
      </trkpt>
      <trkpt lat="43.86722" lon="2.1794">
        <ele>296</ele>
        <time>2026-01-26T14:37:55.000Z</time>
      </trkpt>
      <trkpt lat="43.86721" lon="2.17933">
        <ele>296</ele>
        <time>2026-01-26T14:38:00.000Z</time>
      </trkpt>
      <trkpt lat="43.8672" lon="2.17928">
        <ele>294</ele>
        <time>2026-01-26T14:38:05.000Z</time>
      </trkpt>
      <trkpt lat="43.8672" lon="2.17921">
        <ele>292</ele>
        <time>2026-01-26T14:38:10.000Z</time>
      </trkpt>
      <trkpt lat="43.8672" lon="2.1791">
        <ele>291</ele>
        <time>2026-01-26T14:38:15.000Z</time>
      </trkpt>
      <trkpt lat="43.86721" lon="2.17906">
        <ele>290</ele>
        <time>2026-01-26T14:38:20.000Z</time>
      </trkpt>
      <trkpt lat="43.86722" lon="2.179">
        <ele>288</ele>
        <time>2026-01-26T14:38:25.000Z</time>
      </trkpt>
      <trkpt lat="43.8672" lon="2.1789">
        <ele>289</ele>
        <time>2026-01-26T14:38:30.000Z</time>
      </trkpt>
      <trkpt lat="43.8672" lon="2.17885">
        <ele>286</ele>
        <time>2026-01-26T14:38:35.000Z</time>
      </trkpt>
      <trkpt lat="43.86719" lon="2.17879">
        <ele>287</ele>
        <time>2026-01-26T14:38:40.000Z</time>
      </trkpt>
      <trkpt lat="43.86719" lon="2.17868">
        <ele>289</ele>
        <time>2026-01-26T14:38:45.000Z</time>
      </trkpt>
      <trkpt lat="43.86719" lon="2.17862">
        <ele>290</ele>
        <time>2026-01-26T14:38:50.000Z</time>
      </trkpt>
      <trkpt lat="43.8672" lon="2.17854">
        <ele>290</ele>
        <time>2026-01-26T14:38:55.000Z</time>
      </trkpt>
      <trkpt lat="43.8672" lon="2.17846">
        <ele>290</ele>
        <time>2026-01-26T14:39:00.000Z</time>
      </trkpt>
      <trkpt lat="43.86721" lon="2.17839">
        <ele>290</ele>
        <time>2026-01-26T14:39:05.000Z</time>
      </trkpt>
      <trkpt lat="43.86722" lon="2.17833">
        <ele>290</ele>
        <time>2026-01-26T14:39:10.000Z</time>
      </trkpt>
      <trkpt lat="43.8672" lon="2.17824">
        <ele>291</ele>
        <time>2026-01-26T14:39:15.000Z</time>
      </trkpt>
      <trkpt lat="43.86718" lon="2.17817">
        <ele>291</ele>
        <time>2026-01-26T14:39:20.000Z</time>
      </trkpt>
      <trkpt lat="43.86718" lon="2.1781">
        <ele>290</ele>
        <time>2026-01-26T14:39:25.000Z</time>
      </trkpt>
      <trkpt lat="43.86718" lon="2.17802">
        <ele>289</ele>
        <time>2026-01-26T14:39:30.000Z</time>
      </trkpt>
      <trkpt lat="43.86721" lon="2.17789">
        <ele>288</ele>
        <time>2026-01-26T14:39:35.000Z</time>
      </trkpt>
      <trkpt lat="43.86723" lon="2.1778">
        <ele>288</ele>
        <time>2026-01-26T14:39:40.000Z</time>
      </trkpt>
      <trkpt lat="43.86721" lon="2.1777">
        <ele>289</ele>
        <time>2026-01-26T14:39:45.000Z</time>
      </trkpt>
      <trkpt lat="43.86721" lon="2.17764">
        <ele>289</ele>
        <time>2026-01-26T14:39:50.000Z</time>
      </trkpt>
      <trkpt lat="43.8672" lon="2.17758">
        <ele>289</ele>
        <time>2026-01-26T14:39:55.000Z</time>
      </trkpt>
      <trkpt lat="43.86722" lon="2.17749">
        <ele>289</ele>
        <time>2026-01-26T14:40:00.000Z</time>
      </trkpt>
      <trkpt lat="43.86722" lon="2.17742">
        <ele>288</ele>
        <time>2026-01-26T14:40:05.000Z</time>
      </trkpt>
      <trkpt lat="43.86723" lon="2.17734">
        <ele>289</ele>
        <time>2026-01-26T14:40:10.000Z</time>
      </trkpt>
      <trkpt lat="43.86721" lon="2.17724">
        <ele>288</ele>
        <time>2026-01-26T14:40:15.000Z</time>
      </trkpt>
      <trkpt lat="43.86723" lon="2.17717">
        <ele>288</ele>
        <time>2026-01-26T14:40:20.000Z</time>
      </trkpt>
      <trkpt lat="43.86723" lon="2.17707">
        <ele>287</ele>
        <time>2026-01-26T14:40:25.000Z</time>
      </trkpt>
      <trkpt lat="43.86725" lon="2.17703">
        <ele>287</ele>
        <time>2026-01-26T14:40:30.000Z</time>
      </trkpt>
      <trkpt lat="43.86725" lon="2.17692">
        <ele>287</ele>
        <time>2026-01-26T14:40:35.000Z</time>
      </trkpt>
      <trkpt lat="43.86726" lon="2.17684">
        <ele>285</ele>
        <time>2026-01-26T14:40:40.000Z</time>
      </trkpt>
      <trkpt lat="43.86729" lon="2.17675">
        <ele>287</ele>
        <time>2026-01-26T14:40:45.000Z</time>
      </trkpt>
      <trkpt lat="43.8673" lon="2.17665">
        <ele>287</ele>
        <time>2026-01-26T14:40:50.000Z</time>
      </trkpt>
      <trkpt lat="43.86733" lon="2.17659">
        <ele>286</ele>
        <time>2026-01-26T14:40:55.000Z</time>
      </trkpt>
      <trkpt lat="43.86733" lon="2.17648">
        <ele>287</ele>
        <time>2026-01-26T14:41:00.000Z</time>
      </trkpt>
      <trkpt lat="43.86735" lon="2.17642">
        <ele>289</ele>
        <time>2026-01-26T14:41:05.000Z</time>
      </trkpt>
      <trkpt lat="43.86736" lon="2.17639">
        <ele>288</ele>
        <time>2026-01-26T14:41:10.000Z</time>
      </trkpt>
      <trkpt lat="43.86738" lon="2.17631">
        <ele>287</ele>
        <time>2026-01-26T14:41:15.000Z</time>
      </trkpt>
      <trkpt lat="43.86739" lon="2.17621">
        <ele>287</ele>
        <time>2026-01-26T14:41:20.000Z</time>
      </trkpt>
      <trkpt lat="43.86743" lon="2.17609">
        <ele>284</ele>
        <time>2026-01-26T14:41:25.000Z</time>
      </trkpt>
      <trkpt lat="43.86743" lon="2.17604">
        <ele>285</ele>
        <time>2026-01-26T14:41:30.000Z</time>
      </trkpt>
      <trkpt lat="43.86746" lon="2.17598">
        <ele>286</ele>
        <time>2026-01-26T14:41:35.000Z</time>
      </trkpt>
      <trkpt lat="43.86748" lon="2.17594">
        <ele>284</ele>
        <time>2026-01-26T14:41:40.000Z</time>
      </trkpt>
      <trkpt lat="43.86751" lon="2.17587">
        <ele>284</ele>
        <time>2026-01-26T14:41:45.000Z</time>
      </trkpt>
      <trkpt lat="43.86754" lon="2.17583">
        <ele>283</ele>
        <time>2026-01-26T14:41:50.000Z</time>
      </trkpt>
      <trkpt lat="43.86758" lon="2.17578">
        <ele>282</ele>
        <time>2026-01-26T14:41:55.000Z</time>
      </trkpt>
      <trkpt lat="43.8676" lon="2.17569">
        <ele>281</ele>
        <time>2026-01-26T14:42:00.000Z</time>
      </trkpt>
      <trkpt lat="43.86763" lon="2.17562">
        <ele>281</ele>
        <time>2026-01-26T14:42:05.000Z</time>
      </trkpt>
      <trkpt lat="43.86766" lon="2.17556">
        <ele>282</ele>
        <time>2026-01-26T14:42:10.000Z</time>
      </trkpt>
      <trkpt lat="43.86768" lon="2.17552">
        <ele>282</ele>
        <time>2026-01-26T14:42:15.000Z</time>
      </trkpt>
      <trkpt lat="43.86772" lon="2.17546">
        <ele>282</ele>
        <time>2026-01-26T14:42:20.000Z</time>
      </trkpt>
      <trkpt lat="43.86776" lon="2.17541">
        <ele>281</ele>
        <time>2026-01-26T14:42:25.000Z</time>
      </trkpt>
      <trkpt lat="43.8678" lon="2.1753">
        <ele>281</ele>
        <time>2026-01-26T14:42:30.000Z</time>
      </trkpt>
      <trkpt lat="43.86783" lon="2.17519">
        <ele>285</ele>
        <time>2026-01-26T14:42:35.000Z</time>
      </trkpt>
      <trkpt lat="43.86785" lon="2.17508">
        <ele>290</ele>
        <time>2026-01-26T14:42:40.000Z</time>
      </trkpt>
      <trkpt lat="43.86788" lon="2.17498">
        <ele>294</ele>
        <time>2026-01-26T14:42:45.000Z</time>
      </trkpt>
      <trkpt lat="43.8679" lon="2.17491">
        <ele>297</ele>
        <time>2026-01-26T14:42:50.000Z</time>
      </trkpt>
      <trkpt lat="43.86794" lon="2.17483">
        <ele>300</ele>
        <time>2026-01-26T14:42:55.000Z</time>
      </trkpt>
      <trkpt lat="43.86799" lon="2.17477">
        <ele>302</ele>
        <time>2026-01-26T14:43:00.000Z</time>
      </trkpt>
      <trkpt lat="43.86801" lon="2.17471">
        <ele>303</ele>
        <time>2026-01-26T14:43:05.000Z</time>
      </trkpt>
      <trkpt lat="43.86805" lon="2.17466">
        <ele>304</ele>
        <time>2026-01-26T14:43:10.000Z</time>
      </trkpt>
      <trkpt lat="43.86808" lon="2.17461">
        <ele>302</ele>
        <time>2026-01-26T14:43:15.000Z</time>
      </trkpt>
      <trkpt lat="43.86813" lon="2.17455">
        <ele>302</ele>
        <time>2026-01-26T14:43:20.000Z</time>
      </trkpt>
      <trkpt lat="43.86816" lon="2.17449">
        <ele>303</ele>
        <time>2026-01-26T14:43:25.000Z</time>
      </trkpt>
      <trkpt lat="43.86821" lon="2.17444">
        <ele>302</ele>
        <time>2026-01-26T14:43:30.000Z</time>
      </trkpt>
      <trkpt lat="43.86825" lon="2.17438">
        <ele>302</ele>
        <time>2026-01-26T14:43:35.000Z</time>
      </trkpt>
      <trkpt lat="43.86829" lon="2.17432">
        <ele>303</ele>
        <time>2026-01-26T14:43:40.000Z</time>
      </trkpt>
      <trkpt lat="43.86833" lon="2.17428">
        <ele>302</ele>
        <time>2026-01-26T14:43:45.000Z</time>
      </trkpt>
      <trkpt lat="43.86837" lon="2.17423">
        <ele>302</ele>
        <time>2026-01-26T14:43:50.000Z</time>
      </trkpt>
      <trkpt lat="43.86841" lon="2.17419">
        <ele>302</ele>
        <time>2026-01-26T14:43:55.000Z</time>
      </trkpt>
      <trkpt lat="43.86844" lon="2.17415">
        <ele>302</ele>
        <time>2026-01-26T14:44:00.000Z</time>
      </trkpt>
      <trkpt lat="43.86848" lon="2.17412">
        <ele>302</ele>
        <time>2026-01-26T14:44:05.000Z</time>
      </trkpt>
      <trkpt lat="43.86852" lon="2.17408">
        <ele>301</ele>
        <time>2026-01-26T14:44:10.000Z</time>
      </trkpt>
      <trkpt lat="43.86856" lon="2.17402">
        <ele>301</ele>
        <time>2026-01-26T14:44:15.000Z</time>
      </trkpt>
      <trkpt lat="43.86859" lon="2.17396">
        <ele>301</ele>
        <time>2026-01-26T14:44:20.000Z</time>
      </trkpt>
      <trkpt lat="43.86862" lon="2.17392">
        <ele>301</ele>
        <time>2026-01-26T14:44:25.000Z</time>
      </trkpt>
      <trkpt lat="43.86865" lon="2.17388">
        <ele>300</ele>
        <time>2026-01-26T14:44:30.000Z</time>
      </trkpt>
      <trkpt lat="43.8687" lon="2.17384">
        <ele>301</ele>
        <time>2026-01-26T14:44:35.000Z</time>
      </trkpt>
      <trkpt lat="43.86874" lon="2.1738">
        <ele>300</ele>
        <time>2026-01-26T14:44:40.000Z</time>
      </trkpt>
      <trkpt lat="43.86876" lon="2.17375">
        <ele>301</ele>
        <time>2026-01-26T14:44:45.000Z</time>
      </trkpt>
      <trkpt lat="43.86881" lon="2.1737">
        <ele>300</ele>
        <time>2026-01-26T14:44:50.000Z</time>
      </trkpt>
      <trkpt lat="43.86884" lon="2.17365">
        <ele>300</ele>
        <time>2026-01-26T14:44:55.000Z</time>
      </trkpt>
      <trkpt lat="43.86888" lon="2.17361">
        <ele>300</ele>
        <time>2026-01-26T14:45:00.000Z</time>
      </trkpt>
      <trkpt lat="43.86892" lon="2.17355">
        <ele>300</ele>
        <time>2026-01-26T14:45:05.000Z</time>
      </trkpt>
      <trkpt lat="43.86896" lon="2.1735">
        <ele>300</ele>
        <time>2026-01-26T14:45:10.000Z</time>
      </trkpt>
      <trkpt lat="43.86901" lon="2.17346">
        <ele>299</ele>
        <time>2026-01-26T14:45:15.000Z</time>
      </trkpt>
      <trkpt lat="43.86905" lon="2.17341">
        <ele>300</ele>
        <time>2026-01-26T14:45:20.000Z</time>
      </trkpt>
      <trkpt lat="43.86908" lon="2.17337">
        <ele>299</ele>
        <time>2026-01-26T14:45:25.000Z</time>
      </trkpt>
      <trkpt lat="43.86912" lon="2.17331">
        <ele>299</ele>
        <time>2026-01-26T14:45:30.000Z</time>
      </trkpt>
      <trkpt lat="43.86916" lon="2.17327">
        <ele>299</ele>
        <time>2026-01-26T14:45:35.000Z</time>
      </trkpt>
      <trkpt lat="43.8692" lon="2.17321">
        <ele>299</ele>
        <time>2026-01-26T14:45:40.000Z</time>
      </trkpt>
      <trkpt lat="43.86924" lon="2.17317">
        <ele>300</ele>
        <time>2026-01-26T14:45:45.000Z</time>
      </trkpt>
      <trkpt lat="43.86928" lon="2.17313">
        <ele>299</ele>
        <time>2026-01-26T14:45:50.000Z</time>
      </trkpt>
      <trkpt lat="43.86931" lon="2.17307">
        <ele>299</ele>
        <time>2026-01-26T14:45:55.000Z</time>
      </trkpt>
      <trkpt lat="43.86936" lon="2.17302">
        <ele>299</ele>
        <time>2026-01-26T14:46:00.000Z</time>
      </trkpt>
      <trkpt lat="43.8694" lon="2.17297">
        <ele>300</ele>
        <time>2026-01-26T14:46:05.000Z</time>
      </trkpt>
      <trkpt lat="43.86944" lon="2.17291">
        <ele>300</ele>
        <time>2026-01-26T14:46:10.000Z</time>
      </trkpt>
      <trkpt lat="43.86947" lon="2.17287">
        <ele>301</ele>
        <time>2026-01-26T14:46:15.000Z</time>
      </trkpt>
      <trkpt lat="43.8695" lon="2.1728">
        <ele>300</ele>
        <time>2026-01-26T14:46:20.000Z</time>
      </trkpt>
      <trkpt lat="43.86953" lon="2.17277">
        <ele>300</ele>
        <time>2026-01-26T14:46:25.000Z</time>
      </trkpt>
      <trkpt lat="43.86956" lon="2.17271">
        <ele>298</ele>
        <time>2026-01-26T14:46:30.000Z</time>
      </trkpt>
      <trkpt lat="43.86958" lon="2.17271">
        <ele>297</ele>
        <time>2026-01-26T14:46:35.000Z</time>
      </trkpt>
      <trkpt lat="43.8696" lon="2.1727">
        <ele>297</ele>
        <time>2026-01-26T14:46:40.000Z</time>
      </trkpt>
      <trkpt lat="43.86962" lon="2.17267">
        <ele>296</ele>
        <time>2026-01-26T14:46:45.000Z</time>
      </trkpt>
      <trkpt lat="43.86964" lon="2.17261">
        <ele>294</ele>
        <time>2026-01-26T14:46:50.000Z</time>
      </trkpt>
      <trkpt lat="43.86967" lon="2.17259">
        <ele>294</ele>
        <time>2026-01-26T14:46:55.000Z</time>
      </trkpt>
      <trkpt lat="43.86971" lon="2.17255">
        <ele>293</ele>
        <time>2026-01-26T14:47:00.000Z</time>
      </trkpt>
      <trkpt lat="43.86975" lon="2.17251">
        <ele>292</ele>
        <time>2026-01-26T14:47:05.000Z</time>
      </trkpt>
      <trkpt lat="43.86978" lon="2.17247">
        <ele>293</ele>
        <time>2026-01-26T14:47:10.000Z</time>
      </trkpt>
      <trkpt lat="43.86982" lon="2.17243">
        <ele>292</ele>
        <time>2026-01-26T14:47:15.000Z</time>
      </trkpt>
      <trkpt lat="43.86986" lon="2.17238">
        <ele>291</ele>
        <time>2026-01-26T14:47:20.000Z</time>
      </trkpt>
      <trkpt lat="43.86991" lon="2.17234">
        <ele>288</ele>
        <time>2026-01-26T14:47:25.000Z</time>
      </trkpt>
      <trkpt lat="43.86996" lon="2.17227">
        <ele>288</ele>
        <time>2026-01-26T14:47:30.000Z</time>
      </trkpt>
      <trkpt lat="43.87001" lon="2.17223">
        <ele>289</ele>
        <time>2026-01-26T14:47:35.000Z</time>
      </trkpt>
      <trkpt lat="43.87006" lon="2.17218">
        <ele>289</ele>
        <time>2026-01-26T14:47:40.000Z</time>
      </trkpt>
      <trkpt lat="43.87011" lon="2.17211">
        <ele>288</ele>
        <time>2026-01-26T14:47:45.000Z</time>
      </trkpt>
      <trkpt lat="43.87015" lon="2.17206">
        <ele>288</ele>
        <time>2026-01-26T14:47:50.000Z</time>
      </trkpt>
      <trkpt lat="43.87021" lon="2.17201">
        <ele>290</ele>
        <time>2026-01-26T14:47:55.000Z</time>
      </trkpt>
      <trkpt lat="43.87026" lon="2.17197">
        <ele>289</ele>
        <time>2026-01-26T14:48:00.000Z</time>
      </trkpt>
      <trkpt lat="43.87031" lon="2.1719">
        <ele>289</ele>
        <time>2026-01-26T14:48:05.000Z</time>
      </trkpt>
      <trkpt lat="43.87034" lon="2.17185">
        <ele>288</ele>
        <time>2026-01-26T14:48:10.000Z</time>
      </trkpt>
      <trkpt lat="43.8704" lon="2.17181">
        <ele>288</ele>
        <time>2026-01-26T14:48:15.000Z</time>
      </trkpt>
      <trkpt lat="43.87045" lon="2.17178">
        <ele>287</ele>
        <time>2026-01-26T14:48:20.000Z</time>
      </trkpt>
      <trkpt lat="43.8705" lon="2.17176">
        <ele>286</ele>
        <time>2026-01-26T14:48:25.000Z</time>
      </trkpt>
      <trkpt lat="43.87055" lon="2.17173">
        <ele>285</ele>
        <time>2026-01-26T14:48:30.000Z</time>
      </trkpt>
      <trkpt lat="43.8706" lon="2.1717">
        <ele>285</ele>
        <time>2026-01-26T14:48:35.000Z</time>
      </trkpt>
      <trkpt lat="43.87066" lon="2.17165">
        <ele>285</ele>
        <time>2026-01-26T14:48:40.000Z</time>
      </trkpt>
      <trkpt lat="43.87071" lon="2.1716">
        <ele>286</ele>
        <time>2026-01-26T14:48:45.000Z</time>
      </trkpt>
      <trkpt lat="43.87076" lon="2.17155">
        <ele>286</ele>
        <time>2026-01-26T14:48:50.000Z</time>
      </trkpt>
      <trkpt lat="43.8708" lon="2.17149">
        <ele>287</ele>
        <time>2026-01-26T14:48:55.000Z</time>
      </trkpt>
      <trkpt lat="43.87085" lon="2.17147">
        <ele>286</ele>
        <time>2026-01-26T14:49:00.000Z</time>
      </trkpt>
      <trkpt lat="43.87089" lon="2.17145">
        <ele>285</ele>
        <time>2026-01-26T14:49:05.000Z</time>
      </trkpt>
      <trkpt lat="43.87094" lon="2.17142">
        <ele>285</ele>
        <time>2026-01-26T14:49:10.000Z</time>
      </trkpt>
      <trkpt lat="43.87098" lon="2.17138">
        <ele>285</ele>
        <time>2026-01-26T14:49:15.000Z</time>
      </trkpt>
      <trkpt lat="43.87104" lon="2.17134">
        <ele>284</ele>
        <time>2026-01-26T14:49:20.000Z</time>
      </trkpt>
      <trkpt lat="43.87108" lon="2.17131">
        <ele>284</ele>
        <time>2026-01-26T14:49:25.000Z</time>
      </trkpt>
      <trkpt lat="43.87111" lon="2.17129">
        <ele>284</ele>
        <time>2026-01-26T14:49:30.000Z</time>
      </trkpt>
      <trkpt lat="43.87115" lon="2.17127">
        <ele>283</ele>
        <time>2026-01-26T14:49:35.000Z</time>
      </trkpt>
      <trkpt lat="43.8712" lon="2.17125">
        <ele>282</ele>
        <time>2026-01-26T14:49:40.000Z</time>
      </trkpt>
      <trkpt lat="43.87125" lon="2.17124">
        <ele>283</ele>
        <time>2026-01-26T14:49:45.000Z</time>
      </trkpt>
      <trkpt lat="43.8713" lon="2.1712">
        <ele>282</ele>
        <time>2026-01-26T14:49:50.000Z</time>
      </trkpt>
      <trkpt lat="43.87135" lon="2.17117">
        <ele>281</ele>
        <time>2026-01-26T14:49:55.000Z</time>
      </trkpt>
      <trkpt lat="43.87139" lon="2.17116">
        <ele>283</ele>
        <time>2026-01-26T14:50:00.000Z</time>
      </trkpt>
      <trkpt lat="43.87144" lon="2.17115">
        <ele>282</ele>
        <time>2026-01-26T14:50:05.000Z</time>
      </trkpt>
      <trkpt lat="43.87149" lon="2.17112">
        <ele>282</ele>
        <time>2026-01-26T14:50:10.000Z</time>
      </trkpt>
      <trkpt lat="43.87155" lon="2.17108">
        <ele>282</ele>
        <time>2026-01-26T14:50:15.000Z</time>
      </trkpt>
      <trkpt lat="43.87161" lon="2.17104">
        <ele>281</ele>
        <time>2026-01-26T14:50:20.000Z</time>
      </trkpt>
      <trkpt lat="43.87167" lon="2.17101">
        <ele>281</ele>
        <time>2026-01-26T14:50:25.000Z</time>
      </trkpt>
      <trkpt lat="43.87173" lon="2.17099">
        <ele>283</ele>
        <time>2026-01-26T14:50:30.000Z</time>
      </trkpt>
      <trkpt lat="43.87177" lon="2.17097">
        <ele>284</ele>
        <time>2026-01-26T14:50:35.000Z</time>
      </trkpt>
      <trkpt lat="43.87184" lon="2.17095">
        <ele>284</ele>
        <time>2026-01-26T14:50:40.000Z</time>
      </trkpt>
      <trkpt lat="43.87189" lon="2.17094">
        <ele>283</ele>
        <time>2026-01-26T14:50:45.000Z</time>
      </trkpt>
      <trkpt lat="43.87195" lon="2.17092">
        <ele>284</ele>
        <time>2026-01-26T14:50:50.000Z</time>
      </trkpt>
      <trkpt lat="43.87201" lon="2.1709">
        <ele>286</ele>
        <time>2026-01-26T14:50:55.000Z</time>
      </trkpt>
      <trkpt lat="43.87208" lon="2.17088">
        <ele>286</ele>
        <time>2026-01-26T14:51:00.000Z</time>
      </trkpt>
      <trkpt lat="43.87213" lon="2.17085">
        <ele>286</ele>
        <time>2026-01-26T14:51:05.000Z</time>
      </trkpt>
      <trkpt lat="43.8722" lon="2.17083">
        <ele>287</ele>
        <time>2026-01-26T14:51:10.000Z</time>
      </trkpt>
      <trkpt lat="43.87225" lon="2.17082">
        <ele>287</ele>
        <time>2026-01-26T14:51:15.000Z</time>
      </trkpt>
      <trkpt lat="43.87229" lon="2.1708">
        <ele>286</ele>
        <time>2026-01-26T14:51:20.000Z</time>
      </trkpt>
      <trkpt lat="43.87232" lon="2.17078">
        <ele>285</ele>
        <time>2026-01-26T14:51:25.000Z</time>
      </trkpt>
      <trkpt lat="43.87237" lon="2.17075">
        <ele>282</ele>
        <time>2026-01-26T14:51:30.000Z</time>
      </trkpt>
      <trkpt lat="43.8724" lon="2.17073">
        <ele>282</ele>
        <time>2026-01-26T14:51:35.000Z</time>
      </trkpt>
      <trkpt lat="43.87246" lon="2.17073">
        <ele>281</ele>
        <time>2026-01-26T14:51:40.000Z</time>
      </trkpt>
      <trkpt lat="43.87251" lon="2.17071">
        <ele>281</ele>
        <time>2026-01-26T14:51:45.000Z</time>
      </trkpt>
      <trkpt lat="43.87256" lon="2.17069">
        <ele>281</ele>
        <time>2026-01-26T14:51:50.000Z</time>
      </trkpt>
      <trkpt lat="43.87261" lon="2.17068">
        <ele>280</ele>
        <time>2026-01-26T14:51:55.000Z</time>
      </trkpt>
      <trkpt lat="43.87265" lon="2.17064">
        <ele>280</ele>
        <time>2026-01-26T14:52:00.000Z</time>
      </trkpt>
      <trkpt lat="43.8727" lon="2.17061">
        <ele>281</ele>
        <time>2026-01-26T14:52:05.000Z</time>
      </trkpt>
      <trkpt lat="43.87274" lon="2.17062">
        <ele>282</ele>
        <time>2026-01-26T14:52:10.000Z</time>
      </trkpt>
      <trkpt lat="43.87279" lon="2.17058">
        <ele>282</ele>
        <time>2026-01-26T14:52:15.000Z</time>
      </trkpt>
      <trkpt lat="43.87283" lon="2.17052">
        <ele>281</ele>
        <time>2026-01-26T14:52:20.000Z</time>
      </trkpt>
      <trkpt lat="43.87289" lon="2.17051">
        <ele>282</ele>
        <time>2026-01-26T14:52:25.000Z</time>
      </trkpt>
      <trkpt lat="43.87295" lon="2.17049">
        <ele>281</ele>
        <time>2026-01-26T14:52:30.000Z</time>
      </trkpt>
      <trkpt lat="43.87302" lon="2.17048">
        <ele>281</ele>
        <time>2026-01-26T14:52:35.000Z</time>
      </trkpt>
      <trkpt lat="43.8731" lon="2.17044">
        <ele>283</ele>
        <time>2026-01-26T14:52:40.000Z</time>
      </trkpt>
      <trkpt lat="43.8732" lon="2.1704">
        <ele>285</ele>
        <time>2026-01-26T14:52:45.000Z</time>
      </trkpt>
      <trkpt lat="43.87327" lon="2.17039">
        <ele>286</ele>
        <time>2026-01-26T14:52:50.000Z</time>
      </trkpt>
      <trkpt lat="43.87334" lon="2.17036">
        <ele>286</ele>
        <time>2026-01-26T14:52:55.000Z</time>
      </trkpt>
      <trkpt lat="43.87341" lon="2.17034">
        <ele>288</ele>
        <time>2026-01-26T14:53:00.000Z</time>
      </trkpt>
      <trkpt lat="43.87346" lon="2.17031">
        <ele>288</ele>
        <time>2026-01-26T14:53:05.000Z</time>
      </trkpt>
      <trkpt lat="43.87352" lon="2.17028">
        <ele>289</ele>
        <time>2026-01-26T14:53:10.000Z</time>
      </trkpt>
      <trkpt lat="43.87358" lon="2.17026">
        <ele>290</ele>
        <time>2026-01-26T14:53:15.000Z</time>
      </trkpt>
      <trkpt lat="43.87364" lon="2.17023">
        <ele>291</ele>
        <time>2026-01-26T14:53:20.000Z</time>
      </trkpt>
      <trkpt lat="43.87368" lon="2.17021">
        <ele>288</ele>
        <time>2026-01-26T14:53:25.000Z</time>
      </trkpt>
      <trkpt lat="43.87375" lon="2.17018">
        <ele>288</ele>
        <time>2026-01-26T14:53:30.000Z</time>
      </trkpt>
      <trkpt lat="43.87381" lon="2.17015">
        <ele>286</ele>
        <time>2026-01-26T14:53:35.000Z</time>
      </trkpt>
      <trkpt lat="43.87387" lon="2.17012">
        <ele>286</ele>
        <time>2026-01-26T14:53:40.000Z</time>
      </trkpt>
      <trkpt lat="43.87392" lon="2.1701">
        <ele>285</ele>
        <time>2026-01-26T14:53:45.000Z</time>
      </trkpt>
      <trkpt lat="43.87397" lon="2.17007">
        <ele>285</ele>
        <time>2026-01-26T14:53:50.000Z</time>
      </trkpt>
      <trkpt lat="43.87404" lon="2.17005">
        <ele>284</ele>
        <time>2026-01-26T14:53:55.000Z</time>
      </trkpt>
      <trkpt lat="43.8741" lon="2.17003">
        <ele>283</ele>
        <time>2026-01-26T14:54:00.000Z</time>
      </trkpt>
      <trkpt lat="43.87416" lon="2.16999">
        <ele>282</ele>
        <time>2026-01-26T14:54:05.000Z</time>
      </trkpt>
      <trkpt lat="43.87421" lon="2.16997">
        <ele>284</ele>
        <time>2026-01-26T14:54:10.000Z</time>
      </trkpt>
      <trkpt lat="43.87425" lon="2.16995">
        <ele>283</ele>
        <time>2026-01-26T14:54:15.000Z</time>
      </trkpt>
      <trkpt lat="43.87429" lon="2.16994">
        <ele>283</ele>
        <time>2026-01-26T14:54:20.000Z</time>
      </trkpt>
      <trkpt lat="43.87434" lon="2.16992">
        <ele>282</ele>
        <time>2026-01-26T14:54:25.000Z</time>
      </trkpt>
      <trkpt lat="43.87439" lon="2.1699">
        <ele>281</ele>
        <time>2026-01-26T14:54:30.000Z</time>
      </trkpt>
      <trkpt lat="43.87443" lon="2.16987">
        <ele>282</ele>
        <time>2026-01-26T14:54:35.000Z</time>
      </trkpt>
      <trkpt lat="43.87447" lon="2.16987">
        <ele>282</ele>
        <time>2026-01-26T14:54:40.000Z</time>
      </trkpt>
      <trkpt lat="43.87453" lon="2.16985">
        <ele>282</ele>
        <time>2026-01-26T14:54:45.000Z</time>
      </trkpt>
      <trkpt lat="43.8746" lon="2.16984">
        <ele>282</ele>
        <time>2026-01-26T14:54:50.000Z</time>
      </trkpt>
      <trkpt lat="43.87466" lon="2.16982">
        <ele>281</ele>
        <time>2026-01-26T14:54:55.000Z</time>
      </trkpt>
      <trkpt lat="43.87472" lon="2.1698">
        <ele>283</ele>
        <time>2026-01-26T14:55:00.000Z</time>
      </trkpt>
      <trkpt lat="43.87478" lon="2.16976">
        <ele>283</ele>
        <time>2026-01-26T14:55:05.000Z</time>
      </trkpt>
      <trkpt lat="43.87482" lon="2.16974">
        <ele>282</ele>
        <time>2026-01-26T14:55:10.000Z</time>
      </trkpt>
      <trkpt lat="43.87487" lon="2.16971">
        <ele>282</ele>
        <time>2026-01-26T14:55:15.000Z</time>
      </trkpt>
      <trkpt lat="43.87493" lon="2.16968">
        <ele>282</ele>
        <time>2026-01-26T14:55:20.000Z</time>
      </trkpt>
      <trkpt lat="43.87498" lon="2.16967">
        <ele>281</ele>
        <time>2026-01-26T14:55:25.000Z</time>
      </trkpt>
      <trkpt lat="43.87504" lon="2.16965">
        <ele>282</ele>
        <time>2026-01-26T14:55:30.000Z</time>
      </trkpt>
      <trkpt lat="43.87508" lon="2.16964">
        <ele>282</ele>
        <time>2026-01-26T14:55:35.000Z</time>
      </trkpt>
      <trkpt lat="43.87511" lon="2.1696">
        <ele>279</ele>
        <time>2026-01-26T14:55:40.000Z</time>
      </trkpt>
      <trkpt lat="43.87517" lon="2.16959">
        <ele>280</ele>
        <time>2026-01-26T14:55:45.000Z</time>
      </trkpt>
      <trkpt lat="43.87522" lon="2.16958">
        <ele>280</ele>
        <time>2026-01-26T14:55:50.000Z</time>
      </trkpt>
      <trkpt lat="43.87526" lon="2.16957">
        <ele>282</ele>
        <time>2026-01-26T14:55:55.000Z</time>
      </trkpt>
      <trkpt lat="43.87528" lon="2.16957">
        <ele>281</ele>
        <time>2026-01-26T14:56:00.000Z</time>
      </trkpt>
      <trkpt lat="43.87529" lon="2.16958">
        <ele>284</ele>
        <time>2026-01-26T14:56:05.000Z</time>
      </trkpt>
      <trkpt lat="43.8753" lon="2.16958">
        <ele>285</ele>
        <time>2026-01-26T14:56:10.000Z</time>
      </trkpt>
      <trkpt lat="43.8753" lon="2.16957">
        <ele>286</ele>
        <time>2026-01-26T14:56:15.000Z</time>
      </trkpt>
      <trkpt lat="43.87529" lon="2.16956">
        <ele>285</ele>
        <time>2026-01-26T14:56:20.000Z</time>
      </trkpt>
      <trkpt lat="43.8753" lon="2.16956">
        <ele>284</ele>
        <time>2026-01-26T14:56:25.000Z</time>
      </trkpt>
      <trkpt lat="43.87531" lon="2.16956">
        <ele>285</ele>
        <time>2026-01-26T14:56:30.000Z</time>
      </trkpt>
      <trkpt lat="43.87531" lon="2.16955">
        <ele>285</ele>
        <time>2026-01-26T14:56:35.000Z</time>
      </trkpt>
      <trkpt lat="43.87531" lon="2.16956">
        <ele>285</ele>
        <time>2026-01-26T14:56:40.000Z</time>
      </trkpt>
      <trkpt lat="43.87531" lon="2.16956">
        <ele>285</ele>
        <time>2026-01-26T14:56:45.000Z</time>
      </trkpt>
      <trkpt lat="43.87531" lon="2.16955">
        <ele>285</ele>
        <time>2026-01-26T14:56:50.000Z</time>
      </trkpt>
      <trkpt lat="43.87531" lon="2.16955">
        <ele>285</ele>
        <time>2026-01-26T14:56:55.000Z</time>
      </trkpt>
      <trkpt lat="43.87531" lon="2.16956">
        <ele>285</ele>
        <time>2026-01-26T14:57:00.000Z</time>
      </trkpt>
      <trkpt lat="43.87531" lon="2.16957">
        <ele>284</ele>
        <time>2026-01-26T14:57:05.000Z</time>
      </trkpt>
      <trkpt lat="43.8753" lon="2.16958">
        <ele>283</ele>
        <time>2026-01-26T14:57:10.000Z</time>
      </trkpt>
      <trkpt lat="43.87531" lon="2.16959">
        <ele>284</ele>
        <time>2026-01-26T14:57:15.000Z</time>
      </trkpt>
      <trkpt lat="43.8753" lon="2.16958">
        <ele>285</ele>
        <time>2026-01-26T14:57:20.000Z</time>
      </trkpt>
      <trkpt lat="43.87531" lon="2.16957">
        <ele>284</ele>
        <time>2026-01-26T14:57:25.000Z</time>
      </trkpt>
      <trkpt lat="43.8753" lon="2.16957">
        <ele>284</ele>
        <time>2026-01-26T14:57:30.000Z</time>
      </trkpt>
      <trkpt lat="43.8753" lon="2.16957">
        <ele>284</ele>
        <time>2026-01-26T14:57:35.000Z</time>
      </trkpt>
      <trkpt lat="43.87531" lon="2.16956">
        <ele>283</ele>
        <time>2026-01-26T14:57:40.000Z</time>
      </trkpt>
      <trkpt lat="43.87531" lon="2.16958">
        <ele>283</ele>
        <time>2026-01-26T14:57:45.000Z</time>
      </trkpt>
      <trkpt lat="43.87531" lon="2.16958">
        <ele>283</ele>
        <time>2026-01-26T14:57:50.000Z</time>
      </trkpt>
      <trkpt lat="43.8753" lon="2.16958">
        <ele>281</ele>
        <time>2026-01-26T14:57:55.000Z</time>
      </trkpt>
      <trkpt lat="43.8753" lon="2.16958">
        <ele>281</ele>
        <time>2026-01-26T14:58:00.000Z</time>
      </trkpt>
      <trkpt lat="43.87531" lon="2.16958">
        <ele>282</ele>
        <time>2026-01-26T14:58:05.000Z</time>
      </trkpt>
      <trkpt lat="43.87531" lon="2.16958">
        <ele>282</ele>
        <time>2026-01-26T14:58:10.000Z</time>
      </trkpt>
      <trkpt lat="43.87531" lon="2.16958">
        <ele>282</ele>
        <time>2026-01-26T14:58:15.000Z</time>
      </trkpt>
      <trkpt lat="43.87531" lon="2.16959">
        <ele>283</ele>
        <time>2026-01-26T14:58:20.000Z</time>
      </trkpt>
      <trkpt lat="43.87531" lon="2.16959">
        <ele>282</ele>
        <time>2026-01-26T14:58:25.000Z</time>
      </trkpt>
      <trkpt lat="43.8753" lon="2.16959">
        <ele>282</ele>
        <time>2026-01-26T14:58:30.000Z</time>
      </trkpt>
      <trkpt lat="43.8753" lon="2.16959">
        <ele>282</ele>
        <time>2026-01-26T14:58:35.000Z</time>
      </trkpt>
      <trkpt lat="43.87531" lon="2.16956">
        <ele>281</ele>
        <time>2026-01-26T14:58:40.000Z</time>
      </trkpt>
      <trkpt lat="43.87531" lon="2.16955">
        <ele>280</ele>
        <time>2026-01-26T14:58:45.000Z</time>
      </trkpt>
      <trkpt lat="43.87531" lon="2.16955">
        <ele>280</ele>
        <time>2026-01-26T14:58:50.000Z</time>
      </trkpt>
      <trkpt lat="43.87531" lon="2.16956">
        <ele>280</ele>
        <time>2026-01-26T14:58:55.000Z</time>
      </trkpt>
      <trkpt lat="43.87531" lon="2.16955">
        <ele>280</ele>
        <time>2026-01-26T14:59:00.000Z</time>
      </trkpt>
      <trkpt lat="43.8753" lon="2.16955">
        <ele>279</ele>
        <time>2026-01-26T14:59:05.000Z</time>
      </trkpt>
      <trkpt lat="43.8753" lon="2.16957">
        <ele>281</ele>
        <time>2026-01-26T14:59:10.000Z</time>
      </trkpt>
      <trkpt lat="43.8753" lon="2.16957">
        <ele>283</ele>
        <time>2026-01-26T14:59:15.000Z</time>
      </trkpt>
      <trkpt lat="43.87529" lon="2.16959">
        <ele>284</ele>
        <time>2026-01-26T14:59:20.000Z</time>
      </trkpt>
      <trkpt lat="43.87529" lon="2.16958">
        <ele>285</ele>
        <time>2026-01-26T14:59:25.000Z</time>
      </trkpt>
      <trkpt lat="43.87529" lon="2.16958">
        <ele>285</ele>
        <time>2026-01-26T14:59:30.000Z</time>
      </trkpt>
      <trkpt lat="43.87531" lon="2.16959">
        <ele>285</ele>
        <time>2026-01-26T14:59:35.000Z</time>
      </trkpt>
      <trkpt lat="43.87531" lon="2.16958">
        <ele>285</ele>
        <time>2026-01-26T14:59:40.000Z</time>
      </trkpt>
      <trkpt lat="43.87532" lon="2.16957">
        <ele>285</ele>
        <time>2026-01-26T14:59:45.000Z</time>
      </trkpt>
      <trkpt lat="43.87532" lon="2.16957">
        <ele>285</ele>
        <time>2026-01-26T14:59:50.000Z</time>
      </trkpt>
      <trkpt lat="43.87532" lon="2.16956">
        <ele>284</ele>
        <time>2026-01-26T14:59:55.000Z</time>
      </trkpt>
      <trkpt lat="43.87532" lon="2.16957">
        <ele>284</ele>
        <time>2026-01-26T15:00:00.000Z</time>
      </trkpt>
      <trkpt lat="43.87532" lon="2.16957">
        <ele>284</ele>
        <time>2026-01-26T15:00:05.000Z</time>
      </trkpt>
      <trkpt lat="43.87531" lon="2.16957">
        <ele>284</ele>
        <time>2026-01-26T15:00:10.000Z</time>
      </trkpt>
      <trkpt lat="43.87531" lon="2.16956">
        <ele>284</ele>
        <time>2026-01-26T15:00:15.000Z</time>
      </trkpt>
      <trkpt lat="43.87531" lon="2.16955">
        <ele>283</ele>
        <time>2026-01-26T15:00:20.000Z</time>
      </trkpt>
      <trkpt lat="43.8753" lon="2.16955">
        <ele>282</ele>
        <time>2026-01-26T15:00:25.000Z</time>
      </trkpt>
      <trkpt lat="43.87531" lon="2.16955">
        <ele>281</ele>
        <time>2026-01-26T15:00:30.000Z</time>
      </trkpt>
      <trkpt lat="43.87531" lon="2.16955">
        <ele>281</ele>
        <time>2026-01-26T15:00:35.000Z</time>
      </trkpt>
      <trkpt lat="43.87531" lon="2.16955">
        <ele>281</ele>
        <time>2026-01-26T15:00:40.000Z</time>
      </trkpt>
      <trkpt lat="43.87531" lon="2.16955">
        <ele>281</ele>
        <time>2026-01-26T15:00:45.000Z</time>
      </trkpt>
      <trkpt lat="43.87531" lon="2.16955">
        <ele>281</ele>
        <time>2026-01-26T15:00:50.000Z</time>
      </trkpt>
      <trkpt lat="43.8753" lon="2.16955">
        <ele>280</ele>
        <time>2026-01-26T15:00:55.000Z</time>
      </trkpt>
      <trkpt lat="43.87531" lon="2.16957">
        <ele>278</ele>
        <time>2026-01-26T15:01:00.000Z</time>
      </trkpt>
      <trkpt lat="43.87529" lon="2.16956">
        <ele>279</ele>
        <time>2026-01-26T15:01:05.000Z</time>
      </trkpt>
      <trkpt lat="43.8753" lon="2.16957">
        <ele>281</ele>
        <time>2026-01-26T15:01:10.000Z</time>
      </trkpt>
      <trkpt lat="43.87528" lon="2.16955">
        <ele>281</ele>
        <time>2026-01-26T15:01:15.000Z</time>
      </trkpt>
      <trkpt lat="43.87526" lon="2.16958">
        <ele>281</ele>
        <time>2026-01-26T15:01:20.000Z</time>
      </trkpt>
      <trkpt lat="43.87526" lon="2.16959">
        <ele>280</ele>
        <time>2026-01-26T15:01:25.000Z</time>
      </trkpt>
      <trkpt lat="43.87526" lon="2.16959">
        <ele>281</ele>
        <time>2026-01-26T15:01:30.000Z</time>
      </trkpt>
      <trkpt lat="43.87526" lon="2.16959">
        <ele>281</ele>
        <time>2026-01-26T15:01:35.000Z</time>
      </trkpt>
      <trkpt lat="43.87527" lon="2.16959">
        <ele>280</ele>
        <time>2026-01-26T15:01:40.000Z</time>
      </trkpt>
      <trkpt lat="43.87527" lon="2.16959">
        <ele>282</ele>
        <time>2026-01-26T15:01:45.000Z</time>
      </trkpt>
      <trkpt lat="43.87526" lon="2.16957">
        <ele>281</ele>
        <time>2026-01-26T15:01:50.000Z</time>
      </trkpt>
      <trkpt lat="43.87527" lon="2.16955">
        <ele>282</ele>
        <time>2026-01-26T15:01:55.000Z</time>
      </trkpt>
      <trkpt lat="43.8753" lon="2.16955">
        <ele>281</ele>
        <time>2026-01-26T15:02:00.000Z</time>
      </trkpt>
      <trkpt lat="43.8753" lon="2.16955">
        <ele>282</ele>
        <time>2026-01-26T15:02:05.000Z</time>
      </trkpt>
      <trkpt lat="43.87531" lon="2.16955">
        <ele>283</ele>
        <time>2026-01-26T15:02:10.000Z</time>
      </trkpt>
      <trkpt lat="43.87531" lon="2.16957">
        <ele>282</ele>
        <time>2026-01-26T15:02:15.000Z</time>
      </trkpt>
      <trkpt lat="43.87531" lon="2.16955">
        <ele>283</ele>
        <time>2026-01-26T15:02:20.000Z</time>
      </trkpt>
      <trkpt lat="43.87531" lon="2.16954">
        <ele>284</ele>
        <time>2026-01-26T15:02:25.000Z</time>
      </trkpt>
      <trkpt lat="43.87532" lon="2.16955">
        <ele>283</ele>
        <time>2026-01-26T15:02:30.000Z</time>
      </trkpt>
      <trkpt lat="43.87532" lon="2.16955">
        <ele>282</ele>
        <time>2026-01-26T15:02:35.000Z</time>
      </trkpt>
      <trkpt lat="43.8753" lon="2.16957">
        <ele>282</ele>
        <time>2026-01-26T15:02:40.000Z</time>
      </trkpt>
      <trkpt lat="43.8753" lon="2.16957">
        <ele>282</ele>
        <time>2026-01-26T15:02:45.000Z</time>
      </trkpt>
      <trkpt lat="43.8753" lon="2.16957">
        <ele>283</ele>
        <time>2026-01-26T15:02:50.000Z</time>
      </trkpt>
      <trkpt lat="43.87531" lon="2.16956">
        <ele>285</ele>
        <time>2026-01-26T15:02:55.000Z</time>
      </trkpt>
      <trkpt lat="43.87531" lon="2.16956">
        <ele>284</ele>
        <time>2026-01-26T15:03:00.000Z</time>
      </trkpt>
      <trkpt lat="43.8753" lon="2.16955">
        <ele>285</ele>
        <time>2026-01-26T15:03:05.000Z</time>
      </trkpt>
      <trkpt lat="43.87529" lon="2.16955">
        <ele>285</ele>
        <time>2026-01-26T15:03:10.000Z</time>
      </trkpt>
      <trkpt lat="43.87529" lon="2.16955">
        <ele>285</ele>
        <time>2026-01-26T15:03:15.000Z</time>
      </trkpt>
      <trkpt lat="43.8753" lon="2.16957">
        <ele>285</ele>
        <time>2026-01-26T15:03:20.000Z</time>
      </trkpt>
      <trkpt lat="43.8753" lon="2.16957">
        <ele>285</ele>
        <time>2026-01-26T15:03:25.000Z</time>
      </trkpt>
      <trkpt lat="43.8753" lon="2.16955">
        <ele>284</ele>
        <time>2026-01-26T15:03:30.000Z</time>
      </trkpt>
      <trkpt lat="43.87529" lon="2.16955">
        <ele>284</ele>
        <time>2026-01-26T15:03:35.000Z</time>
      </trkpt>
      <trkpt lat="43.87529" lon="2.16955">
        <ele>284</ele>
        <time>2026-01-26T15:03:40.000Z</time>
      </trkpt>
      <trkpt lat="43.87529" lon="2.16955">
        <ele>284</ele>
        <time>2026-01-26T15:03:45.000Z</time>
      </trkpt>
      <trkpt lat="43.87529" lon="2.16955">
        <ele>284</ele>
        <time>2026-01-26T15:03:50.000Z</time>
      </trkpt>
      <trkpt lat="43.87529" lon="2.16955">
        <ele>284</ele>
        <time>2026-01-26T15:03:55.000Z</time>
      </trkpt>
      <trkpt lat="43.87529" lon="2.16955">
        <ele>284</ele>
        <time>2026-01-26T15:04:00.000Z</time>
      </trkpt>
      <trkpt lat="43.87529" lon="2.16955">
        <ele>284</ele>
        <time>2026-01-26T15:04:05.000Z</time>
      </trkpt>
      <trkpt lat="43.87529" lon="2.16955">
        <ele>284</ele>
        <time>2026-01-26T15:04:10.000Z</time>
      </trkpt>
      <trkpt lat="43.87529" lon="2.16955">
        <ele>284</ele>
        <time>2026-01-26T15:04:15.000Z</time>
      </trkpt>
      <trkpt lat="43.87529" lon="2.16955">
        <ele>284</ele>
        <time>2026-01-26T15:04:20.000Z</time>
      </trkpt>
      <trkpt lat="43.87529" lon="2.16955">
        <ele>284</ele>
        <time>2026-01-26T15:04:25.000Z</time>
      </trkpt>
      <trkpt lat="43.87529" lon="2.16955">
        <ele>284</ele>
        <time>2026-01-26T15:04:30.000Z</time>
      </trkpt>
      <trkpt lat="43.87529" lon="2.16955">
        <ele>284</ele>
        <time>2026-01-26T15:04:35.000Z</time>
      </trkpt>
      <trkpt lat="43.87529" lon="2.16955">
        <ele>284</ele>
        <time>2026-01-26T15:04:40.000Z</time>
      </trkpt>
      <trkpt lat="43.87529" lon="2.16955">
        <ele>284</ele>
        <time>2026-01-26T15:04:45.000Z</time>
      </trkpt>
      <trkpt lat="43.87529" lon="2.16955">
        <ele>284</ele>
        <time>2026-01-26T15:04:50.000Z</time>
      </trkpt>
      <trkpt lat="43.87529" lon="2.16955">
        <ele>284</ele>
        <time>2026-01-26T15:04:55.000Z</time>
      </trkpt>
      <trkpt lat="43.87529" lon="2.16956">
        <ele>285</ele>
        <time>2026-01-26T15:05:00.000Z</time>
      </trkpt>
      <trkpt lat="43.87529" lon="2.16956">
        <ele>285</ele>
        <time>2026-01-26T15:05:05.000Z</time>
      </trkpt>
      <trkpt lat="43.8753" lon="2.16957">
        <ele>285</ele>
        <time>2026-01-26T15:05:10.000Z</time>
      </trkpt>
      <trkpt lat="43.8753" lon="2.16958">
        <ele>286</ele>
        <time>2026-01-26T15:05:15.000Z</time>
      </trkpt>
      <trkpt lat="43.8753" lon="2.16956">
        <ele>286</ele>
        <time>2026-01-26T15:05:20.000Z</time>
      </trkpt>
      <trkpt lat="43.8753" lon="2.16956">
        <ele>286</ele>
        <time>2026-01-26T15:05:25.000Z</time>
      </trkpt>
      <trkpt lat="43.8753" lon="2.16955">
        <ele>286</ele>
        <time>2026-01-26T15:05:30.000Z</time>
      </trkpt>
      <trkpt lat="43.87531" lon="2.16955">
        <ele>286</ele>
        <time>2026-01-26T15:05:35.000Z</time>
      </trkpt>
      <trkpt lat="43.87531" lon="2.16955">
        <ele>286</ele>
        <time>2026-01-26T15:05:40.000Z</time>
      </trkpt>
      <trkpt lat="43.87531" lon="2.16955">
        <ele>286</ele>
        <time>2026-01-26T15:05:45.000Z</time>
      </trkpt>
      <trkpt lat="43.87531" lon="2.16956">
        <ele>288</ele>
        <time>2026-01-26T15:05:50.000Z</time>
      </trkpt>
      <trkpt lat="43.87531" lon="2.16957">
        <ele>289</ele>
        <time>2026-01-26T15:05:55.000Z</time>
      </trkpt>
      <trkpt lat="43.87531" lon="2.16957">
        <ele>289</ele>
        <time>2026-01-26T15:06:00.000Z</time>
      </trkpt>
      <trkpt lat="43.87531" lon="2.16956">
        <ele>288</ele>
        <time>2026-01-26T15:06:05.000Z</time>
      </trkpt>
      <trkpt lat="43.87531" lon="2.16956">
        <ele>287</ele>
        <time>2026-01-26T15:06:10.000Z</time>
      </trkpt>
      <trkpt lat="43.87531" lon="2.16957">
        <ele>287</ele>
        <time>2026-01-26T15:06:15.000Z</time>
      </trkpt>
      <trkpt lat="43.87531" lon="2.16958">
        <ele>285</ele>
        <time>2026-01-26T15:06:20.000Z</time>
      </trkpt>
      <trkpt lat="43.87531" lon="2.1696">
        <ele>285</ele>
        <time>2026-01-26T15:06:25.000Z</time>
      </trkpt>
      <trkpt lat="43.87532" lon="2.1696">
        <ele>286</ele>
        <time>2026-01-26T15:06:30.000Z</time>
      </trkpt>
      <trkpt lat="43.87532" lon="2.1696">
        <ele>286</ele>
        <time>2026-01-26T15:06:35.000Z</time>
      </trkpt>
      <trkpt lat="43.87532" lon="2.1696">
        <ele>286</ele>
        <time>2026-01-26T15:06:40.000Z</time>
      </trkpt>
      <trkpt lat="43.87532" lon="2.1696">
        <ele>286</ele>
        <time>2026-01-26T15:06:45.000Z</time>
      </trkpt>
      <trkpt lat="43.87532" lon="2.1696">
        <ele>284</ele>
        <time>2026-01-26T15:06:50.000Z</time>
      </trkpt>
      <trkpt lat="43.87532" lon="2.1696">
        <ele>284</ele>
        <time>2026-01-26T15:06:55.000Z</time>
      </trkpt>
      <trkpt lat="43.87531" lon="2.1696">
        <ele>283</ele>
        <time>2026-01-26T15:07:00.000Z</time>
      </trkpt>
      <trkpt lat="43.87532" lon="2.1696">
        <ele>284</ele>
        <time>2026-01-26T15:07:05.000Z</time>
      </trkpt>
      <trkpt lat="43.87532" lon="2.16961">
        <ele>283</ele>
        <time>2026-01-26T15:07:10.000Z</time>
      </trkpt>
      <trkpt lat="43.87533" lon="2.16962">
        <ele>283</ele>
        <time>2026-01-26T15:07:15.000Z</time>
      </trkpt>
      <trkpt lat="43.87533" lon="2.16962">
        <ele>281</ele>
        <time>2026-01-26T15:07:20.000Z</time>
      </trkpt>
      <trkpt lat="43.87533" lon="2.16959">
        <ele>280</ele>
        <time>2026-01-26T15:07:25.000Z</time>
      </trkpt>
      <trkpt lat="43.87533" lon="2.16959">
        <ele>280</ele>
        <time>2026-01-26T15:07:30.000Z</time>
      </trkpt>
      <trkpt lat="43.87533" lon="2.16959">
        <ele>280</ele>
        <time>2026-01-26T15:07:35.000Z</time>
      </trkpt>
      <trkpt lat="43.87533" lon="2.16959">
        <ele>280</ele>
        <time>2026-01-26T15:07:40.000Z</time>
      </trkpt>
      <trkpt lat="43.87533" lon="2.16959">
        <ele>281</ele>
        <time>2026-01-26T15:07:45.000Z</time>
      </trkpt>
      <trkpt lat="43.87533" lon="2.16959">
        <ele>281</ele>
        <time>2026-01-26T15:07:50.000Z</time>
      </trkpt>
      <trkpt lat="43.87533" lon="2.16959">
        <ele>281</ele>
        <time>2026-01-26T15:07:55.000Z</time>
      </trkpt>
      <trkpt lat="43.87532" lon="2.1696">
        <ele>283</ele>
        <time>2026-01-26T15:08:00.000Z</time>
      </trkpt>
      <trkpt lat="43.87532" lon="2.1696">
        <ele>283</ele>
        <time>2026-01-26T15:08:05.000Z</time>
      </trkpt>
      <trkpt lat="43.87532" lon="2.1696">
        <ele>283</ele>
        <time>2026-01-26T15:08:10.000Z</time>
      </trkpt>
      <trkpt lat="43.87532" lon="2.1696">
        <ele>283</ele>
        <time>2026-01-26T15:08:15.000Z</time>
      </trkpt>
      <trkpt lat="43.87532" lon="2.1696">
        <ele>283</ele>
        <time>2026-01-26T15:08:20.000Z</time>
      </trkpt>
      <trkpt lat="43.87532" lon="2.16959">
        <ele>283</ele>
        <time>2026-01-26T15:08:25.000Z</time>
      </trkpt>
      <trkpt lat="43.87532" lon="2.16956">
        <ele>283</ele>
        <time>2026-01-26T15:08:30.000Z</time>
      </trkpt>
      <trkpt lat="43.87531" lon="2.16957">
        <ele>282</ele>
        <time>2026-01-26T15:08:35.000Z</time>
      </trkpt>
      <trkpt lat="43.87531" lon="2.16957">
        <ele>282</ele>
        <time>2026-01-26T15:08:40.000Z</time>
      </trkpt>
      <trkpt lat="43.87531" lon="2.16956">
        <ele>282</ele>
        <time>2026-01-26T15:08:45.000Z</time>
      </trkpt>
      <trkpt lat="43.87531" lon="2.16958">
        <ele>281</ele>
        <time>2026-01-26T15:08:50.000Z</time>
      </trkpt>
      <trkpt lat="43.87532" lon="2.16959">
        <ele>280</ele>
        <time>2026-01-26T15:08:55.000Z</time>
      </trkpt>
      <trkpt lat="43.87532" lon="2.16956">
        <ele>280</ele>
        <time>2026-01-26T15:09:00.000Z</time>
      </trkpt>
      <trkpt lat="43.87533" lon="2.16953">
        <ele>280</ele>
        <time>2026-01-26T15:09:05.000Z</time>
      </trkpt>
      <trkpt lat="43.87533" lon="2.16954">
        <ele>279</ele>
        <time>2026-01-26T15:09:10.000Z</time>
      </trkpt>
      <trkpt lat="43.87531" lon="2.16957">
        <ele>280</ele>
        <time>2026-01-26T15:09:15.000Z</time>
      </trkpt>
      <trkpt lat="43.87532" lon="2.16957">
        <ele>280</ele>
        <time>2026-01-26T15:09:20.000Z</time>
      </trkpt>
      <trkpt lat="43.87532" lon="2.16956">
        <ele>280</ele>
        <time>2026-01-26T15:09:25.000Z</time>
      </trkpt>
      <trkpt lat="43.87532" lon="2.16955">
        <ele>282</ele>
        <time>2026-01-26T15:09:30.000Z</time>
      </trkpt>
      <trkpt lat="43.87532" lon="2.16953">
        <ele>282</ele>
        <time>2026-01-26T15:09:35.000Z</time>
      </trkpt>
      <trkpt lat="43.87536" lon="2.16949">
        <ele>282</ele>
        <time>2026-01-26T15:09:40.000Z</time>
      </trkpt>
      <trkpt lat="43.87537" lon="2.16948">
        <ele>281</ele>
        <time>2026-01-26T15:09:45.000Z</time>
      </trkpt>
      <trkpt lat="43.8754" lon="2.16949">
        <ele>281</ele>
        <time>2026-01-26T15:09:50.000Z</time>
      </trkpt>
      <trkpt lat="43.87543" lon="2.16948">
        <ele>280</ele>
        <time>2026-01-26T15:09:55.000Z</time>
      </trkpt>
      <trkpt lat="43.87548" lon="2.16945">
        <ele>281</ele>
        <time>2026-01-26T15:10:00.000Z</time>
      </trkpt>
      <trkpt lat="43.87553" lon="2.16943">
        <ele>283</ele>
        <time>2026-01-26T15:10:05.000Z</time>
      </trkpt>
      <trkpt lat="43.87558" lon="2.16941">
        <ele>286</ele>
        <time>2026-01-26T15:10:10.000Z</time>
      </trkpt>
      <trkpt lat="43.87563" lon="2.16941">
        <ele>286</ele>
        <time>2026-01-26T15:10:15.000Z</time>
      </trkpt>
      <trkpt lat="43.87568" lon="2.1694">
        <ele>287</ele>
        <time>2026-01-26T15:10:20.000Z</time>
      </trkpt>
      <trkpt lat="43.87571" lon="2.16937">
        <ele>287</ele>
        <time>2026-01-26T15:10:25.000Z</time>
      </trkpt>
      <trkpt lat="43.87576" lon="2.16935">
        <ele>287</ele>
        <time>2026-01-26T15:10:30.000Z</time>
      </trkpt>
      <trkpt lat="43.8758" lon="2.16934">
        <ele>287</ele>
        <time>2026-01-26T15:10:35.000Z</time>
      </trkpt>
      <trkpt lat="43.87584" lon="2.16931">
        <ele>287</ele>
        <time>2026-01-26T15:10:40.000Z</time>
      </trkpt>
      <trkpt lat="43.87587" lon="2.16931">
        <ele>288</ele>
        <time>2026-01-26T15:10:45.000Z</time>
      </trkpt>
      <trkpt lat="43.87591" lon="2.16929">
        <ele>290</ele>
        <time>2026-01-26T15:10:50.000Z</time>
      </trkpt>
      <trkpt lat="43.87595" lon="2.16928">
        <ele>289</ele>
        <time>2026-01-26T15:10:55.000Z</time>
      </trkpt>
      <trkpt lat="43.87598" lon="2.16926">
        <ele>288</ele>
        <time>2026-01-26T15:11:00.000Z</time>
      </trkpt>
      <trkpt lat="43.87603" lon="2.16925">
        <ele>290</ele>
        <time>2026-01-26T15:11:05.000Z</time>
      </trkpt>
      <trkpt lat="43.87606" lon="2.16924">
        <ele>288</ele>
        <time>2026-01-26T15:11:10.000Z</time>
      </trkpt>
      <trkpt lat="43.87609" lon="2.16921">
        <ele>287</ele>
        <time>2026-01-26T15:11:15.000Z</time>
      </trkpt>
      <trkpt lat="43.87614" lon="2.16919">
        <ele>287</ele>
        <time>2026-01-26T15:11:20.000Z</time>
      </trkpt>
      <trkpt lat="43.87617" lon="2.16919">
        <ele>287</ele>
        <time>2026-01-26T15:11:25.000Z</time>
      </trkpt>
      <trkpt lat="43.87621" lon="2.16918">
        <ele>287</ele>
        <time>2026-01-26T15:11:30.000Z</time>
      </trkpt>
      <trkpt lat="43.87625" lon="2.16916">
        <ele>286</ele>
        <time>2026-01-26T15:11:35.000Z</time>
      </trkpt>
      <trkpt lat="43.87628" lon="2.16916">
        <ele>288</ele>
        <time>2026-01-26T15:11:40.000Z</time>
      </trkpt>
      <trkpt lat="43.87632" lon="2.16914">
        <ele>287</ele>
        <time>2026-01-26T15:11:45.000Z</time>
      </trkpt>
      <trkpt lat="43.87636" lon="2.16911">
        <ele>286</ele>
        <time>2026-01-26T15:11:50.000Z</time>
      </trkpt>
      <trkpt lat="43.8764" lon="2.16911">
        <ele>286</ele>
        <time>2026-01-26T15:11:55.000Z</time>
      </trkpt>
      <trkpt lat="43.87643" lon="2.1691">
        <ele>287</ele>
        <time>2026-01-26T15:12:00.000Z</time>
      </trkpt>
      <trkpt lat="43.87646" lon="2.16909">
        <ele>285</ele>
        <time>2026-01-26T15:12:05.000Z</time>
      </trkpt>
      <trkpt lat="43.87649" lon="2.16906">
        <ele>284</ele>
        <time>2026-01-26T15:12:10.000Z</time>
      </trkpt>
      <trkpt lat="43.87653" lon="2.16903">
        <ele>285</ele>
        <time>2026-01-26T15:12:15.000Z</time>
      </trkpt>
      <trkpt lat="43.87656" lon="2.16903">
        <ele>285</ele>
        <time>2026-01-26T15:12:20.000Z</time>
      </trkpt>
      <trkpt lat="43.87659" lon="2.16902">
        <ele>285</ele>
        <time>2026-01-26T15:12:25.000Z</time>
      </trkpt>
      <trkpt lat="43.87663" lon="2.169">
        <ele>284</ele>
        <time>2026-01-26T15:12:30.000Z</time>
      </trkpt>
      <trkpt lat="43.87666" lon="2.16898">
        <ele>284</ele>
        <time>2026-01-26T15:12:35.000Z</time>
      </trkpt>
      <trkpt lat="43.8767" lon="2.16896">
        <ele>283</ele>
        <time>2026-01-26T15:12:40.000Z</time>
      </trkpt>
      <trkpt lat="43.87672" lon="2.16894">
        <ele>283</ele>
        <time>2026-01-26T15:12:45.000Z</time>
      </trkpt>
      <trkpt lat="43.87676" lon="2.16891">
        <ele>284</ele>
        <time>2026-01-26T15:12:50.000Z</time>
      </trkpt>
      <trkpt lat="43.87679" lon="2.16889">
        <ele>285</ele>
        <time>2026-01-26T15:12:55.000Z</time>
      </trkpt>
      <trkpt lat="43.87684" lon="2.16886">
        <ele>285</ele>
        <time>2026-01-26T15:13:00.000Z</time>
      </trkpt>
      <trkpt lat="43.87687" lon="2.16884">
        <ele>284</ele>
        <time>2026-01-26T15:13:05.000Z</time>
      </trkpt>
      <trkpt lat="43.8769" lon="2.16882">
        <ele>283</ele>
        <time>2026-01-26T15:13:10.000Z</time>
      </trkpt>
      <trkpt lat="43.87693" lon="2.16879">
        <ele>283</ele>
        <time>2026-01-26T15:13:15.000Z</time>
      </trkpt>
      <trkpt lat="43.87697" lon="2.16876">
        <ele>284</ele>
        <time>2026-01-26T15:13:20.000Z</time>
      </trkpt>
      <trkpt lat="43.87701" lon="2.16874">
        <ele>283</ele>
        <time>2026-01-26T15:13:25.000Z</time>
      </trkpt>
      <trkpt lat="43.87703" lon="2.16871">
        <ele>284</ele>
        <time>2026-01-26T15:13:30.000Z</time>
      </trkpt>
      <trkpt lat="43.87706" lon="2.16867">
        <ele>284</ele>
        <time>2026-01-26T15:13:35.000Z</time>
      </trkpt>
      <trkpt lat="43.87708" lon="2.16863">
        <ele>283</ele>
        <time>2026-01-26T15:13:40.000Z</time>
      </trkpt>
      <trkpt lat="43.87713" lon="2.16861">
        <ele>281</ele>
        <time>2026-01-26T15:13:45.000Z</time>
      </trkpt>
      <trkpt lat="43.87716" lon="2.16857">
        <ele>281</ele>
        <time>2026-01-26T15:13:50.000Z</time>
      </trkpt>
      <trkpt lat="43.8772" lon="2.16854">
        <ele>281</ele>
        <time>2026-01-26T15:13:55.000Z</time>
      </trkpt>
      <trkpt lat="43.87724" lon="2.1685">
        <ele>281</ele>
        <time>2026-01-26T15:14:00.000Z</time>
      </trkpt>
      <trkpt lat="43.87727" lon="2.16847">
        <ele>281</ele>
        <time>2026-01-26T15:14:05.000Z</time>
      </trkpt>
      <trkpt lat="43.87731" lon="2.16841">
        <ele>282</ele>
        <time>2026-01-26T15:14:10.000Z</time>
      </trkpt>
      <trkpt lat="43.87735" lon="2.16837">
        <ele>281</ele>
        <time>2026-01-26T15:14:15.000Z</time>
      </trkpt>
      <trkpt lat="43.87739" lon="2.16834">
        <ele>280</ele>
        <time>2026-01-26T15:14:20.000Z</time>
      </trkpt>
      <trkpt lat="43.87742" lon="2.1683">
        <ele>278</ele>
        <time>2026-01-26T15:14:25.000Z</time>
      </trkpt>
      <trkpt lat="43.87746" lon="2.16824">
        <ele>278</ele>
        <time>2026-01-26T15:14:30.000Z</time>
      </trkpt>
      <trkpt lat="43.87749" lon="2.16821">
        <ele>277</ele>
        <time>2026-01-26T15:14:35.000Z</time>
      </trkpt>
      <trkpt lat="43.87753" lon="2.16814">
        <ele>276</ele>
        <time>2026-01-26T15:14:40.000Z</time>
      </trkpt>
      <trkpt lat="43.87756" lon="2.16809">
        <ele>275</ele>
        <time>2026-01-26T15:14:45.000Z</time>
      </trkpt>
      <trkpt lat="43.8776" lon="2.16808">
        <ele>275</ele>
        <time>2026-01-26T15:14:50.000Z</time>
      </trkpt>
      <trkpt lat="43.87763" lon="2.16803">
        <ele>274</ele>
        <time>2026-01-26T15:14:55.000Z</time>
      </trkpt>
      <trkpt lat="43.87765" lon="2.16799">
        <ele>273</ele>
        <time>2026-01-26T15:15:00.000Z</time>
      </trkpt>
      <trkpt lat="43.87768" lon="2.16793">
        <ele>271</ele>
        <time>2026-01-26T15:15:05.000Z</time>
      </trkpt>
      <trkpt lat="43.8777" lon="2.16788">
        <ele>270</ele>
        <time>2026-01-26T15:15:10.000Z</time>
      </trkpt>
      <trkpt lat="43.87773" lon="2.16783">
        <ele>269</ele>
        <time>2026-01-26T15:15:15.000Z</time>
      </trkpt>
      <trkpt lat="43.87778" lon="2.1678">
        <ele>267</ele>
        <time>2026-01-26T15:15:20.000Z</time>
      </trkpt>
      <trkpt lat="43.87783" lon="2.16775">
        <ele>267</ele>
        <time>2026-01-26T15:15:25.000Z</time>
      </trkpt>
      <trkpt lat="43.87786" lon="2.16771">
        <ele>266</ele>
        <time>2026-01-26T15:15:30.000Z</time>
      </trkpt>
      <trkpt lat="43.87788" lon="2.16766">
        <ele>264</ele>
        <time>2026-01-26T15:15:35.000Z</time>
      </trkpt>
      <trkpt lat="43.87791" lon="2.16761">
        <ele>263</ele>
        <time>2026-01-26T15:15:40.000Z</time>
      </trkpt>
      <trkpt lat="43.87794" lon="2.16755">
        <ele>262</ele>
        <time>2026-01-26T15:15:45.000Z</time>
      </trkpt>
      <trkpt lat="43.87797" lon="2.16751">
        <ele>261</ele>
        <time>2026-01-26T15:15:50.000Z</time>
      </trkpt>
      <trkpt lat="43.87799" lon="2.16744">
        <ele>261</ele>
        <time>2026-01-26T15:15:55.000Z</time>
      </trkpt>
      <trkpt lat="43.87801" lon="2.16738">
        <ele>260</ele>
        <time>2026-01-26T15:16:00.000Z</time>
      </trkpt>
      <trkpt lat="43.87804" lon="2.16732">
        <ele>261</ele>
        <time>2026-01-26T15:16:05.000Z</time>
      </trkpt>
      <trkpt lat="43.87807" lon="2.16725">
        <ele>261</ele>
        <time>2026-01-26T15:16:10.000Z</time>
      </trkpt>
      <trkpt lat="43.8781" lon="2.16718">
        <ele>261</ele>
        <time>2026-01-26T15:16:15.000Z</time>
      </trkpt>
      <trkpt lat="43.87812" lon="2.16711">
        <ele>261</ele>
        <time>2026-01-26T15:16:20.000Z</time>
      </trkpt>
      <trkpt lat="43.87815" lon="2.16705">
        <ele>261</ele>
        <time>2026-01-26T15:16:25.000Z</time>
      </trkpt>
      <trkpt lat="43.87819" lon="2.167">
        <ele>260</ele>
        <time>2026-01-26T15:16:30.000Z</time>
      </trkpt>
      <trkpt lat="43.87821" lon="2.16695">
        <ele>260</ele>
        <time>2026-01-26T15:16:35.000Z</time>
      </trkpt>
      <trkpt lat="43.87824" lon="2.16689">
        <ele>261</ele>
        <time>2026-01-26T15:16:40.000Z</time>
      </trkpt>
      <trkpt lat="43.87826" lon="2.16684">
        <ele>260</ele>
        <time>2026-01-26T15:16:45.000Z</time>
      </trkpt>
      <trkpt lat="43.87829" lon="2.16678">
        <ele>260</ele>
        <time>2026-01-26T15:16:50.000Z</time>
      </trkpt>
      <trkpt lat="43.87832" lon="2.16674">
        <ele>260</ele>
        <time>2026-01-26T15:16:55.000Z</time>
      </trkpt>
      <trkpt lat="43.87835" lon="2.16668">
        <ele>259</ele>
        <time>2026-01-26T15:17:00.000Z</time>
      </trkpt>
      <trkpt lat="43.87838" lon="2.16661">
        <ele>260</ele>
        <time>2026-01-26T15:17:05.000Z</time>
      </trkpt>
      <trkpt lat="43.87841" lon="2.16657">
        <ele>260</ele>
        <time>2026-01-26T15:17:10.000Z</time>
      </trkpt>
      <trkpt lat="43.87844" lon="2.16652">
        <ele>260</ele>
        <time>2026-01-26T15:17:15.000Z</time>
      </trkpt>
      <trkpt lat="43.87846" lon="2.16646">
        <ele>261</ele>
        <time>2026-01-26T15:17:20.000Z</time>
      </trkpt>
      <trkpt lat="43.87848" lon="2.16638">
        <ele>259</ele>
        <time>2026-01-26T15:17:25.000Z</time>
      </trkpt>
      <trkpt lat="43.8785" lon="2.16631">
        <ele>258</ele>
        <time>2026-01-26T15:17:30.000Z</time>
      </trkpt>
      <trkpt lat="43.87853" lon="2.16624">
        <ele>258</ele>
        <time>2026-01-26T15:17:35.000Z</time>
      </trkpt>
      <trkpt lat="43.87854" lon="2.1662">
        <ele>257</ele>
        <time>2026-01-26T15:17:40.000Z</time>
      </trkpt>
      <trkpt lat="43.87858" lon="2.16616">
        <ele>256</ele>
        <time>2026-01-26T15:17:45.000Z</time>
      </trkpt>
      <trkpt lat="43.87859" lon="2.1661">
        <ele>255</ele>
        <time>2026-01-26T15:17:50.000Z</time>
      </trkpt>
      <trkpt lat="43.87863" lon="2.16602">
        <ele>255</ele>
        <time>2026-01-26T15:17:55.000Z</time>
      </trkpt>
      <trkpt lat="43.87864" lon="2.16594">
        <ele>257</ele>
        <time>2026-01-26T15:18:00.000Z</time>
      </trkpt>
      <trkpt lat="43.87866" lon="2.1659">
        <ele>256</ele>
        <time>2026-01-26T15:18:05.000Z</time>
      </trkpt>
      <trkpt lat="43.87868" lon="2.16585">
        <ele>255</ele>
        <time>2026-01-26T15:18:10.000Z</time>
      </trkpt>
      <trkpt lat="43.87872" lon="2.16579">
        <ele>253</ele>
        <time>2026-01-26T15:18:15.000Z</time>
      </trkpt>
      <trkpt lat="43.87877" lon="2.16573">
        <ele>253</ele>
        <time>2026-01-26T15:18:20.000Z</time>
      </trkpt>
      <trkpt lat="43.87881" lon="2.16566">
        <ele>252</ele>
        <time>2026-01-26T15:18:25.000Z</time>
      </trkpt>
      <trkpt lat="43.87884" lon="2.16558">
        <ele>249</ele>
        <time>2026-01-26T15:18:30.000Z</time>
      </trkpt>
      <trkpt lat="43.87885" lon="2.16552">
        <ele>250</ele>
        <time>2026-01-26T15:18:35.000Z</time>
      </trkpt>
      <trkpt lat="43.87888" lon="2.16544">
        <ele>254</ele>
        <time>2026-01-26T15:18:40.000Z</time>
      </trkpt>
      <trkpt lat="43.87892" lon="2.16538">
        <ele>255</ele>
        <time>2026-01-26T15:18:45.000Z</time>
      </trkpt>
      <trkpt lat="43.87896" lon="2.16532">
        <ele>256</ele>
        <time>2026-01-26T15:18:50.000Z</time>
      </trkpt>
      <trkpt lat="43.879" lon="2.16524">
        <ele>255</ele>
        <time>2026-01-26T15:18:55.000Z</time>
      </trkpt>
      <trkpt lat="43.87904" lon="2.16517">
        <ele>256</ele>
        <time>2026-01-26T15:19:00.000Z</time>
      </trkpt>
      <trkpt lat="43.87907" lon="2.16511">
        <ele>257</ele>
        <time>2026-01-26T15:19:05.000Z</time>
      </trkpt>
      <trkpt lat="43.87909" lon="2.16505">
        <ele>258</ele>
        <time>2026-01-26T15:19:10.000Z</time>
      </trkpt>
      <trkpt lat="43.87913" lon="2.16498">
        <ele>257</ele>
        <time>2026-01-26T15:19:15.000Z</time>
      </trkpt>
      <trkpt lat="43.87916" lon="2.16492">
        <ele>256</ele>
        <time>2026-01-26T15:19:20.000Z</time>
      </trkpt>
      <trkpt lat="43.8792" lon="2.16487">
        <ele>257</ele>
        <time>2026-01-26T15:19:25.000Z</time>
      </trkpt>
      <trkpt lat="43.87924" lon="2.16481">
        <ele>256</ele>
        <time>2026-01-26T15:19:30.000Z</time>
      </trkpt>
      <trkpt lat="43.87929" lon="2.16478">
        <ele>257</ele>
        <time>2026-01-26T15:19:35.000Z</time>
      </trkpt>
      <trkpt lat="43.87933" lon="2.16474">
        <ele>255</ele>
        <time>2026-01-26T15:19:40.000Z</time>
      </trkpt>
      <trkpt lat="43.87936" lon="2.16472">
        <ele>255</ele>
        <time>2026-01-26T15:19:45.000Z</time>
      </trkpt>
      <trkpt lat="43.8794" lon="2.16469">
        <ele>255</ele>
        <time>2026-01-26T15:19:50.000Z</time>
      </trkpt>
      <trkpt lat="43.87945" lon="2.16467">
        <ele>255</ele>
        <time>2026-01-26T15:19:55.000Z</time>
      </trkpt>
      <trkpt lat="43.8795" lon="2.16463">
        <ele>255</ele>
        <time>2026-01-26T15:20:00.000Z</time>
      </trkpt>
      <trkpt lat="43.87956" lon="2.16459">
        <ele>256</ele>
        <time>2026-01-26T15:20:05.000Z</time>
      </trkpt>
      <trkpt lat="43.87961" lon="2.16454">
        <ele>257</ele>
        <time>2026-01-26T15:20:10.000Z</time>
      </trkpt>
      <trkpt lat="43.87967" lon="2.16448">
        <ele>256</ele>
        <time>2026-01-26T15:20:15.000Z</time>
      </trkpt>
      <trkpt lat="43.87972" lon="2.16444">
        <ele>254</ele>
        <time>2026-01-26T15:20:20.000Z</time>
      </trkpt>
      <trkpt lat="43.87975" lon="2.1644">
        <ele>254</ele>
        <time>2026-01-26T15:20:25.000Z</time>
      </trkpt>
      <trkpt lat="43.87981" lon="2.16435">
        <ele>254</ele>
        <time>2026-01-26T15:20:30.000Z</time>
      </trkpt>
      <trkpt lat="43.87986" lon="2.1643">
        <ele>254</ele>
        <time>2026-01-26T15:20:35.000Z</time>
      </trkpt>
      <trkpt lat="43.8799" lon="2.16426">
        <ele>254</ele>
        <time>2026-01-26T15:20:40.000Z</time>
      </trkpt>
      <trkpt lat="43.87995" lon="2.16423">
        <ele>254</ele>
        <time>2026-01-26T15:20:45.000Z</time>
      </trkpt>
      <trkpt lat="43.88" lon="2.1642">
        <ele>255</ele>
        <time>2026-01-26T15:20:50.000Z</time>
      </trkpt>
      <trkpt lat="43.88004" lon="2.16414">
        <ele>254</ele>
        <time>2026-01-26T15:20:55.000Z</time>
      </trkpt>
      <trkpt lat="43.88009" lon="2.16412">
        <ele>253</ele>
        <time>2026-01-26T15:21:00.000Z</time>
      </trkpt>
      <trkpt lat="43.88014" lon="2.16409">
        <ele>254</ele>
        <time>2026-01-26T15:21:05.000Z</time>
      </trkpt>
      <trkpt lat="43.88017" lon="2.16407">
        <ele>254</ele>
        <time>2026-01-26T15:21:10.000Z</time>
      </trkpt>
      <trkpt lat="43.88021" lon="2.16406">
        <ele>256</ele>
        <time>2026-01-26T15:21:15.000Z</time>
      </trkpt>
      <trkpt lat="43.88026" lon="2.16403">
        <ele>257</ele>
        <time>2026-01-26T15:21:20.000Z</time>
      </trkpt>
      <trkpt lat="43.8803" lon="2.16401">
        <ele>256</ele>
        <time>2026-01-26T15:21:25.000Z</time>
      </trkpt>
      <trkpt lat="43.88034" lon="2.164">
        <ele>256</ele>
        <time>2026-01-26T15:21:30.000Z</time>
      </trkpt>
      <trkpt lat="43.8804" lon="2.16396">
        <ele>255</ele>
        <time>2026-01-26T15:21:35.000Z</time>
      </trkpt>
      <trkpt lat="43.88044" lon="2.16393">
        <ele>256</ele>
        <time>2026-01-26T15:21:40.000Z</time>
      </trkpt>
      <trkpt lat="43.88048" lon="2.16391">
        <ele>255</ele>
        <time>2026-01-26T15:21:45.000Z</time>
      </trkpt>
      <trkpt lat="43.88052" lon="2.16389">
        <ele>256</ele>
        <time>2026-01-26T15:21:50.000Z</time>
      </trkpt>
      <trkpt lat="43.88057" lon="2.16386">
        <ele>255</ele>
        <time>2026-01-26T15:21:55.000Z</time>
      </trkpt>
      <trkpt lat="43.88064" lon="2.16385">
        <ele>255</ele>
        <time>2026-01-26T15:22:00.000Z</time>
      </trkpt>
      <trkpt lat="43.88071" lon="2.16382">
        <ele>255</ele>
        <time>2026-01-26T15:22:05.000Z</time>
      </trkpt>
      <trkpt lat="43.88077" lon="2.16383">
        <ele>255</ele>
        <time>2026-01-26T15:22:10.000Z</time>
      </trkpt>
      <trkpt lat="43.88081" lon="2.16382">
        <ele>256</ele>
        <time>2026-01-26T15:22:15.000Z</time>
      </trkpt>
      <trkpt lat="43.88087" lon="2.1638">
        <ele>259</ele>
        <time>2026-01-26T15:22:20.000Z</time>
      </trkpt>
      <trkpt lat="43.88093" lon="2.16377">
        <ele>264</ele>
        <time>2026-01-26T15:22:25.000Z</time>
      </trkpt>
      <trkpt lat="43.881" lon="2.16373">
        <ele>269</ele>
        <time>2026-01-26T15:22:30.000Z</time>
      </trkpt>
      <trkpt lat="43.88105" lon="2.16372">
        <ele>270</ele>
        <time>2026-01-26T15:22:35.000Z</time>
      </trkpt>
      <trkpt lat="43.88111" lon="2.16373">
        <ele>272</ele>
        <time>2026-01-26T15:22:40.000Z</time>
      </trkpt>
      <trkpt lat="43.88115" lon="2.16372">
        <ele>272</ele>
        <time>2026-01-26T15:22:45.000Z</time>
      </trkpt>
      <trkpt lat="43.88121" lon="2.16373">
        <ele>272</ele>
        <time>2026-01-26T15:22:50.000Z</time>
      </trkpt>
      <trkpt lat="43.88125" lon="2.16373">
        <ele>272</ele>
        <time>2026-01-26T15:22:55.000Z</time>
      </trkpt>
      <trkpt lat="43.8813" lon="2.16374">
        <ele>272</ele>
        <time>2026-01-26T15:23:00.000Z</time>
      </trkpt>
      <trkpt lat="43.88136" lon="2.16374">
        <ele>272</ele>
        <time>2026-01-26T15:23:05.000Z</time>
      </trkpt>
      <trkpt lat="43.88142" lon="2.16374">
        <ele>271</ele>
        <time>2026-01-26T15:23:10.000Z</time>
      </trkpt>
      <trkpt lat="43.88144" lon="2.16374">
        <ele>270</ele>
        <time>2026-01-26T15:23:15.000Z</time>
      </trkpt>
      <trkpt lat="43.8815" lon="2.16374">
        <ele>270</ele>
        <time>2026-01-26T15:23:20.000Z</time>
      </trkpt>
      <trkpt lat="43.88156" lon="2.16373">
        <ele>270</ele>
        <time>2026-01-26T15:23:25.000Z</time>
      </trkpt>
      <trkpt lat="43.8816" lon="2.16372">
        <ele>270</ele>
        <time>2026-01-26T15:23:30.000Z</time>
      </trkpt>
      <trkpt lat="43.88163" lon="2.16373">
        <ele>270</ele>
        <time>2026-01-26T15:23:35.000Z</time>
      </trkpt>
      <trkpt lat="43.88165" lon="2.16376">
        <ele>269</ele>
        <time>2026-01-26T15:23:40.000Z</time>
      </trkpt>
      <trkpt lat="43.88173" lon="2.16377">
        <ele>268</ele>
        <time>2026-01-26T15:23:45.000Z</time>
      </trkpt>
      <trkpt lat="43.8818" lon="2.16376">
        <ele>267</ele>
        <time>2026-01-26T15:23:50.000Z</time>
      </trkpt>
      <trkpt lat="43.88186" lon="2.16376">
        <ele>266</ele>
        <time>2026-01-26T15:23:55.000Z</time>
      </trkpt>
      <trkpt lat="43.88192" lon="2.16374">
        <ele>266</ele>
        <time>2026-01-26T15:24:00.000Z</time>
      </trkpt>
      <trkpt lat="43.88198" lon="2.16374">
        <ele>266</ele>
        <time>2026-01-26T15:24:05.000Z</time>
      </trkpt>
      <trkpt lat="43.88204" lon="2.16376">
        <ele>267</ele>
        <time>2026-01-26T15:24:10.000Z</time>
      </trkpt>
      <trkpt lat="43.88209" lon="2.16376">
        <ele>266</ele>
        <time>2026-01-26T15:24:15.000Z</time>
      </trkpt>
      <trkpt lat="43.88213" lon="2.16375">
        <ele>264</ele>
        <time>2026-01-26T15:24:20.000Z</time>
      </trkpt>
      <trkpt lat="43.88218" lon="2.16376">
        <ele>264</ele>
        <time>2026-01-26T15:24:25.000Z</time>
      </trkpt>
      <trkpt lat="43.88221" lon="2.16376">
        <ele>264</ele>
        <time>2026-01-26T15:24:30.000Z</time>
      </trkpt>
      <trkpt lat="43.88225" lon="2.16375">
        <ele>264</ele>
        <time>2026-01-26T15:24:35.000Z</time>
      </trkpt>
      <trkpt lat="43.88232" lon="2.16376">
        <ele>263</ele>
        <time>2026-01-26T15:24:40.000Z</time>
      </trkpt>
      <trkpt lat="43.88237" lon="2.16378">
        <ele>265</ele>
        <time>2026-01-26T15:24:45.000Z</time>
      </trkpt>
      <trkpt lat="43.88242" lon="2.16378">
        <ele>265</ele>
        <time>2026-01-26T15:24:50.000Z</time>
      </trkpt>
      <trkpt lat="43.88246" lon="2.1638">
        <ele>265</ele>
        <time>2026-01-26T15:24:55.000Z</time>
      </trkpt>
      <trkpt lat="43.88251" lon="2.16379">
        <ele>264</ele>
        <time>2026-01-26T15:25:00.000Z</time>
      </trkpt>
      <trkpt lat="43.88255" lon="2.16377">
        <ele>264</ele>
        <time>2026-01-26T15:25:05.000Z</time>
      </trkpt>
      <trkpt lat="43.88262" lon="2.16375">
        <ele>264</ele>
        <time>2026-01-26T15:25:10.000Z</time>
      </trkpt>
      <trkpt lat="43.88267" lon="2.16374">
        <ele>263</ele>
        <time>2026-01-26T15:25:15.000Z</time>
      </trkpt>
      <trkpt lat="43.88273" lon="2.16373">
        <ele>263</ele>
        <time>2026-01-26T15:25:20.000Z</time>
      </trkpt>
      <trkpt lat="43.88279" lon="2.16373">
        <ele>264</ele>
        <time>2026-01-26T15:25:25.000Z</time>
      </trkpt>
      <trkpt lat="43.88284" lon="2.16371">
        <ele>264</ele>
        <time>2026-01-26T15:25:30.000Z</time>
      </trkpt>
      <trkpt lat="43.8829" lon="2.1637">
        <ele>264</ele>
        <time>2026-01-26T15:25:35.000Z</time>
      </trkpt>
      <trkpt lat="43.88295" lon="2.16369">
        <ele>264</ele>
        <time>2026-01-26T15:25:40.000Z</time>
      </trkpt>
      <trkpt lat="43.883" lon="2.16367">
        <ele>263</ele>
        <time>2026-01-26T15:25:45.000Z</time>
      </trkpt>
      <trkpt lat="43.88305" lon="2.16365">
        <ele>261</ele>
        <time>2026-01-26T15:25:50.000Z</time>
      </trkpt>
      <trkpt lat="43.88309" lon="2.16363">
        <ele>261</ele>
        <time>2026-01-26T15:25:55.000Z</time>
      </trkpt>
      <trkpt lat="43.88312" lon="2.1636">
        <ele>261</ele>
        <time>2026-01-26T15:26:00.000Z</time>
      </trkpt>
      <trkpt lat="43.88317" lon="2.1636">
        <ele>263</ele>
        <time>2026-01-26T15:26:05.000Z</time>
      </trkpt>
      <trkpt lat="43.88321" lon="2.16359">
        <ele>262</ele>
        <time>2026-01-26T15:26:10.000Z</time>
      </trkpt>
      <trkpt lat="43.88326" lon="2.16358">
        <ele>263</ele>
        <time>2026-01-26T15:26:15.000Z</time>
      </trkpt>
      <trkpt lat="43.88332" lon="2.16356">
        <ele>261</ele>
        <time>2026-01-26T15:26:20.000Z</time>
      </trkpt>
      <trkpt lat="43.88337" lon="2.16355">
        <ele>260</ele>
        <time>2026-01-26T15:26:25.000Z</time>
      </trkpt>
      <trkpt lat="43.88341" lon="2.16353">
        <ele>261</ele>
        <time>2026-01-26T15:26:30.000Z</time>
      </trkpt>
      <trkpt lat="43.88346" lon="2.16349">
        <ele>260</ele>
        <time>2026-01-26T15:26:35.000Z</time>
      </trkpt>
      <trkpt lat="43.8835" lon="2.16346">
        <ele>258</ele>
        <time>2026-01-26T15:26:40.000Z</time>
      </trkpt>
      <trkpt lat="43.88356" lon="2.16344">
        <ele>257</ele>
        <time>2026-01-26T15:26:45.000Z</time>
      </trkpt>
      <trkpt lat="43.88361" lon="2.16342">
        <ele>256</ele>
        <time>2026-01-26T15:26:50.000Z</time>
      </trkpt>
      <trkpt lat="43.88364" lon="2.1634">
        <ele>255</ele>
        <time>2026-01-26T15:26:55.000Z</time>
      </trkpt>
      <trkpt lat="43.88368" lon="2.16338">
        <ele>254</ele>
        <time>2026-01-26T15:27:00.000Z</time>
      </trkpt>
      <trkpt lat="43.88373" lon="2.16334">
        <ele>253</ele>
        <time>2026-01-26T15:27:05.000Z</time>
      </trkpt>
      <trkpt lat="43.88378" lon="2.16328">
        <ele>254</ele>
        <time>2026-01-26T15:27:10.000Z</time>
      </trkpt>
      <trkpt lat="43.88384" lon="2.16326">
        <ele>252</ele>
        <time>2026-01-26T15:27:15.000Z</time>
      </trkpt>
      <trkpt lat="43.88389" lon="2.16324">
        <ele>252</ele>
        <time>2026-01-26T15:27:20.000Z</time>
      </trkpt>
      <trkpt lat="43.88393" lon="2.16322">
        <ele>252</ele>
        <time>2026-01-26T15:27:25.000Z</time>
      </trkpt>
      <trkpt lat="43.88397" lon="2.16321">
        <ele>252</ele>
        <time>2026-01-26T15:27:30.000Z</time>
      </trkpt>
      <trkpt lat="43.88401" lon="2.16318">
        <ele>251</ele>
        <time>2026-01-26T15:27:35.000Z</time>
      </trkpt>
      <trkpt lat="43.88404" lon="2.16317">
        <ele>251</ele>
        <time>2026-01-26T15:27:40.000Z</time>
      </trkpt>
      <trkpt lat="43.8841" lon="2.16315">
        <ele>250</ele>
        <time>2026-01-26T15:27:45.000Z</time>
      </trkpt>
      <trkpt lat="43.88415" lon="2.16312">
        <ele>248</ele>
        <time>2026-01-26T15:27:50.000Z</time>
      </trkpt>
      <trkpt lat="43.8842" lon="2.16309">
        <ele>249</ele>
        <time>2026-01-26T15:27:55.000Z</time>
      </trkpt>
      <trkpt lat="43.88423" lon="2.16307">
        <ele>249</ele>
        <time>2026-01-26T15:28:00.000Z</time>
      </trkpt>
      <trkpt lat="43.88429" lon="2.16303">
        <ele>247</ele>
        <time>2026-01-26T15:28:05.000Z</time>
      </trkpt>
      <trkpt lat="43.88432" lon="2.16298">
        <ele>248</ele>
        <time>2026-01-26T15:28:10.000Z</time>
      </trkpt>
      <trkpt lat="43.88438" lon="2.16293">
        <ele>249</ele>
        <time>2026-01-26T15:28:15.000Z</time>
      </trkpt>
      <trkpt lat="43.88442" lon="2.16289">
        <ele>246</ele>
        <time>2026-01-26T15:28:20.000Z</time>
      </trkpt>
      <trkpt lat="43.88448" lon="2.16285">
        <ele>247</ele>
        <time>2026-01-26T15:28:25.000Z</time>
      </trkpt>
      <trkpt lat="43.88452" lon="2.16282">
        <ele>247</ele>
        <time>2026-01-26T15:28:30.000Z</time>
      </trkpt>
      <trkpt lat="43.88455" lon="2.16276">
        <ele>250</ele>
        <time>2026-01-26T15:28:35.000Z</time>
      </trkpt>
      <trkpt lat="43.88458" lon="2.16272">
        <ele>248</ele>
        <time>2026-01-26T15:28:40.000Z</time>
      </trkpt>
      <trkpt lat="43.88462" lon="2.1627">
        <ele>248</ele>
        <time>2026-01-26T15:28:45.000Z</time>
      </trkpt>
      <trkpt lat="43.88465" lon="2.16267">
        <ele>249</ele>
        <time>2026-01-26T15:28:50.000Z</time>
      </trkpt>
      <trkpt lat="43.88467" lon="2.16264">
        <ele>248</ele>
        <time>2026-01-26T15:28:55.000Z</time>
      </trkpt>
      <trkpt lat="43.88471" lon="2.1626">
        <ele>247</ele>
        <time>2026-01-26T15:29:00.000Z</time>
      </trkpt>
      <trkpt lat="43.88475" lon="2.16255">
        <ele>246</ele>
        <time>2026-01-26T15:29:05.000Z</time>
      </trkpt>
      <trkpt lat="43.8848" lon="2.1625">
        <ele>247</ele>
        <time>2026-01-26T15:29:10.000Z</time>
      </trkpt>
      <trkpt lat="43.88483" lon="2.16245">
        <ele>247</ele>
        <time>2026-01-26T15:29:15.000Z</time>
      </trkpt>
      <trkpt lat="43.88488" lon="2.16241">
        <ele>248</ele>
        <time>2026-01-26T15:29:20.000Z</time>
      </trkpt>
      <trkpt lat="43.88492" lon="2.16236">
        <ele>248</ele>
        <time>2026-01-26T15:29:25.000Z</time>
      </trkpt>
      <trkpt lat="43.88496" lon="2.1623">
        <ele>247</ele>
        <time>2026-01-26T15:29:30.000Z</time>
      </trkpt>
      <trkpt lat="43.88501" lon="2.16226">
        <ele>248</ele>
        <time>2026-01-26T15:29:35.000Z</time>
      </trkpt>
      <trkpt lat="43.88505" lon="2.16222">
        <ele>248</ele>
        <time>2026-01-26T15:29:40.000Z</time>
      </trkpt>
      <trkpt lat="43.88508" lon="2.16216">
        <ele>249</ele>
        <time>2026-01-26T15:29:45.000Z</time>
      </trkpt>
      <trkpt lat="43.88511" lon="2.16212">
        <ele>249</ele>
        <time>2026-01-26T15:29:50.000Z</time>
      </trkpt>
      <trkpt lat="43.88514" lon="2.16206">
        <ele>250</ele>
        <time>2026-01-26T15:29:55.000Z</time>
      </trkpt>
      <trkpt lat="43.88516" lon="2.16199">
        <ele>251</ele>
        <time>2026-01-26T15:30:00.000Z</time>
      </trkpt>
      <trkpt lat="43.8852" lon="2.16191">
        <ele>255</ele>
        <time>2026-01-26T15:30:05.000Z</time>
      </trkpt>
      <trkpt lat="43.88523" lon="2.16184">
        <ele>256</ele>
        <time>2026-01-26T15:30:10.000Z</time>
      </trkpt>
      <trkpt lat="43.88526" lon="2.1618">
        <ele>255</ele>
        <time>2026-01-26T15:30:15.000Z</time>
      </trkpt>
      <trkpt lat="43.8853" lon="2.16175">
        <ele>255</ele>
        <time>2026-01-26T15:30:20.000Z</time>
      </trkpt>
      <trkpt lat="43.88532" lon="2.16172">
        <ele>255</ele>
        <time>2026-01-26T15:30:25.000Z</time>
      </trkpt>
      <trkpt lat="43.88535" lon="2.16167">
        <ele>254</ele>
        <time>2026-01-26T15:30:30.000Z</time>
      </trkpt>
      <trkpt lat="43.88537" lon="2.16165">
        <ele>253</ele>
        <time>2026-01-26T15:30:35.000Z</time>
      </trkpt>
      <trkpt lat="43.8854" lon="2.16161">
        <ele>253</ele>
        <time>2026-01-26T15:30:40.000Z</time>
      </trkpt>
      <trkpt lat="43.88542" lon="2.16157">
        <ele>252</ele>
        <time>2026-01-26T15:30:45.000Z</time>
      </trkpt>
      <trkpt lat="43.88544" lon="2.16151">
        <ele>251</ele>
        <time>2026-01-26T15:30:50.000Z</time>
      </trkpt>
      <trkpt lat="43.88546" lon="2.16143">
        <ele>250</ele>
        <time>2026-01-26T15:30:55.000Z</time>
      </trkpt>
      <trkpt lat="43.88549" lon="2.16136">
        <ele>249</ele>
        <time>2026-01-26T15:31:00.000Z</time>
      </trkpt>
      <trkpt lat="43.88552" lon="2.16132">
        <ele>248</ele>
        <time>2026-01-26T15:31:05.000Z</time>
      </trkpt>
      <trkpt lat="43.88556" lon="2.16127">
        <ele>249</ele>
        <time>2026-01-26T15:31:10.000Z</time>
      </trkpt>
      <trkpt lat="43.88559" lon="2.16123">
        <ele>249</ele>
        <time>2026-01-26T15:31:15.000Z</time>
      </trkpt>
      <trkpt lat="43.88562" lon="2.16116">
        <ele>248</ele>
        <time>2026-01-26T15:31:20.000Z</time>
      </trkpt>
      <trkpt lat="43.88564" lon="2.16112">
        <ele>248</ele>
        <time>2026-01-26T15:31:25.000Z</time>
      </trkpt>
      <trkpt lat="43.88568" lon="2.16105">
        <ele>248</ele>
        <time>2026-01-26T15:31:30.000Z</time>
      </trkpt>
      <trkpt lat="43.88571" lon="2.16098">
        <ele>248</ele>
        <time>2026-01-26T15:31:35.000Z</time>
      </trkpt>
      <trkpt lat="43.88574" lon="2.16092">
        <ele>248</ele>
        <time>2026-01-26T15:31:40.000Z</time>
      </trkpt>
      <trkpt lat="43.88576" lon="2.16087">
        <ele>246</ele>
        <time>2026-01-26T15:31:45.000Z</time>
      </trkpt>
      <trkpt lat="43.88578" lon="2.1608">
        <ele>247</ele>
        <time>2026-01-26T15:31:50.000Z</time>
      </trkpt>
      <trkpt lat="43.8858" lon="2.16071">
        <ele>248</ele>
        <time>2026-01-26T15:31:55.000Z</time>
      </trkpt>
      <trkpt lat="43.88582" lon="2.16062">
        <ele>251</ele>
        <time>2026-01-26T15:32:00.000Z</time>
      </trkpt>
      <trkpt lat="43.88584" lon="2.16054">
        <ele>251</ele>
        <time>2026-01-26T15:32:05.000Z</time>
      </trkpt>
      <trkpt lat="43.88586" lon="2.16048">
        <ele>251</ele>
        <time>2026-01-26T15:32:10.000Z</time>
      </trkpt>
      <trkpt lat="43.88589" lon="2.16041">
        <ele>252</ele>
        <time>2026-01-26T15:32:15.000Z</time>
      </trkpt>
      <trkpt lat="43.88591" lon="2.16034">
        <ele>253</ele>
        <time>2026-01-26T15:32:20.000Z</time>
      </trkpt>
      <trkpt lat="43.88593" lon="2.16029">
        <ele>253</ele>
        <time>2026-01-26T15:32:25.000Z</time>
      </trkpt>
      <trkpt lat="43.88595" lon="2.16023">
        <ele>254</ele>
        <time>2026-01-26T15:32:30.000Z</time>
      </trkpt>
      <trkpt lat="43.88596" lon="2.16017">
        <ele>253</ele>
        <time>2026-01-26T15:32:35.000Z</time>
      </trkpt>
      <trkpt lat="43.88598" lon="2.1601">
        <ele>252</ele>
        <time>2026-01-26T15:32:40.000Z</time>
      </trkpt>
      <trkpt lat="43.886" lon="2.16004">
        <ele>253</ele>
        <time>2026-01-26T15:32:45.000Z</time>
      </trkpt>
      <trkpt lat="43.88602" lon="2.15998">
        <ele>252</ele>
        <time>2026-01-26T15:32:50.000Z</time>
      </trkpt>
      <trkpt lat="43.88603" lon="2.15993">
        <ele>253</ele>
        <time>2026-01-26T15:32:55.000Z</time>
      </trkpt>
      <trkpt lat="43.88605" lon="2.15988">
        <ele>252</ele>
        <time>2026-01-26T15:33:00.000Z</time>
      </trkpt>
      <trkpt lat="43.88606" lon="2.15981">
        <ele>251</ele>
        <time>2026-01-26T15:33:05.000Z</time>
      </trkpt>
      <trkpt lat="43.88608" lon="2.15975">
        <ele>250</ele>
        <time>2026-01-26T15:33:10.000Z</time>
      </trkpt>
      <trkpt lat="43.88609" lon="2.15971">
        <ele>250</ele>
        <time>2026-01-26T15:33:15.000Z</time>
      </trkpt>
      <trkpt lat="43.8861" lon="2.15965">
        <ele>250</ele>
        <time>2026-01-26T15:33:20.000Z</time>
      </trkpt>
      <trkpt lat="43.88611" lon="2.15959">
        <ele>249</ele>
        <time>2026-01-26T15:33:25.000Z</time>
      </trkpt>
      <trkpt lat="43.88613" lon="2.15952">
        <ele>250</ele>
        <time>2026-01-26T15:33:30.000Z</time>
      </trkpt>
      <trkpt lat="43.88613" lon="2.15945">
        <ele>250</ele>
        <time>2026-01-26T15:33:35.000Z</time>
      </trkpt>
      <trkpt lat="43.88614" lon="2.15938">
        <ele>250</ele>
        <time>2026-01-26T15:33:40.000Z</time>
      </trkpt>
      <trkpt lat="43.88615" lon="2.1593">
        <ele>250</ele>
        <time>2026-01-26T15:33:45.000Z</time>
      </trkpt>
      <trkpt lat="43.88616" lon="2.15922">
        <ele>250</ele>
        <time>2026-01-26T15:33:50.000Z</time>
      </trkpt>
      <trkpt lat="43.88617" lon="2.15916">
        <ele>249</ele>
        <time>2026-01-26T15:33:55.000Z</time>
      </trkpt>
      <trkpt lat="43.88617" lon="2.15909">
        <ele>249</ele>
        <time>2026-01-26T15:34:00.000Z</time>
      </trkpt>
      <trkpt lat="43.88618" lon="2.15903">
        <ele>248</ele>
        <time>2026-01-26T15:34:05.000Z</time>
      </trkpt>
      <trkpt lat="43.8862" lon="2.15898">
        <ele>248</ele>
        <time>2026-01-26T15:34:10.000Z</time>
      </trkpt>
      <trkpt lat="43.88621" lon="2.15892">
        <ele>248</ele>
        <time>2026-01-26T15:34:15.000Z</time>
      </trkpt>
      <trkpt lat="43.88622" lon="2.15885">
        <ele>247</ele>
        <time>2026-01-26T15:34:20.000Z</time>
      </trkpt>
      <trkpt lat="43.88623" lon="2.15878">
        <ele>248</ele>
        <time>2026-01-26T15:34:25.000Z</time>
      </trkpt>
      <trkpt lat="43.88623" lon="2.1587">
        <ele>247</ele>
        <time>2026-01-26T15:34:30.000Z</time>
      </trkpt>
      <trkpt lat="43.88623" lon="2.15863">
        <ele>246</ele>
        <time>2026-01-26T15:34:35.000Z</time>
      </trkpt>
      <trkpt lat="43.88623" lon="2.15856">
        <ele>246</ele>
        <time>2026-01-26T15:34:40.000Z</time>
      </trkpt>
      <trkpt lat="43.88624" lon="2.15849">
        <ele>246</ele>
        <time>2026-01-26T15:34:45.000Z</time>
      </trkpt>
      <trkpt lat="43.88624" lon="2.15846">
        <ele>247</ele>
        <time>2026-01-26T15:34:50.000Z</time>
      </trkpt>
      <trkpt lat="43.88624" lon="2.15838">
        <ele>247</ele>
        <time>2026-01-26T15:34:55.000Z</time>
      </trkpt>
      <trkpt lat="43.88624" lon="2.15831">
        <ele>246</ele>
        <time>2026-01-26T15:35:00.000Z</time>
      </trkpt>
      <trkpt lat="43.88623" lon="2.15823">
        <ele>245</ele>
        <time>2026-01-26T15:35:05.000Z</time>
      </trkpt>
      <trkpt lat="43.88623" lon="2.15815">
        <ele>244</ele>
        <time>2026-01-26T15:35:10.000Z</time>
      </trkpt>
      <trkpt lat="43.88623" lon="2.15807">
        <ele>244</ele>
        <time>2026-01-26T15:35:15.000Z</time>
      </trkpt>
      <trkpt lat="43.88625" lon="2.15801">
        <ele>242</ele>
        <time>2026-01-26T15:35:20.000Z</time>
      </trkpt>
      <trkpt lat="43.88626" lon="2.15794">
        <ele>242</ele>
        <time>2026-01-26T15:35:25.000Z</time>
      </trkpt>
      <trkpt lat="43.88626" lon="2.15789">
        <ele>242</ele>
        <time>2026-01-26T15:35:30.000Z</time>
      </trkpt>
      <trkpt lat="43.88626" lon="2.15782">
        <ele>242</ele>
        <time>2026-01-26T15:35:35.000Z</time>
      </trkpt>
      <trkpt lat="43.88626" lon="2.15775">
        <ele>243</ele>
        <time>2026-01-26T15:35:40.000Z</time>
      </trkpt>
      <trkpt lat="43.88626" lon="2.15769">
        <ele>243</ele>
        <time>2026-01-26T15:35:45.000Z</time>
      </trkpt>
      <trkpt lat="43.88626" lon="2.15761">
        <ele>243</ele>
        <time>2026-01-26T15:35:50.000Z</time>
      </trkpt>
      <trkpt lat="43.88627" lon="2.15756">
        <ele>243</ele>
        <time>2026-01-26T15:35:55.000Z</time>
      </trkpt>
      <trkpt lat="43.88627" lon="2.15749">
        <ele>243</ele>
        <time>2026-01-26T15:36:00.000Z</time>
      </trkpt>
      <trkpt lat="43.88628" lon="2.15741">
        <ele>243</ele>
        <time>2026-01-26T15:36:05.000Z</time>
      </trkpt>
      <trkpt lat="43.88627" lon="2.15732">
        <ele>242</ele>
        <time>2026-01-26T15:36:10.000Z</time>
      </trkpt>
      <trkpt lat="43.88628" lon="2.15725">
        <ele>243</ele>
        <time>2026-01-26T15:36:15.000Z</time>
      </trkpt>
      <trkpt lat="43.88629" lon="2.15718">
        <ele>243</ele>
        <time>2026-01-26T15:36:20.000Z</time>
      </trkpt>
      <trkpt lat="43.88629" lon="2.15709">
        <ele>243</ele>
        <time>2026-01-26T15:36:25.000Z</time>
      </trkpt>
      <trkpt lat="43.8863" lon="2.15701">
        <ele>243</ele>
        <time>2026-01-26T15:36:30.000Z</time>
      </trkpt>
      <trkpt lat="43.8863" lon="2.15696">
        <ele>243</ele>
        <time>2026-01-26T15:36:35.000Z</time>
      </trkpt>
      <trkpt lat="43.88631" lon="2.15689">
        <ele>243</ele>
        <time>2026-01-26T15:36:40.000Z</time>
      </trkpt>
      <trkpt lat="43.88631" lon="2.15681">
        <ele>242</ele>
        <time>2026-01-26T15:36:45.000Z</time>
      </trkpt>
      <trkpt lat="43.88632" lon="2.15676">
        <ele>244</ele>
        <time>2026-01-26T15:36:50.000Z</time>
      </trkpt>
      <trkpt lat="43.88632" lon="2.15668">
        <ele>244</ele>
        <time>2026-01-26T15:36:55.000Z</time>
      </trkpt>
      <trkpt lat="43.88633" lon="2.15662">
        <ele>244</ele>
        <time>2026-01-26T15:37:00.000Z</time>
      </trkpt>
      <trkpt lat="43.88634" lon="2.15657">
        <ele>244</ele>
        <time>2026-01-26T15:37:05.000Z</time>
      </trkpt>
      <trkpt lat="43.88635" lon="2.15651">
        <ele>243</ele>
        <time>2026-01-26T15:37:10.000Z</time>
      </trkpt>
      <trkpt lat="43.88636" lon="2.15643">
        <ele>244</ele>
        <time>2026-01-26T15:37:15.000Z</time>
      </trkpt>
      <trkpt lat="43.88638" lon="2.15637">
        <ele>242</ele>
        <time>2026-01-26T15:37:20.000Z</time>
      </trkpt>
      <trkpt lat="43.88639" lon="2.15626">
        <ele>240</ele>
        <time>2026-01-26T15:37:25.000Z</time>
      </trkpt>
      <trkpt lat="43.88641" lon="2.1562">
        <ele>241</ele>
        <time>2026-01-26T15:37:30.000Z</time>
      </trkpt>
      <trkpt lat="43.88641" lon="2.15613">
        <ele>241</ele>
        <time>2026-01-26T15:37:35.000Z</time>
      </trkpt>
      <trkpt lat="43.88643" lon="2.15604">
        <ele>241</ele>
        <time>2026-01-26T15:37:40.000Z</time>
      </trkpt>
      <trkpt lat="43.88644" lon="2.15598">
        <ele>241</ele>
        <time>2026-01-26T15:37:45.000Z</time>
      </trkpt>
      <trkpt lat="43.88645" lon="2.15593">
        <ele>240</ele>
        <time>2026-01-26T15:37:50.000Z</time>
      </trkpt>
      <trkpt lat="43.88647" lon="2.15588">
        <ele>240</ele>
        <time>2026-01-26T15:37:55.000Z</time>
      </trkpt>
      <trkpt lat="43.88648" lon="2.15582">
        <ele>240</ele>
        <time>2026-01-26T15:38:00.000Z</time>
      </trkpt>
      <trkpt lat="43.88649" lon="2.15578">
        <ele>241</ele>
        <time>2026-01-26T15:38:05.000Z</time>
      </trkpt>
      <trkpt lat="43.8865" lon="2.15571">
        <ele>241</ele>
        <time>2026-01-26T15:38:10.000Z</time>
      </trkpt>
      <trkpt lat="43.88651" lon="2.15567">
        <ele>240</ele>
        <time>2026-01-26T15:38:15.000Z</time>
      </trkpt>
      <trkpt lat="43.88652" lon="2.15564">
        <ele>239</ele>
        <time>2026-01-26T15:38:20.000Z</time>
      </trkpt>
      <trkpt lat="43.88653" lon="2.15558">
        <ele>240</ele>
        <time>2026-01-26T15:38:25.000Z</time>
      </trkpt>
      <trkpt lat="43.88656" lon="2.15552">
        <ele>241</ele>
        <time>2026-01-26T15:38:30.000Z</time>
      </trkpt>
      <trkpt lat="43.88657" lon="2.15546">
        <ele>242</ele>
        <time>2026-01-26T15:38:35.000Z</time>
      </trkpt>
      <trkpt lat="43.88659" lon="2.15538">
        <ele>240</ele>
        <time>2026-01-26T15:38:40.000Z</time>
      </trkpt>
      <trkpt lat="43.88661" lon="2.15535">
        <ele>239</ele>
        <time>2026-01-26T15:38:45.000Z</time>
      </trkpt>
      <trkpt lat="43.88663" lon="2.1553">
        <ele>239</ele>
        <time>2026-01-26T15:38:50.000Z</time>
      </trkpt>
      <trkpt lat="43.88664" lon="2.15525">
        <ele>238</ele>
        <time>2026-01-26T15:38:55.000Z</time>
      </trkpt>
      <trkpt lat="43.88666" lon="2.15519">
        <ele>239</ele>
        <time>2026-01-26T15:39:00.000Z</time>
      </trkpt>
      <trkpt lat="43.88667" lon="2.15512">
        <ele>240</ele>
        <time>2026-01-26T15:39:05.000Z</time>
      </trkpt>
      <trkpt lat="43.88667" lon="2.15506">
        <ele>243</ele>
        <time>2026-01-26T15:39:10.000Z</time>
      </trkpt>
      <trkpt lat="43.88667" lon="2.15505">
        <ele>244</ele>
        <time>2026-01-26T15:39:15.000Z</time>
      </trkpt>
      <trkpt lat="43.88666" lon="2.15502">
        <ele>249</ele>
        <time>2026-01-26T15:39:20.000Z</time>
      </trkpt>
      <trkpt lat="43.88667" lon="2.15501">
        <ele>252</ele>
        <time>2026-01-26T15:39:25.000Z</time>
      </trkpt>
      <trkpt lat="43.88666" lon="2.15501">
        <ele>253</ele>
        <time>2026-01-26T15:39:30.000Z</time>
      </trkpt>
      <trkpt lat="43.88667" lon="2.155">
        <ele>254</ele>
        <time>2026-01-26T15:39:35.000Z</time>
      </trkpt>
      <trkpt lat="43.88668" lon="2.15499">
        <ele>256</ele>
        <time>2026-01-26T15:39:40.000Z</time>
      </trkpt>
      <trkpt lat="43.88668" lon="2.155">
        <ele>256</ele>
        <time>2026-01-26T15:39:45.000Z</time>
      </trkpt>
      <trkpt lat="43.88669" lon="2.15499">
        <ele>256</ele>
        <time>2026-01-26T15:39:50.000Z</time>
      </trkpt>
      <trkpt lat="43.88667" lon="2.15499">
        <ele>255</ele>
        <time>2026-01-26T15:39:55.000Z</time>
      </trkpt>
      <trkpt lat="43.88668" lon="2.155">
        <ele>255</ele>
        <time>2026-01-26T15:40:00.000Z</time>
      </trkpt>
      <trkpt lat="43.88668" lon="2.155">
        <ele>256</ele>
        <time>2026-01-26T15:40:05.000Z</time>
      </trkpt>
      <trkpt lat="43.88668" lon="2.155">
        <ele>256</ele>
        <time>2026-01-26T15:40:10.000Z</time>
      </trkpt>
      <trkpt lat="43.88667" lon="2.155">
        <ele>257</ele>
        <time>2026-01-26T15:40:15.000Z</time>
      </trkpt>
      <trkpt lat="43.88668" lon="2.15498">
        <ele>257</ele>
        <time>2026-01-26T15:40:20.000Z</time>
      </trkpt>
      <trkpt lat="43.88668" lon="2.15493">
        <ele>256</ele>
        <time>2026-01-26T15:40:25.000Z</time>
      </trkpt>
      <trkpt lat="43.88668" lon="2.15494">
        <ele>257</ele>
        <time>2026-01-26T15:40:30.000Z</time>
      </trkpt>
      <trkpt lat="43.8867" lon="2.1549">
        <ele>257</ele>
        <time>2026-01-26T15:40:35.000Z</time>
      </trkpt>
      <trkpt lat="43.88669" lon="2.15491">
        <ele>257</ele>
        <time>2026-01-26T15:40:40.000Z</time>
      </trkpt>
      <trkpt lat="43.88669" lon="2.15488">
        <ele>255</ele>
        <time>2026-01-26T15:40:45.000Z</time>
      </trkpt>
      <trkpt lat="43.88669" lon="2.15487">
        <ele>257</ele>
        <time>2026-01-26T15:40:50.000Z</time>
      </trkpt>
      <trkpt lat="43.88669" lon="2.15487">
        <ele>256</ele>
        <time>2026-01-26T15:40:55.000Z</time>
      </trkpt>
      <trkpt lat="43.88669" lon="2.1549">
        <ele>255</ele>
        <time>2026-01-26T15:41:00.000Z</time>
      </trkpt>
      <trkpt lat="43.88667" lon="2.15491">
        <ele>255</ele>
        <time>2026-01-26T15:41:05.000Z</time>
      </trkpt>
      <trkpt lat="43.88665" lon="2.15495">
        <ele>255</ele>
        <time>2026-01-26T15:41:10.000Z</time>
      </trkpt>
      <trkpt lat="43.88665" lon="2.15498">
        <ele>257</ele>
        <time>2026-01-26T15:41:15.000Z</time>
      </trkpt>
      <trkpt lat="43.88665" lon="2.15497">
        <ele>255</ele>
        <time>2026-01-26T15:41:20.000Z</time>
      </trkpt>
      <trkpt lat="43.88667" lon="2.15499">
        <ele>256</ele>
        <time>2026-01-26T15:41:25.000Z</time>
      </trkpt>
      <trkpt lat="43.88669" lon="2.15499">
        <ele>256</ele>
        <time>2026-01-26T15:41:30.000Z</time>
      </trkpt>
      <trkpt lat="43.8867" lon="2.15496">
        <ele>255</ele>
        <time>2026-01-26T15:41:35.000Z</time>
      </trkpt>
      <trkpt lat="43.8867" lon="2.15496">
        <ele>255</ele>
        <time>2026-01-26T15:41:40.000Z</time>
      </trkpt>
    </trkseg>
  </trk>
</gpx>